[[{"header":{"parameterUnit":"m.s-1","parameterCategory":1,"la1":30.6,"la2":28.766,"lo1":-90.7593,"lo2":-88.6598,"dy":0.0162,"dx":0.0183,"nx":116,"ny":114,"refTime":"2023-07-27T06:00:00:Z","depth":0,"parameterNumber":2,"parameterNumberName":"U-component_of_WINDS"},"data":[0.0,0.0,0.0,0.0,0.0,0.0,0.0,0.0,0.0,0.0,0.0,0.0,0.0,0.0,0.0,0.0,0.0,0.0,0.0,0.0,0.0,0.0,0.0,0.0,0.0,0.0,0.0,0.0,0.0,0.0,0.0,0.0,0.0,0.0,0.0,0.0,0.0,0.0,0.0,0.0,0.0,0.0,0.0,0.0,0.0,0.0,0.0,0.0,0.0,0.0,0.0,0.0,0.0,0.0,0.0,0.0,0.0,0.0,0.0,0.0,0.0,0.0,0.0,0.0,0.0,0.0,0.0,0.0,0.0,0.0,0.0,0.0,0.0,0.0,0.0,0.0,0.0,0.0,0.0,0.0,0.0,0.0,0.0,0.0,0.0,0.0,0.0,0.0,0.0,0.0,0.0,0.0,0.0,0.0,0.0,0.0,0.0,0.0,0.0,0.0,0.0,0.0,0.0,0.0,0.0,0.0,0.0,0.0,0.0,0.0,0.0,0.0,0.0,0.0,0.0,0.0,0.0,0.0,0.0,0.0,0.0,0.0,0.0,0.0,0.0,0.0,0.0,0.0,0.0,0.0,0.0,0.0,0.0,0.0,0.0,0.0,0.0,0.0,0.0,0.0,0.0,0.0,0.0,0.0,0.0,0.0,0.0,0.0,0.0,0.0,0.0,0.0,0.0,0.0,0.0,0.0,0.0,0.0,0.0,0.0,0.0,0.0,0.0,0.0,0.0,0.0,0.0,0.0,0.0,0.0,0.0,0.0,0.0,0.0,0.0,0.0,0.0,0.0,0.0,0.0,0.0,0.0,0.0,0.0,0.0,0.0,0.0,0.0,0.0,0.0,0.0,0.0,0.0,0.0,0.0,0.0,0.0,0.0,0.0,0.0,0.0,0.0,0.0,0.0,0.0,0.0,0.0,0.0,0.0,0.0,0.0,0.0,0.0,0.0,0.0,0.0,0.0,0.0,0.0,0.0,0.0,0.0,0.0,0.0,0.0,0.0,0.0,0.0,0.0,0.0,0.0,0.0,0.0,0.0,0.0,0.0,0.0,0.0,0.0,0.0,0.0,0.0,0.0,0.0,0.0,0.0,0.0,0.0,0.0,0.0,0.0,0.0,0.0,0.0,0.0,0.0,0.0,0.0,0.0,0.0,0.0,0.0,0.0,0.0,0.0,0.0,0.0,0.0,0.0,0.0,0.0,0.0,0.0,0.0,0.0,0.0,0.0,0.0,0.0,0.0,0.0,0.0,0.0,0.0,0.0,0.0,0.0,0.0,0.0,0.0,0.0,0.0,0.0,0.0,0.0,0.0,0.0,0.0,0.0,0.0,0.0,0.0,0.0,0.0,0.0,0.0,0.0,0.0,0.0,0.0,0.0,0.0,0.0,0.0,0.0,0.0,0.0,0.0,0.0,0.0,0.0,0.0,0.0,0.0,0.0,0.0,0.0,0.0,0.0,0.0,0.0,0.0,0.0,0.0,0.0,0.0,0.0,0.0,0.0,0.0,0.0,0.0,0.0,0.0,0.0,0.0,0.0,0.0,0.0,0.0,0.0,0.0,0.0,0.0,0.0,0.0,0.0,0.0,0.0,0.0,0.0,0.0,0.0,0.0,0.0,0.0,0.0,0.0,0.0,0.0,0.0,0.0,0.0,0.0,0.0,0.0,0.0,0.0,0.0,0.0,0.0,0.0,0.0,0.0,0.0,0.0,0.0,0.0,0.0,0.0,0.0,0.0,0.0,0.0,0.0,0.0,0.0,0.0,0.0,0.0,0.0,0.0,0.0,0.0,0.0,0.0,0.0,0.0,0.0,0.0,0.0,0.0,0.0,0.0,0.0,0.0,0.0,0.0,0.0,0.0,0.0,0.0,0.0,0.0,0.0,0.0,0.0,0.0,0.0,0.0,0.0,0.0,0.0,0.0,0.0,0.0,0.0,0.0,0.0,0.0,0.0,0.0,0.0,0.0,0.0,0.0,0.0,0.0,0.0,0.0,0.0,0.0,0.0,0.0,0.0,0.0,0.0,0.0,0.0,0.0,0.0,0.0,0.0,0.0,0.0,0.0,0.0,0.0,0.0,0.0,0.0,0.0,0.0,0.0,0.0,0.0,0.0,0.0,0.0,0.0,0.0,0.0,0.0,0.0,0.0,0.0,0.0,0.0,0.0,0.0,0.0,0.0,0.0,0.0,0.0,0.0,0.0,0.0,0.0,0.0,0.0,0.0,0.0,0.0,0.0,0.0,0.0,0.0,0.0,0.0,0.0,0.0,0.0,0.0,0.0,0.0,0.0,0.0,0.0,0.0,0.0,0.0,0.0,0.0,0.0,0.0,0.0,0.0,0.0,0.0,0.0,0.0,0.0,0.0,0.0,0.0,0.0,0.0,0.0,0.0,0.0,0.0,0.0,0.0,0.0,0.0,0.0,0.0,0.0,0.0,0.0,0.0,0.0,0.0,0.0,0.0,0.0,0.0,0.0,0.0,0.0,0.0,0.0,0.0,0.0,0.0,0.0,0.0,0.0,0.0,0.0,0.0,0.0,0.0,0.0,0.0,0.0,0.0,0.0,0.0,0.0,0.0,0.0,0.0,0.0,0.0,0.0,0.0,0.0,0.0,0.0,0.0,0.0,0.0,0.0,0.0,0.0,0.0,0.0,0.0,0.0,0.0,0.0,0.0,0.0,0.0,0.0,0.0,0.0,0.0,0.0,0.0,0.0,0.0,0.0,0.0,0.0,0.0,0.0,0.0,0.0,0.0,0.0,0.0,0.0,0.0,0.0,0.0,0.0,0.0,0.0,0.0,0.0,0.0,0.0,0.0,0.0,0.0,0.0,0.0,0.0,0.0,0.0,0.0,0.0,0.0,0.0,0.0,0.0,0.0,0.0,0.0,0.0,0.0,0.0,0.0,0.0,0.0,0.0,0.0,0.0,0.0,0.0,0.0,0.0,0.0,0.0,0.0,0.0,0.0,0.0,0.0,0.0,0.0,0.0,0.0,0.0,0.0,0.0,0.0,0.0,0.0,0.0,0.0,0.0,0.0,0.0,0.0,0.0,0.0,0.0,0.0,0.0,0.0,0.0,0.0,0.0,0.0,0.0,0.0,0.0,0.0,0.0,0.0,0.0,0.0,0.0,0.0,0.0,0.0,0.0,0.0,0.0,0.0,0.0,0.0,0.0,0.0,0.0,0.0,0.0,0.0,0.0,0.0,0.0,0.0,0.0,0.0,0.0,0.0,0.0,0.0,0.0,0.0,0.0,0.0,0.0,0.0,0.0,0.0,0.0,0.0,0.0,0.0,0.0,0.0,0.0,0.0,0.0,0.0,0.0,0.0,0.0,0.0,0.0,0.0,0.0,0.0,0.0,0.0,0.0,0.0,0.0,0.0,0.0,0.0,0.0,0.0,0.0,0.0,0.0,0.0,0.0,0.0,0.0,0.0,0.0,0.0,0.0,0.0,0.0,0.0,0.0,0.0,0.0,0.0,0.0,0.0,0.0,0.0,0.0,0.0,0.0,0.0,0.0,0.0,0.0,0.0,0.0,0.0,0.0,0.0,0.0,0.0,0.0,0.0,0.0,0.0,0.0,0.0,0.0,0.0,0.0,0.0,0.0,0.0,0.0,0.0,0.0,0.0,0.0,0.0,0.0,0.0,0.0,0.0,0.0,0.0,0.0,0.0,0.0,0.0,0.0,0.0,0.0,0.0,0.0,0.0,0.0,0.0,0.0,0.0,0.0,0.0,0.0,0.0,0.0,0.0,0.0,0.0,0.0,0.0,0.0,0.0,0.0,0.0,0.0,0.0,0.0,0.0,0.0,0.0,0.0,0.0,0.0,0.0,0.0,0.0,0.0,0.0,0.0,0.0,0.0,0.0,0.0,0.0,0.0,0.0,0.0,0.0,0.0,0.0,0.0,0.0,0.0,0.0,0.0,0.0,0.0,0.0,0.0,0.0,0.0,0.0,0.0,0.0,0.0,0.0,0.0,0.0,0.0,0.0,0.0,0.0,0.0,0.0,0.0,0.0,0.0,0.0,0.0,0.0,0.0,0.0,0.0,0.0,0.0,0.0,0.0,0.0,0.0,0.0,0.0,0.0,0.0,0.0,0.0,0.0,0.0,0.0,0.0,0.0,0.0,0.0,0.0,0.0,0.0,0.0,0.0,0.0,0.0,0.0,0.0,0.0,0.0,0.0,0.0,0.0,0.0,0.0,0.0,0.0,0.0,0.0,0.0,0.0,0.0,0.0,0.0,0.0,0.0,0.0,0.0,0.0,0.0,0.0,0.0,0.0,0.0,0.0,0.0,0.0,0.0,0.0,0.0,0.0,0.0,0.0,0.0,0.0,0.0,0.0,0.0,0.0,0.0,0.0,0.0,0.0,0.0,0.0,0.0,0.0,0.0,0.0,0.0,0.0,0.0,0.0,0.0,0.0,0.0,0.0,0.0,0.0,0.0,0.0,0.0,0.0,0.0,0.0,0.0,0.0,0.0,0.0,0.0,0.0,0.0,0.0,0.0,0.0,0.0,0.0,0.0,0.0,0.0,0.0,0.0,0.0,0.0,0.0,0.0,0.0,0.0,0.0,0.0,0.0,0.0,0.0,0.0,0.0,0.0,0.0,0.0,0.0,0.0,0.0,0.0,0.0,0.0,0.0,0.0,0.0,0.0,0.0,0.0,0.0,0.0,0.0,0.0,0.0,0.0,0.0,0.0,0.0,0.0,0.0,0.0,0.0,0.0,0.0,0.0,0.0,0.0,0.0,0.0,0.0,0.0,0.0,0.0,0.0,0.0,0.0,0.0,0.0,0.0,0.0,0.0,0.0,0.0,0.0,0.0,0.0,0.0,0.0,0.0,0.0,0.0,0.0,0.0,0.0,0.0,0.0,0.0,0.0,0.0,0.0,0.0,0.0,0.0,0.0,0.0,0.0,0.0,0.0,0.0,0.0,0.0,0.0,0.0,0.0,0.0,0.0,0.0,0.0,0.0,0.0,0.0,0.0,0.0,0.0,0.0,0.0,0.0,0.0,0.0,0.0,0.0,0.0,0.0,0.0,0.0,0.0,0.0,0.0,0.0,0.0,0.0,0.0,0.0,0.0,0.0,0.0,0.0,0.0,0.0,0.0,0.0,0.0,0.0,0.0,0.0,0.0,0.0,0.0,0.0,0.0,0.0,0.0,0.0,0.0,0.0,0.0,0.0,0.0,0.0,0.0,0.0,0.0,0.0,0.0,0.0,0.0,0.0,0.0,0.0,0.0,0.0,0.0,0.0,0.0,0.0,0.0,0.0,0.0,0.0,0.0,0.0,0.0,0.0,0.0,0.0,0.0,0.0,0.0,0.0,0.0,0.0,0.0,0.0,0.0,0.0,0.0,0.0,0.0,0.0,0.0,0.0,0.0,0.0,0.0,0.0,0.0,0.0,0.0,0.0,0.0,0.0,0.0,0.0,0.0,0.0,0.0,0.0,0.0,0.0,0.0,0.0,0.0,0.0,0.0,0.0,0.0,0.0,0.0,0.0,0.0,0.0,0.0,0.0,0.0,0.0,0.0,0.0,0.0,0.0,0.0,0.0,0.0,0.0,0.0,0.0,0.0,0.0,0.0,0.0,0.0,0.0,0.0,0.0,0.0,0.0,0.0,0.0,0.0,0.0,0.0,0.0,0.0,0.0,0.0,0.0,0.0,0.0,0.0,0.0,0.0,0.0,0.0,0.0,0.0,0.0,0.0,0.0,0.0,0.0,0.0,0.0,0.0,0.0,0.0,0.0,0.0,0.0,0.0,0.0,0.0,0.0,0.0,0.0,0.0,0.0,0.0,0.0,0.0,0.0,0.0,0.0,0.0,0.0,0.0,0.0,0.0,0.0,0.0,0.0,0.0,0.0,0.0,0.0,0.0,0.0,0.0,0.0,0.0,0.0,0.0,0.0,0.0,0.0,0.0,0.0,0.0,0.0,0.0,0.0,0.0,0.0,0.0,0.0,0.0,0.0,0.0,0.0,0.0,0.0,0.0,0.0,0.0,0.0,0.0,0.0,0.0,0.0,0.0,0.0,0.0,0.0,0.0,0.0,0.0,0.0,0.0,0.0,0.0,0.0,0.0,0.0,0.0,0.0,0.0,-3.2138,0.0,0.0,0.0,0.0,0.0,0.0,0.0,0.0,0.0,0.0,0.0,0.0,0.0,0.0,0.0,0.0,0.0,0.0,0.0,0.0,0.0,0.0,0.0,0.0,0.0,0.0,0.0,0.0,0.0,0.0,0.0,0.0,0.0,0.0,0.0,0.0,0.0,0.0,0.0,-3.9001,-3.9488,-3.9928,-4.0127,-4.0301,-4.0444,0.0,0.0,0.0,0.0,0.0,0.0,0.0,0.0,0.0,0.0,0.0,0.0,0.0,0.0,0.0,0.0,0.0,0.0,0.0,0.0,0.0,0.0,0.0,0.0,0.0,0.0,0.0,0.0,0.0,0.0,0.0,0.0,0.0,0.0,0.0,0.0,0.0,0.0,0.0,0.0,0.0,0.0,0.0,0.0,0.0,0.0,0.0,0.0,0.0,0.0,0.0,0.0,0.0,0.0,0.0,0.0,0.0,0.0,0.0,0.0,0.0,0.0,0.0,0.0,0.0,0.0,0.0,0.0,0.0,0.0,0.0,-3.2776,0.0,0.0,0.0,0.0,0.0,0.0,0.0,0.0,0.0,0.0,0.0,0.0,0.0,0.0,0.0,0.0,0.0,0.0,0.0,0.0,0.0,0.0,0.0,0.0,0.0,0.0,0.0,0.0,0.0,0.0,0.0,0.0,0.0,0.0,0.0,0.0,0.0,0.0,-4.0787,-4.1416,-4.2342,-4.2825,-4.3114,-4.3244,-4.2822,0.0,0.0,0.0,0.0,0.0,0.0,0.0,0.0,0.0,0.0,0.0,0.0,0.0,0.0,0.0,0.0,0.0,0.0,0.0,0.0,0.0,0.0,0.0,0.0,0.0,0.0,0.0,0.0,0.0,0.0,0.0,0.0,0.0,0.0,0.0,0.0,0.0,0.0,0.0,0.0,0.0,0.0,0.0,0.0,0.0,0.0,0.0,0.0,0.0,0.0,0.0,0.0,0.0,0.0,0.0,0.0,0.0,0.0,0.0,0.0,0.0,0.0,0.0,-3.6521,-3.6682,-3.6051,-3.6535,-3.6453,-3.5898,-3.4826,-3.3797,-3.2906,0.0,0.0,0.0,0.0,0.0,0.0,0.0,0.0,0.0,0.0,0.0,0.0,0.0,0.0,0.0,0.0,0.0,0.0,0.0,0.0,0.0,0.0,0.0,0.0,0.0,0.0,0.0,0.0,0.0,0.0,0.0,0.0,0.0,0.0,0.0,0.0,-4.0405,-4.1925,-4.3148,-4.4107,-4.5659,-4.6499,-4.6641,-4.4487,-4.4016,-4.4738,0.0,0.0,0.0,0.0,0.0,0.0,0.0,0.0,0.0,0.0,0.0,0.0,0.0,0.0,0.0,0.0,0.0,0.0,0.0,0.0,0.0,0.0,0.0,0.0,0.0,0.0,0.0,0.0,0.0,0.0,0.0,0.0,0.0,0.0,0.0,0.0,0.0,0.0,0.0,0.0,0.0,-3.6536,-3.5705,0.0,0.0,0.0,0.0,0.0,0.0,0.0,0.0,0.0,0.0,0.0,0.0,0.0,-3.7916,-3.8421,-3.8905,-3.9022,-3.8777,-3.8777,-3.8716,-3.8586,-3.7992,-3.8034,-3.8516,-3.6865,0.0,-3.3789,-3.4426,0.0,0.0,0.0,0.0,0.0,0.0,0.0,0.0,0.0,0.0,0.0,0.0,0.0,0.0,0.0,0.0,0.0,0.0,0.0,0.0,0.0,0.0,0.0,0.0,0.0,0.0,0.0,0.0,0.0,0.0,0.0,0.0,0.0,0.0,0.0,0.0,-4.3502,-4.4554,-4.5007,-4.6791,-4.7766,-4.7985,-4.7423,-4.6928,-4.6376,-4.5129,0.0,0.0,0.0,0.0,0.0,0.0,0.0,0.0,0.0,0.0,0.0,0.0,0.0,0.0,0.0,0.0,0.0,0.0,0.0,0.0,0.0,0.0,0.0,0.0,0.0,0.0,0.0,0.0,0.0,0.0,0.0,0.0,0.0,0.0,0.0,0.0,0.0,0.0,0.0,-3.6429,-3.6742,-3.6311,-3.6556,-3.662,0.0,0.0,0.0,0.0,0.0,0.0,0.0,0.0,0.0,-3.8796,-3.92,-3.946,-3.9566,-3.9722,-3.9664,-3.9414,-4.0155,-4.0271,-3.9825,-3.9918,-3.9918,-3.9788,-3.8952,-3.7872,-3.662,-3.5482,-3.4784,-3.4417,0.0,0.0,0.0,0.0,-3.3121,-3.2709,0.0,0.0,0.0,0.0,0.0,0.0,0.0,0.0,0.0,0.0,0.0,0.0,0.0,0.0,0.0,-4.1432,0.0,0.0,0.0,0.0,0.0,0.0,0.0,0.0,0.0,0.0,0.0,-4.3751,-4.5054,-4.5927,-4.6377,-4.7971,-4.8952,-4.9394,-5.0153,-4.9644,-4.8172,-4.7081,-4.5636,-4.3997,0.0,0.0,0.0,0.0,0.0,0.0,0.0,0.0,0.0,0.0,0.0,0.0,0.0,0.0,0.0,0.0,0.0,0.0,0.0,0.0,0.0,0.0,0.0,0.0,0.0,0.0,0.0,0.0,0.0,0.0,0.0,0.0,0.0,0.0,0.0,0.0,0.0,-3.6712,-3.7212,-3.6556,-3.7203,-3.7452,0.0,0.0,0.0,0.0,0.0,0.0,-3.9835,-3.9315,-3.9642,-4.1131,-4.1362,-4.1456,-4.1418,-4.1195,-4.1062,-4.1021,-4.1833,-4.1887,-4.133,-4.172,-4.1683,-4.1293,-4.0759,-4.0278,-3.9697,-3.7268,-3.6042,-3.5573,-3.4981,-3.4614,-3.4431,-3.4311,-3.396,-3.353,0.0,0.0,0.0,0.0,0.0,0.0,0.0,0.0,0.0,0.0,0.0,0.0,0.0,0.0,-4.302,-4.2304,-4.3681,-4.4232,0.0,0.0,0.0,0.0,0.0,0.0,0.0,0.0,0.0,-4.6309,-4.6458,-4.735,-4.8939,-4.9923,-5.0855,-5.1736,-5.1983,-5.1293,-4.987,-4.823,-4.6532,-4.4795,-4.3138,0.0,0.0,0.0,0.0,0.0,0.0,0.0,0.0,0.0,0.0,0.0,0.0,0.0,0.0,0.0,0.0,0.0,0.0,0.0,0.0,0.0,0.0,0.0,0.0,0.0,0.0,0.0,0.0,0.0,0.0,0.0,0.0,0.0,0.0,0.0,0.0,0.0,0.0,-3.5869,-3.843,0.0,0.0,0.0,0.0,-3.9169,-3.9842,-4.0662,-4.1615,-4.1635,-4.2027,-4.2931,-4.3701,-4.4382,-4.4934,-4.4672,-4.4833,-4.5374,-4.436,-4.3856,-4.3782,-4.3076,-4.3132,-4.3745,-4.2131,-4.1841,-4.2375,-4.0523,-3.8817,-3.7364,-3.7327,-3.685,-3.6127,-3.5754,-3.5577,-3.5451,0.0,0.0,0.0,0.0,0.0,0.0,0.0,0.0,0.0,0.0,0.0,0.0,0.0,-4.1337,-4.2945,-4.4776,-4.4996,-4.5038,-4.504,0.0,0.0,0.0,0.0,0.0,0.0,0.0,-4.6178,-4.8162,-4.872,-4.9602,-5.0795,-5.2188,-5.3363,-5.4371,-5.5103,-5.4905,-5.3807,-5.0583,-4.823,-4.6513,-4.4776,-4.3216,0.0,0.0,0.0,0.0,0.0,0.0,0.0,0.0,0.0,0.0,0.0,0.0,0.0,0.0,0.0,0.0,0.0,0.0,0.0,0.0,0.0,0.0,0.0,0.0,0.0,0.0,0.0,0.0,0.0,0.0,0.0,0.0,0.0,0.0,0.0,0.0,0.0,-4.0376,-4.1925,0.0,0.0,-4.1681,-4.195,-4.247,-4.2297,-4.2777,-4.4162,-4.3701,-4.3816,-4.469,-4.4998,-4.515,-4.5201,-4.4919,-4.4814,-4.4867,-4.4285,-4.4005,-4.3986,-4.3708,-4.3726,-4.3968,-4.338,-4.324,-4.3415,-4.273,-4.1141,-3.9056,-3.8499,-3.8102,-3.783,-3.7668,-3.7166,-3.6474,0.0,0.0,0.0,0.0,0.0,0.0,0.0,0.0,0.0,0.0,0.0,-3.8845,-4.0582,-4.2228,-4.3953,-4.5825,-4.5898,-4.573,-4.5517,0.0,0.0,0.0,-4.2304,0.0,0.0,-4.6145,-4.7536,-4.9939,-5.0741,-5.1759,-5.298,-5.432,-5.5483,-5.6462,-5.7216,-5.7314,-5.6737,-5.352,-5.0712,-4.8298,-4.6569,-4.4834,-4.3157,0.0,0.0,0.0,0.0,0.0,0.0,0.0,0.0,0.0,0.0,0.0,0.0,0.0,0.0,0.0,0.0,0.0,0.0,0.0,0.0,0.0,0.0,0.0,0.0,0.0,0.0,0.0,0.0,0.0,0.0,0.0,0.0,0.0,0.0,0.0,-4.2198,-4.2999,-4.4564,-4.547,-4.5201,-4.4932,-4.5009,-4.5547,-4.5086,-4.5393,-4.6806,-4.6067,-4.5855,-4.6432,-4.6182,-4.608,-4.6175,-4.5251,-4.4997,-4.537,-4.4442,-4.4005,-4.4005,-4.4005,-4.4005,-4.4005,-4.4005,-4.3974,-4.3929,-4.3867,-4.2841,-4.1209,-4.0294,-3.9753,-3.9515,-3.9515,-3.8857,-3.7831,0.0,0.0,0.0,0.0,0.0,0.0,0.0,0.0,0.0,0.0,-3.8552,-3.9831,-4.1349,-4.4417,-4.6087,-4.5357,-4.6352,-4.6397,-4.4856,-4.2489,0.0,0.0,0.0,0.0,-4.5702,-4.6604,-4.8583,-5.1692,-5.2518,-5.3798,-5.5498,-5.6301,-5.7122,-5.7957,-5.8174,-5.8334,-5.8352,-5.6885,-5.395,-5.014,-4.8376,-4.663,-4.4893,0.0,0.0,0.0,0.0,0.0,0.0,0.0,0.0,0.0,0.0,0.0,0.0,0.0,0.0,0.0,0.0,0.0,0.0,0.0,0.0,0.0,0.0,0.0,0.0,0.0,0.0,0.0,0.0,0.0,0.0,0.0,0.0,0.0,-3.9667,-4.2433,-4.4212,-4.3423,-4.6257,-4.7952,-4.7173,-4.7798,-4.8259,-4.8221,-4.8221,-4.8586,-4.9394,-4.8644,-4.8182,-4.8144,-4.7394,-4.7346,-4.8077,-4.594,-4.5691,-4.7271,-4.5084,-4.4042,-4.4042,-4.4005,-4.4005,-4.4005,-4.4005,-4.4005,-4.3989,-4.3929,-4.3897,-4.3791,-4.2752,-4.1864,-4.1185,-4.1148,-4.0618,-3.9585,0.0,0.0,0.0,0.0,0.0,0.0,0.0,0.0,0.0,0.0,-3.7841,-3.8989,-4.1585,-4.2989,-4.4707,-4.7089,-4.6329,-4.5929,-4.6415,0.0,0.0,0.0,0.0,0.0,-4.7047,-4.9299,-5.1583,-5.3917,-5.5012,-5.611,-5.7237,-5.8039,-5.8536,-5.8803,-5.9599,-5.9703,-5.9215,-5.8362,-5.6692,-5.4285,-5.0813,-4.8379,-4.6565,0.0,0.0,0.0,0.0,0.0,0.0,0.0,0.0,0.0,0.0,0.0,0.0,0.0,0.0,0.0,0.0,0.0,0.0,0.0,0.0,0.0,0.0,0.0,0.0,0.0,0.0,0.0,0.0,0.0,0.0,0.0,0.0,-4.3946,-4.3131,-4.537,-4.747,-4.8489,-5.05,-5.1722,-5.1491,-5.1664,-5.1548,-5.0904,-5.0865,-5.0721,-5.0366,-5.0106,-4.9702,-4.9067,-4.8836,-4.8414,-4.7829,-4.7008,-4.6743,-4.6991,-4.5599,-4.4934,-4.4915,-4.4283,-4.4005,-4.4005,-4.4005,-4.4005,-4.3989,-4.3929,-4.3897,-4.3862,-4.3529,-4.319,-4.2848,-4.2276,-4.1324,-4.0233,0.0,0.0,0.0,0.0,0.0,0.0,0.0,0.0,0.0,0.0,-3.8005,-3.8996,-4.1705,-4.2742,-4.4145,-4.6409,-4.5747,-4.5467,-4.6067,0.0,0.0,0.0,0.0,-4.6762,-4.861,-5.09,-5.3163,-5.5337,-5.6725,-5.7934,-5.8956,-5.9434,-5.9816,-6.016,-6.0411,-6.0327,-5.9975,-5.934,-5.8382,-5.7003,-5.3925,-5.1245,-4.8817,-4.626,-4.4768,-4.3879,-4.263,-4.2513,-4.2799,-4.1805,0.0,0.0,0.0,0.0,0.0,0.0,0.0,0.0,0.0,0.0,0.0,0.0,0.0,0.0,0.0,0.0,0.0,0.0,0.0,0.0,0.0,0.0,0.0,0.0,-4.5477,-4.6864,-4.7459,-4.8788,-5.0202,-5.1587,-5.2933,-5.3876,-5.4203,-5.3933,-5.353,-5.3029,-5.2654,-5.2087,-5.1241,-5.0875,-5.0308,-4.9433,-4.9394,-4.9086,-4.8417,-4.8159,-4.7884,-4.7608,-4.6514,-4.5727,-4.5268,-4.4785,-4.4358,0.0,-4.4005,-4.4005,-4.4005,-4.3961,-4.3945,0.0,0.0,0.0,0.0,0.0,-4.1396,-4.0629,0.0,0.0,0.0,0.0,0.0,0.0,0.0,0.0,0.0,0.0,0.0,-3.9393,-4.1757,-4.2958,-4.3827,-4.4395,-4.4723,-4.476,0.0,0.0,0.0,-4.3772,-4.5406,-4.7518,-5.0118,-5.1974,-5.3992,-5.6178,-5.7842,-5.9243,-6.0403,-6.0499,-6.0867,-6.144,-6.0809,-6.055,-6.0563,-5.9879,-5.9263,-5.8604,-5.7029,-5.4417,-5.1187,-4.8733,-4.7175,-4.6085,-4.4445,-4.3839,-4.3667,-4.2591,0.0,0.0,0.0,0.0,0.0,0.0,0.0,0.0,0.0,0.0,0.0,0.0,0.0,0.0,0.0,0.0,0.0,0.0,0.0,0.0,0.0,0.0,0.0,0.0,-4.7951,-4.9529,-5.1981,-5.2327,-5.2577,-5.328,-5.4107,-5.4914,-5.5626,-5.5049,-5.4607,-5.4511,-5.378,-5.301,-5.2231,0.0,0.0,0.0,0.0,-4.9712,-4.949,-4.9258,-4.8955,-4.8566,-4.7476,-4.6383,-4.5332,-4.5239,-4.4761,-4.4005,-4.4005,-4.4005,-4.4005,-4.4005,-4.4005,-4.3958,-4.3732,-4.3522,-4.3192,-4.1769,-4.1185,-4.0859,0.0,0.0,0.0,0.0,0.0,0.0,0.0,0.0,0.0,-3.8673,-3.8191,-3.8824,-4.1705,-4.1503,-4.1947,-4.386,-4.303,-4.2505,0.0,0.0,-4.4764,-4.5406,-4.7664,-4.9447,-5.0628,-5.3825,-5.5865,-5.6668,-5.8616,-5.9832,-6.0422,-6.1058,-6.1096,-6.0637,-6.1153,-6.1086,-6.0563,-5.9768,-5.9509,-5.9506,-5.7784,-5.5197,-5.2146,-5.0306,-4.823,-4.6163,-4.5129,-4.4675,-4.4446,-4.3471,-4.3433,-4.3615,-4.2676,0.0,0.0,0.0,0.0,0.0,0.0,0.0,0.0,0.0,0.0,0.0,0.0,0.0,0.0,0.0,0.0,0.0,0.0,0.0,0.0,-4.7527,-5.0298,-5.2856,-5.4703,-5.4972,-5.478,-5.4318,-5.4972,-5.553,-5.5684,-5.5549,-5.5203,-5.4549,-5.4337,-5.4164,-5.401,-5.3857,0.0,-5.2491,-5.2472,-5.1698,-5.0065,-5.0,-4.9484,-4.852,0.0,0.0,-4.5536,-4.488,-4.4375,-4.4005,-4.4005,-4.4005,-4.4005,-4.4005,-4.3958,-4.3913,-4.3865,-4.3037,-4.193,-4.2083,-4.1724,-4.1119,0.0,0.0,0.0,0.0,0.0,0.0,0.0,0.0,0.0,0.0,-3.8157,-3.8612,-4.0112,-4.0174,-4.0512,-4.1521,-4.1663,0.0,0.0,-4.407,-4.5663,-4.6471,-4.8875,-5.0582,-5.1371,-5.4356,-5.611,-5.65,-5.8497,-6.0125,-6.1351,-6.152,-6.1841,-6.2314,-6.2261,-6.2051,-6.1701,-6.0962,-6.0492,-6.01,-5.8491,-5.6408,-5.4045,-5.2052,-4.9721,-4.7376,-4.6479,-4.5815,-4.52,-4.4278,-4.4486,-4.4909,-4.3527,-4.2777,-4.2151,0.0,0.0,0.0,0.0,0.0,0.0,0.0,0.0,0.0,0.0,0.0,0.0,0.0,0.0,-4.3758,0.0,0.0,-4.8479,-5.1414,-5.3337,-5.4895,-5.6175,-5.6349,-5.6214,-5.5799,-5.5722,-5.5703,-5.5703,-5.5703,-5.553,-5.5126,-5.5107,-5.4914,-5.4511,-5.4491,-5.3895,-5.2577,-5.2972,-5.2305,-5.0462,-5.0442,-5.0073,-4.9334,-4.8078,-4.7125,-4.6428,-4.5566,-4.4915,-4.4402,-4.4402,-4.4318,-4.4177,-4.4048,-4.3974,-4.3961,-4.3961,-4.3431,-4.2596,-4.2055,-4.1599,-4.1177,0.0,0.0,0.0,0.0,0.0,0.0,0.0,0.0,0.0,0.0,-3.8166,-3.8466,-3.8622,-3.9031,-3.9158,0.0,0.0,0.0,0.0,-4.4492,-4.6562,-4.7516,-4.9793,-5.1408,-5.2215,-5.4436,-5.5794,-5.621,-5.8222,-6.0186,-6.2041,-6.1904,-6.2605,-6.3923,-6.3388,-6.3064,-6.2853,-6.2136,-6.1461,-6.0711,-5.902,-5.7448,-5.5887,-5.3566,-5.1093,-4.8755,-4.7665,-4.6469,-4.5293,-4.4705,-4.4858,-4.5085,-4.3943,-4.3912,-4.3874,-4.1651,-4.09,0.0,0.0,0.0,0.0,0.0,0.0,0.0,0.0,0.0,-4.3912,-4.6133,-4.6278,-4.7086,-5.0548,-5.0875,-5.1779,-5.5357,-5.6088,-5.6453,-5.7157,-5.7118,-5.6945,-5.6772,-5.6126,-5.5703,-5.5703,-5.5703,-5.5703,-5.5703,-5.5703,-5.5415,-5.4761,-5.4722,-5.403,-5.2442,-5.2933,-5.2472,-5.0952,-5.0789,-5.0488,-5.0026,-4.8504,-4.756,-4.7112,-4.6246,-4.545,-4.4788,-4.4788,-4.465,-4.4369,-4.4181,-4.4048,-4.4005,-4.4005,-4.3945,-4.365,-4.2118,-4.1564,-4.1456,0.0,0.0,0.0,0.0,0.0,0.0,0.0,0.0,0.0,0.0,0.0,0.0,0.0,0.0,0.0,0.0,0.0,0.0,-4.1687,-4.5004,-4.7626,-4.9169,-5.0912,-5.2234,-5.3059,-5.473,-5.5794,-5.621,-5.8222,-5.9867,-6.1172,-6.2247,-6.2873,-6.3083,-6.3751,-6.3618,-6.2853,-6.2003,-6.1688,-6.1549,-5.9103,-5.7655,-5.6701,-5.4235,-5.1748,-4.9386,-4.7789,-4.5617,-4.3608,-4.4266,-4.4013,-4.3629,-4.4902,-4.4855,-4.4105,-4.3104,0.0,-4.1623,-4.1423,-4.1442,-4.1739,-4.2585,-4.2874,-4.3739,0.0,0.0,-4.8856,-4.9904,-5.1241,-5.2356,-5.2837,-5.4068,-5.5395,-5.6656,-5.7492,-5.805,-5.8146,-5.7492,-5.6714,-5.5934,-5.5761,-5.5703,-5.5703,-5.5703,-5.5703,-5.5703,-5.5703,-5.5665,-5.5568,-5.5568,-5.5145,-5.4241,-5.3549,-5.2741,-5.1769,-5.1048,-5.0288,-4.9471,-4.851,-4.7548,-4.6555,-4.5685,-4.5106,-4.4788,-4.4788,-4.465,-4.4402,-4.4374,-4.4206,-4.4005,-4.4005,-4.3989,-4.3862,-4.2891,-4.2545,-4.2421,0.0,0.0,0.0,0.0,0.0,0.0,0.0,0.0,0.0,0.0,0.0,0.0,0.0,0.0,0.0,0.0,0.0,0.0,-4.0614,-4.4691,-4.7608,-4.8746,-5.1298,-5.2858,-5.3185,-5.4326,-5.5224,-5.5839,-5.7404,-5.9028,-6.0711,-6.1449,-6.2197,-6.2949,-6.3809,-6.3713,-6.2892,-6.251,-6.2108,-6.1502,-5.9032,-5.7553,-5.6483,-5.3577,-5.0586,-4.7813,-4.6721,-4.4959,0.0,0.0,-4.2591,-4.3124,-4.3335,-4.3816,-4.4047,-4.2739,-4.245,0.0,-4.1942,-4.2508,0.0,0.0,-4.5663,-4.7394,-4.9769,-5.0577,-5.1375,-5.3222,-5.4164,-5.5107,-5.6588,-5.7434,-5.8204,0.0,-5.9511,-5.9415,-5.8434,-5.7107,-5.5742,-5.4395,-5.3376,-5.3356,-5.4857,-5.4991,-5.5203,-5.5665,-5.5703,-5.5703,-5.5703,-5.5703,-5.5318,-5.453,-5.3645,-5.2779,-5.1904,-5.0606,-5.001,-5.0125,-4.8279,-4.7405,-4.7386,-4.6043,-4.5362,-4.5253,-4.5096,-4.4985,-4.4861,-4.4701,-4.4559,-4.4457,-4.4289,-4.4236,-4.4113,-4.3122,-4.2752,-4.2699,0.0,0.0,0.0,0.0,0.0,0.0,0.0,0.0,0.0,0.0,0.0,0.0,0.0,0.0,0.0,0.0,0.0,0.0,0.0,-4.3722,-4.645,-4.759,-5.0582,-5.2325,-5.2546,-5.3977,-5.5023,-5.5614,-5.7024,-5.8621,-6.0339,-6.0554,-6.1416,-6.2773,-6.3263,-6.3121,-6.2529,-6.2299,-6.1707,-6.0714,-5.8494,-5.6939,-5.5575,-5.2315,-4.912,-4.6244,-4.5312,-4.3558,0.0,0.0,-4.0854,-4.1662,-4.1489,-4.2277,-4.3066,-4.2085,-4.2431,-4.3008,-4.2604,0.0,0.0,-4.6672,-4.874,-5.0894,-5.2568,-5.3308,-5.425,-5.6319,-5.6742,-5.7242,-5.8877,-5.9165,0.0,-6.0012,-6.03,-5.9935,-5.8511,-5.6799,-5.4991,-5.3068,-5.1356,-5.1068,-5.2914,-5.351,-5.4126,-5.4953,-5.5222,-5.5376,-5.5376,-5.5568,-5.5434,-5.4857,-5.378,-5.2895,-5.225,-5.0606,-5.0067,-5.0673,-4.8586,-4.7778,-4.8048,-4.6355,-4.5594,-4.5586,-4.5381,-4.5282,-4.5191,-4.4996,-4.4879,-4.4763,-4.4506,-4.4397,-4.4299,-4.3439,-4.3132,-4.3079,0.0,0.0,0.0,0.0,0.0,0.0,0.0,0.0,0.0,0.0,0.0,0.0,0.0,0.0,0.0,0.0,0.0,0.0,0.0,-4.1957,-4.3925,-4.5883,-4.838,-5.0088,-5.0857,-5.394,-5.5596,-5.5614,-5.7579,-5.9037,-5.9915,-5.9865,-6.0717,-6.2302,-6.1861,-6.1669,-6.1593,-6.0809,-5.9969,-5.9033,-5.7332,-5.569,-5.3903,-5.0552,-4.7711,-4.5332,-4.367,0.0,0.0,0.0,-3.8815,-3.843,-4.0035,-4.0573,0.0,-4.1566,-4.2431,-4.3258,0.0,0.0,-4.7432,-4.9923,-5.1837,-5.353,-5.5203,-5.6896,-5.8357,-5.9204,-5.9377,-5.9165,-5.8473,-5.8338,-5.8357,-5.8377,-5.9031,-5.9261,-5.8415,-5.6799,-5.4761,-5.2231,-5.0471,-4.9471,0.0,-5.1029,-5.2327,-5.3222,-5.4068,-5.453,-5.453,-5.528,-5.5684,-5.5665,-5.4068,-5.3203,-5.3164,-5.1491,-5.0673,-5.0693,-4.976,-4.8894,-4.8048,-4.6355,-4.5594,-4.5594,-4.5586,-4.5438,-4.5201,-4.5191,-4.5041,-4.4763,-4.4506,-4.4397,-4.4355,-4.4072,-4.3968,-4.3856,0.0,0.0,0.0,0.0,0.0,0.0,0.0,0.0,0.0,0.0,0.0,0.0,0.0,0.0,0.0,0.0,0.0,0.0,0.0,-4.1052,-4.2996,-4.5021,-4.6929,-4.86,-4.9958,-5.1061,-5.2144,-5.3206,-5.4423,-5.5297,-5.5859,-5.637,-5.6878,-5.743,-5.8388,-5.8611,-5.8249,-5.7982,-5.739,-5.6396,-5.3618,-5.1832,-5.0463,-4.7143,-4.4307,-4.189,0.0,0.0,0.0,0.0,0.0,0.0,-3.7796,0.0,-3.9219,-4.1219,-4.2431,-4.3643,0.0,0.0,-5.0827,-5.3376,-5.5318,-5.703,-5.8704,-5.9531,-5.9723,-5.8877,-5.778,-5.6549,-5.5164,-5.4914,-5.528,-5.6395,-5.7761,-5.8607,-5.8338,-5.6799,-5.4549,-5.1471,-4.9586,0.0,0.0,0.0,0.0,-5.2231,-5.3145,-5.3895,-5.4472,-5.5261,-5.5703,-5.5703,-5.4645,-5.378,-5.3222,-5.2068,-5.1221,-5.0693,-4.9817,-4.8663,-4.7278,-4.6721,-4.6144,-4.5594,-4.5594,-4.5559,-4.5476,-4.5476,-4.541,-4.5312,-4.5041,-4.4825,-4.4624,-4.436,-4.4151,-4.3968,0.0,0.0,0.0,0.0,0.0,0.0,0.0,0.0,0.0,0.0,0.0,0.0,0.0,0.0,0.0,0.0,0.0,0.0,0.0,0.0,-4.1105,-4.2945,-4.456,-4.6067,-4.7426,-4.827,-4.9225,-5.0273,-5.1059,-5.1587,-5.1842,-5.2512,-5.2949,-5.3245,-5.4462,-5.4817,-5.4476,-5.4291,-5.3753,-5.2775,-5.0107,-4.8365,-4.7025,-4.3991,-4.1477,0.0,0.0,0.0,0.0,0.0,0.0,0.0,0.0,-3.793,-3.9738,-4.17,-4.3508,-4.5682,-4.9394,-5.2029,-5.4414,-5.7261,-5.8819,-5.9858,-6.0627,-6.0339,-5.9338,-5.7357,-5.5318,-5.3395,-5.1683,-5.1144,-5.151,-5.3183,-5.4645,-5.5895,-5.6819,-5.5184,-5.3222,-5.1356,-4.9336,0.0,0.0,0.0,0.0,-5.0914,-5.2375,-5.3433,-5.401,-5.5088,-5.5703,-5.5703,-5.4914,-5.4087,-5.3222,-5.2327,-5.151,-5.0693,-4.949,-4.8375,-4.7317,-4.6721,-4.6124,-4.5594,-4.5594,-4.5594,-4.5594,-4.5594,-4.5594,-4.5577,-4.5312,-4.5041,-4.4763,-4.4493,-4.4236,-4.3968,0.0,0.0,0.0,0.0,0.0,0.0,0.0,0.0,0.0,0.0,0.0,0.0,0.0,0.0,0.0,0.0,0.0,0.0,0.0,0.0,0.0,-3.9939,-4.1464,-4.2662,-4.3525,-4.5718,-4.6912,-4.7022,-4.7756,-4.8104,-4.8049,-4.8491,-4.9091,-4.9812,-5.0234,-5.0409,-5.0342,-4.9792,-4.9105,-4.827,-4.6792,-4.5294,-4.3663,-4.1157,0.0,0.0,0.0,0.0,0.0,0.0,0.0,0.0,0.0,-3.9154,-4.2,-4.3047,-4.5701,-4.924,-5.353,-5.5953,-5.8061,-6.1351,-6.2139,-6.187,-6.0935,-5.9396,-5.7415,-5.478,-5.2183,-4.9817,0.0,0.0,-4.7278,-4.9048,-5.0164,-5.1731,-5.4337,-5.2568,-5.126,0.0,0.0,0.0,0.0,0.0,0.0,-4.9452,0.0,-5.3164,-5.326,-5.4818,-5.5703,-5.5703,-5.4914,-5.4087,-5.3222,-5.2288,-5.1471,-5.0673,-4.9029,-4.8202,-4.8048,-4.6451,-4.5691,-4.5594,-4.5594,-4.5594,-4.5594,-4.5594,-4.5594,-4.5577,-4.5322,-4.5063,-4.4788,-4.4519,-4.425,-4.3909,0.0,0.0,0.0,0.0,0.0,0.0,0.0,0.0,0.0,0.0,0.0,0.0,0.0,0.0,0.0,0.0,0.0,0.0,0.0,0.0,0.0,0.0,0.0,0.0,0.0,0.0,0.0,0.0,-4.5311,-4.5368,-4.4727,-4.544,-4.5702,-4.5592,-4.6352,-4.6487,-4.6113,-4.5368,-4.4706,-4.3972,0.0,-4.0625,-4.0213,0.0,0.0,0.0,0.0,0.0,0.0,0.0,0.0,0.0,0.0,-4.0585,-4.2462,-4.5836,-4.8769,-5.1865,-5.6165,-5.9031,-6.1158,-6.2627,-6.2531,-6.1697,-6.0185,-5.803,-5.528,-5.1471,-4.8163,-4.522,0.0,0.0,0.0,-4.7971,-5.076,0.0,-5.6876,-5.6203,0.0,0.0,0.0,-5.1414,-5.0164,-5.0029,0.0,0.0,-5.1865,-5.2799,-5.4107,-5.5145,-5.5703,-5.5703,-5.4914,-5.4087,-5.3222,-5.1741,-5.0894,-5.0693,-5.025,-4.9356,-4.8086,-4.7663,-4.6778,-4.5594,-4.5594,-4.5594,-4.5594,-4.5594,-4.5594,-4.5586,-4.5522,-4.5332,-4.5063,-4.48,-4.4519,-4.4242,0.0,0.0,0.0,0.0,0.0,0.0,0.0,0.0,0.0,0.0,0.0,0.0,0.0,0.0,0.0,0.0,0.0,0.0,0.0,0.0,0.0,0.0,0.0,0.0,0.0,0.0,0.0,0.0,0.0,0.0,-4.1452,-4.2263,-4.2288,-4.1702,-4.2551,-4.2608,-4.2011,-4.1327,0.0,0.0,0.0,0.0,0.0,0.0,0.0,0.0,0.0,0.0,0.0,0.0,0.0,-4.0662,-4.2247,-4.4105,-4.6451,-5.0317,0.0,-5.5558,-5.9454,-6.182,-6.3301,-6.3762,-6.2685,-6.0889,-5.8396,-5.528,-5.1741,-4.7509,-4.422,0.0,0.0,0.0,0.0,0.0,0.0,0.0,-5.5,-5.5068,-5.4703,0.0,-5.3722,0.0,-5.1895,-5.1798,-5.2145,0.0,-5.2692,-5.3068,-5.4434,-5.4934,-5.5164,-5.5164,-5.4357,-5.351,-5.2635,-5.1356,-5.0712,-5.0712,-5.0308,-4.9413,-4.8086,-4.774,-4.6855,-4.5594,0.0,-4.5594,-4.5594,-4.5594,-4.5594,-4.5594,-4.5594,-4.5429,-4.5191,-4.503,-4.48,-4.4533,0.0,0.0,0.0,0.0,0.0,0.0,0.0,0.0,0.0,0.0,0.0,0.0,0.0,0.0,0.0,0.0,0.0,0.0,0.0,0.0,0.0,0.0,0.0,0.0,0.0,0.0,0.0,0.0,0.0,0.0,0.0,0.0,0.0,0.0,0.0,0.0,0.0,0.0,0.0,0.0,0.0,0.0,0.0,0.0,0.0,0.0,0.0,0.0,0.0,0.0,-4.2173,-4.3085,-4.5624,-4.8634,-5.1866,-5.5222,-5.7357,-5.9338,-6.2589,-6.4032,-6.4609,-6.4609,-6.2512,-5.9569,-5.6145,-5.201,-4.7702,-4.347,0.0,-3.8681,-3.7834,0.0,-4.0027,-4.2816,0.0,-4.8067,-5.1865,-5.2212,-5.275,-5.4607,-5.4068,-5.353,-5.353,-5.3433,-5.3683,-5.4434,-5.3683,-5.3587,-5.4453,-5.4395,-5.426,-5.4164,-5.3414,-5.2606,-5.175,-5.1048,-5.0712,-5.0693,-4.9933,-4.9125,-4.8259,-4.7548,-4.6701,-4.5768,0.0,0.0,-4.5594,-4.5594,-4.5594,-4.5594,-4.5594,-4.5467,-4.5243,-4.5211,-4.503,-4.4763,0.0,0.0,0.0,0.0,0.0,0.0,0.0,0.0,0.0,0.0,0.0,0.0,0.0,0.0,0.0,0.0,0.0,0.0,0.0,0.0,0.0,0.0,0.0,0.0,0.0,0.0,0.0,0.0,0.0,0.0,0.0,0.0,0.0,0.0,0.0,0.0,0.0,0.0,0.0,0.0,0.0,0.0,0.0,0.0,0.0,0.0,0.0,0.0,0.0,0.0,-4.4115,-4.7451,-5.0,-5.2202,-5.4491,-5.7857,-5.9569,-6.0954,-6.3647,-6.4474,-6.4609,-6.4609,-6.1647,-5.7838,-5.4414,-4.9798,0.0,0.0,0.0,-3.6904,-3.6077,-3.7199,0.0,-4.3451,0.0,0.0,0.0,0.0,-5.3876,0.0,0.0,0.0,0.0,0.0,0.0,0.0,0.0,0.0,-5.4453,-5.3818,-5.3106,-5.2365,-5.2192,-5.1741,-5.0914,-5.077,-5.0712,-5.0712,-5.0558,-5.001,-4.9163,-4.9029,-4.8125,-4.6682,-4.6682,0.0,-4.5594,-4.5594,-4.5594,-4.5594,-4.5594,-4.5568,-4.5504,-4.5273,-4.503,-4.4763,0.0,0.0,0.0,0.0,0.0,0.0,0.0,0.0,0.0,0.0,-2.8298,-2.8702,0.0,0.0,0.0,0.0,0.0,0.0,0.0,0.0,0.0,0.0,0.0,0.0,0.0,0.0,0.0,0.0,0.0,0.0,0.0,0.0,0.0,0.0,0.0,0.0,0.0,0.0,0.0,0.0,0.0,0.0,0.0,0.0,0.0,0.0,0.0,0.0,0.0,0.0,-4.3643,-4.7394,-5.0808,-5.3703,-5.628,-5.8761,-6.0435,-6.1916,-6.4032,-6.4936,-6.4955,-6.3628,-6.0108,-5.5818,-5.1568,0.0,0.0,0.0,0.0,-3.5951,-3.5565,0.0,0.0,0.0,0.0,0.0,0.0,0.0,0.0,0.0,0.0,0.0,0.0,0.0,0.0,0.0,0.0,0.0,-5.3837,-5.301,-5.2145,-5.1298,-5.1279,-5.1087,-5.0712,-5.0712,-5.0712,-5.0712,-5.0712,-5.025,-4.9375,-4.8933,-4.8067,-4.6865,-4.6413,0.0,-4.5594,-4.5594,-4.5594,-4.5594,-4.5594,-4.5594,-4.5586,-4.5467,-4.5332,-4.5169,0.0,0.0,0.0,0.0,0.0,0.0,0.0,-2.7701,-2.7982,-2.8789,-2.8193,-2.7771,-2.7929,-2.8368,0.0,0.0,0.0,0.0,0.0,0.0,0.0,0.0,0.0,0.0,0.0,0.0,0.0,0.0,0.0,0.0,0.0,0.0,0.0,0.0,0.0,0.0,0.0,0.0,0.0,0.0,0.0,0.0,0.0,0.0,0.0,0.0,0.0,0.0,0.0,0.0,-4.2151,-4.5152,-4.8846,-5.2847,-5.6472,-5.7992,-6.0031,-6.2159,-6.3666,-6.4686,-6.4782,-6.2397,-5.8319,-5.3655,-4.8989,-4.3981,0.0,0.0,-3.5984,-3.5496,-3.5501,0.0,0.0,0.0,0.0,0.0,0.0,0.0,0.0,0.0,0.0,0.0,0.0,0.0,0.0,0.0,0.0,0.0,-5.2972,-5.2269,-5.1529,-5.0731,-5.0712,-5.0712,-5.0712,-5.0519,-5.0423,-5.0423,-5.0231,-4.9779,-4.9106,-4.8413,-4.7663,-4.6846,-4.6182,0.0,0.0,-4.5594,-4.5594,-4.5594,-4.5594,-4.5594,-4.5594,-4.5594,-4.5568,-4.5438,0.0,0.0,0.0,0.0,0.0,0.0,0.0,-2.7701,-2.7982,-2.8789,-2.8193,-2.7982,-2.8719,-2.8193,0.0,0.0,0.0,0.0,0.0,0.0,0.0,0.0,0.0,0.0,0.0,0.0,0.0,0.0,0.0,0.0,0.0,0.0,0.0,0.0,0.0,0.0,0.0,0.0,0.0,0.0,0.0,0.0,0.0,0.0,0.0,0.0,0.0,0.0,0.0,0.0,0.0,-4.1304,-4.3299,-4.8345,-5.3741,-5.4684,0.0,0.0,-6.2082,-6.2916,-6.3128,-6.1358,-5.6549,-5.1327,-4.7817,0.0,0.0,-3.6145,-3.5567,-3.5509,-3.5502,-3.5623,0.0,0.0,0.0,0.0,0.0,0.0,0.0,0.0,0.0,0.0,0.0,0.0,0.0,0.0,0.0,0.0,0.0,-5.1942,-5.1529,-5.0731,-5.0712,-5.0712,-5.0712,-4.9913,-4.951,-4.951,-4.8721,-4.8298,-4.8221,-4.8144,-4.7663,-4.6904,-4.6817,0.0,0.0,-4.5594,-4.5594,-4.5594,-4.5594,-4.5594,-4.5594,-4.5594,-4.5438,-4.5201,0.0,0.0,0.0,0.0,0.0,0.0,0.0,-2.7701,-2.7982,-2.8789,-2.8193,-2.7999,-2.8807,-2.8175,-2.7824,0.0,0.0,0.0,0.0,0.0,0.0,0.0,0.0,0.0,0.0,0.0,0.0,0.0,0.0,0.0,0.0,0.0,0.0,0.0,0.0,0.0,0.0,0.0,0.0,0.0,0.0,0.0,0.0,0.0,0.0,0.0,0.0,0.0,0.0,0.0,0.0,0.0,-3.8521,-4.1821,0.0,0.0,-5.408,-5.7525,-5.9888,-6.1531,-6.205,-5.9838,-5.5203,-5.0154,-4.6285,0.0,0.0,-3.5913,-3.5509,-3.5502,-3.5495,-3.5494,-3.5827,0.0,0.0,0.0,0.0,0.0,0.0,0.0,0.0,0.0,0.0,0.0,0.0,0.0,0.0,0.0,0.0,-5.1433,-5.1029,-5.0712,-5.0712,-5.0462,-4.9913,-4.9567,-4.9144,-4.8606,-4.8279,-4.8105,-4.8086,-4.7605,-4.7192,-4.6865,-4.6355,0.0,0.0,-4.5594,-4.5594,-4.5594,-4.5594,-4.5594,-4.5594,-4.5594,-4.5522,-4.541,0.0,0.0,0.0,0.0,0.0,0.0,-2.7701,-2.7701,-2.7982,-2.8789,-2.8193,-2.7999,-2.8807,-2.8175,-2.7701,-2.7701,0.0,0.0,0.0,0.0,0.0,0.0,0.0,0.0,0.0,0.0,0.0,0.0,0.0,0.0,0.0,0.0,0.0,0.0,0.0,0.0,0.0,0.0,0.0,0.0,0.0,0.0,0.0,0.0,0.0,0.0,0.0,0.0,0.0,0.0,0.0,0.0,0.0,0.0,0.0,0.0,-4.9748,-5.3561,-5.6186,-5.8523,-5.9646,-5.7357,-5.3155,-4.8595,0.0,0.0,-3.7263,-3.583,-3.5534,-3.5522,-3.5489,-3.5501,-3.5494,0.0,0.0,0.0,0.0,0.0,0.0,0.0,0.0,0.0,0.0,0.0,0.0,0.0,0.0,0.0,0.0,-5.1144,-5.0712,-5.0712,-5.0462,-5.001,-4.9413,-4.8913,-4.8355,-4.774,-4.749,-4.7355,-4.7336,-4.6778,-4.6528,-4.649,0.0,0.0,0.0,-4.5594,-4.5594,-4.5594,-4.5594,-4.5594,-4.5594,-4.5594,-4.5594,-4.5568,0.0,0.0,0.0,0.0,0.0,0.0,0.0,-2.7701,-2.7982,-2.8789,-2.8193,-2.7999,-2.8807,-2.8175,-2.7701,-2.7701,0.0,0.0,0.0,0.0,0.0,0.0,0.0,0.0,0.0,0.0,0.0,-3.6705,-3.6705,0.0,0.0,0.0,0.0,0.0,0.0,0.0,0.0,0.0,0.0,0.0,0.0,0.0,0.0,0.0,0.0,0.0,0.0,0.0,0.0,0.0,0.0,0.0,0.0,0.0,0.0,0.0,-4.4861,-4.9662,-5.0548,-5.3233,-5.5357,-5.3664,-5.0067,-4.6264,0.0,0.0,-3.6657,-3.5777,-3.5602,-3.5583,-3.5502,-3.5509,-3.5496,-3.5507,-3.6173,0.0,0.0,0.0,0.0,0.0,0.0,0.0,0.0,0.0,0.0,0.0,0.0,0.0,0.0,-5.1144,-5.0712,-5.0712,-4.9856,-4.9413,-4.9394,-4.7759,-4.6923,-4.6904,-4.6028,-4.5633,-4.5633,-4.5614,-4.5614,0.0,0.0,0.0,0.0,-4.5594,-4.5594,-4.5594,-4.5594,-4.5594,-4.5594,-4.5594,-4.5594,-4.5568,0.0,0.0,0.0,0.0,0.0,0.0,0.0,-2.7701,-2.7789,-2.8052,-2.7859,-2.7789,-2.8052,-2.7841,-2.7701,-2.7701,0.0,0.0,0.0,0.0,0.0,0.0,0.0,0.0,0.0,0.0,-3.4992,-3.5882,-3.6439,-3.6699,-3.6686,0.0,0.0,0.0,0.0,0.0,0.0,0.0,0.0,0.0,0.0,0.0,0.0,0.0,0.0,0.0,0.0,0.0,0.0,0.0,0.0,0.0,0.0,0.0,0.0,-3.6926,0.0,0.0,-4.672,-4.8495,-4.9468,-4.8351,-4.5723,-4.2903,-4.0946,-3.8598,-3.6569,-3.5721,-3.5534,-3.5534,-3.5496,-3.5502,-3.5674,-3.6238,-3.6519,0.0,0.0,0.0,0.0,0.0,0.0,0.0,0.0,0.0,0.0,0.0,0.0,0.0,0.0,-4.9394,-4.9202,-4.9779,-4.9529,-4.8856,-4.7702,-4.7182,-4.6605,-4.6009,-4.6336,-4.6182,-4.5614,-4.622,0.0,0.0,0.0,0.0,0.0,-4.5594,-4.5594,-4.5594,-4.5594,-4.5594,-4.5594,-4.5594,-4.5594,-4.5586,0.0,0.0,0.0,0.0,0.0,0.0,0.0,-2.7701,-2.7701,-2.7701,-2.7701,-2.7701,-2.7701,-2.7701,-2.7701,-2.7701,0.0,0.0,0.0,0.0,0.0,0.0,0.0,0.0,0.0,-3.2308,-3.3303,-3.4562,-3.5064,-3.5473,-3.5751,-3.5237,-3.5008,0.0,0.0,0.0,0.0,0.0,0.0,0.0,0.0,0.0,-3.3087,0.0,0.0,0.0,0.0,0.0,0.0,0.0,0.0,0.0,0.0,0.0,0.0,0.0,-3.7524,0.0,0.0,-4.4187,-4.4951,-4.4403,-4.2572,0.0,0.0,-3.7559,-3.619,-3.5644,-3.5547,-3.5541,-3.5509,-3.5495,-3.5655,-3.618,-3.625,0.0,0.0,0.0,0.0,0.0,0.0,0.0,0.0,0.0,0.0,0.0,0.0,0.0,0.0,0.0,-4.8221,-4.8452,-4.8452,-4.7971,-4.6904,-4.6567,-4.6144,-4.5614,-4.6144,-4.6124,-4.5614,-4.6163,0.0,0.0,0.0,0.0,0.0,-4.5594,-4.5594,-4.5594,-4.5594,-4.5594,-4.5594,-4.5594,-4.5594,-4.5594,0.0,0.0,0.0,0.0,0.0,0.0,0.0,0.0,0.0,0.0,-2.7701,-2.7701,-2.7701,-2.7701,-2.7701,0.0,0.0,0.0,0.0,0.0,0.0,0.0,0.0,0.0,0.0,-3.0463,-3.149,-3.2834,-3.2946,-3.338,-3.4123,-3.416,-3.416,-3.4104,-3.4048,0.0,0.0,0.0,0.0,0.0,0.0,0.0,0.0,0.0,0.0,0.0,0.0,0.0,0.0,0.0,0.0,0.0,0.0,0.0,0.0,0.0,0.0,0.0,0.0,0.0,0.0,0.0,0.0,0.0,0.0,-3.6715,0.0,-3.5604,-3.5598,-3.5579,-3.552,-3.5502,-3.5509,-3.5591,-3.5635,0.0,0.0,0.0,0.0,0.0,0.0,0.0,0.0,0.0,0.0,0.0,0.0,0.0,0.0,0.0,-4.7586,-4.6836,-4.6817,-4.6817,-4.6817,-4.599,-4.5594,-4.5594,-4.5671,-4.5671,-4.5594,-4.5671,0.0,0.0,0.0,0.0,0.0,-4.5671,-4.5671,-4.5594,-4.5594,-4.5594,-4.5594,-4.5594,-4.5594,-4.5594,0.0,0.0,0.0,0.0,0.0,0.0,0.0,0.0,0.0,0.0,0.0,-2.7701,-2.7701,-2.7701,0.0,0.0,0.0,0.0,0.0,0.0,0.0,0.0,0.0,0.0,0.0,-2.9837,-3.0624,-3.1162,-3.2407,-3.3113,-3.3287,-3.39,-3.3863,-3.325,-3.2648,-3.1682,0.0,0.0,0.0,0.0,0.0,0.0,0.0,0.0,0.0,0.0,-3.2617,-3.3294,0.0,0.0,0.0,0.0,0.0,0.0,0.0,0.0,-3.5704,-3.5839,-3.6408,0.0,-3.717,-3.717,-3.6829,-3.6451,0.0,-3.5871,-3.5595,-3.5604,0.0,0.0,-3.5573,-3.5528,-3.5713,0.0,0.0,0.0,0.0,0.0,0.0,0.0,0.0,0.0,0.0,0.0,0.0,0.0,0.0,0.0,0.0,0.0,-4.6105,-4.5913,-4.5913,-4.5913,-4.5913,-4.571,-4.5594,-4.5614,-4.6278,-4.624,-4.5614,-4.6297,0.0,0.0,0.0,0.0,-4.5652,-4.6317,-4.6201,-4.5594,-4.5594,-4.5594,-4.5594,-4.5594,-4.5594,-4.5594,0.0,0.0,0.0,0.0,0.0,0.0,0.0,0.0,0.0,0.0,0.0,0.0,0.0,0.0,0.0,0.0,0.0,0.0,0.0,0.0,0.0,0.0,0.0,0.0,-2.8485,-2.9259,-2.9964,-3.0604,-3.1849,-3.2648,-3.3008,-3.3807,-3.3956,-3.3522,-3.2704,-3.1868,0.0,0.0,0.0,0.0,0.0,0.0,0.0,0.0,0.0,0.0,-3.2532,-3.3305,0.0,-3.5204,-3.5673,-3.5704,0.0,0.0,0.0,0.0,-3.5704,-3.5704,-3.5704,-3.5704,-3.5704,-3.5704,-3.5673,-3.5643,-3.5643,0.0,0.0,0.0,0.0,0.0,0.0,0.0,0.0,0.0,0.0,0.0,0.0,0.0,0.0,0.0,0.0,0.0,0.0,0.0,0.0,0.0,0.0,0.0,0.0,0.0,-4.5594,-4.5594,-4.5594,-4.5594,-4.5594,-4.5594,-4.5594,-4.5614,-4.6086,-4.6067,-4.5614,-4.6086,-4.6259,0.0,0.0,0.0,-4.6201,-4.6278,-4.6028,-4.5594,-4.5594,-4.5594,-4.5594,-4.5594,-4.5594,-4.5594,0.0,0.0,0.0,0.0,0.0,0.0,0.0,0.0,0.0,0.0,0.0,0.0,0.0,0.0,0.0,0.0,0.0,0.0,0.0,0.0,0.0,0.0,0.0,-2.8272,-2.8504,-2.8874,-2.9499,-3.0418,-3.1348,-3.2147,-3.2853,-3.377,-3.4067,-3.3788,-3.299,-3.2574,0.0,0.0,0.0,0.0,-3.0383,0.0,0.0,0.0,0.0,0.0,0.0,0.0,0.0,-3.5206,-3.5588,-3.5704,-3.5704,0.0,0.0,0.0,0.0,0.0,-3.5704,-3.5704,-3.5704,-3.5704,-3.5704,-3.5704,-3.5704,0.0,0.0,0.0,0.0,0.0,0.0,0.0,0.0,0.0,0.0,0.0,0.0,0.0,0.0,0.0,0.0,0.0,0.0,0.0,0.0,0.0,0.0,0.0,0.0,-4.5594,-4.5594,-4.5594,-4.5594,-4.5594,-4.5594,-4.5594,-4.5594,-4.5594,-4.5594,-4.5594,-4.5594,-4.5594,-4.599,0.0,0.0,0.0,-4.6644,-4.6047,-4.5729,-4.5594,-4.5594,-4.5594,-4.5594,-4.5594,-4.5594,-4.5594,0.0,0.0,0.0,0.0,0.0,0.0,0.0,0.0,0.0,0.0,0.0,0.0,0.0,0.0,0.0,0.0,0.0,0.0,0.0,0.0,0.0,0.0,-2.8166,-2.8466,-2.8504,-2.9052,-2.9421,-2.9582,-3.1069,-3.1868,-3.2017,-3.3491,-3.3473,-3.2128,-3.1329,-3.0586,-2.9946,-2.9698,-3.0073,-3.0825,-3.0223,0.0,0.0,0.0,0.0,0.0,0.0,0.0,0.0,-3.4311,-3.509,-3.5704,-3.5704,0.0,0.0,0.0,0.0,0.0,-3.5704,-3.5704,-3.5704,-3.5704,-3.5704,-3.5704,-3.5704,0.0,0.0,0.0,0.0,0.0,0.0,0.0,0.0,0.0,0.0,0.0,0.0,0.0,0.0,0.0,0.0,0.0,0.0,0.0,0.0,0.0,0.0,0.0,0.0,0.0,-4.5594,-4.5594,-4.5594,-4.5594,-4.5594,-4.5594,-4.5594,-4.5594,-4.5594,-4.5594,-4.5594,-4.5594,-4.5671,0.0,0.0,-4.6355,-4.5845,-4.6451,-4.6278,-4.5594,-4.5594,-4.5594,-4.5594,-4.5594,-4.5594,-4.5594,0.0,0.0,0.0,0.0,0.0,0.0,0.0,0.0,0.0,0.0,0.0,0.0,0.0,0.0,0.0,0.0,0.0,0.0,0.0,0.0,0.0,-2.7701,-2.8206,-2.8504,-2.8504,-2.9086,-2.9601,-3.0047,-3.079,-3.1608,-3.2462,-3.3224,-3.3169,-3.2388,-3.1143,-3.0381,-3.002,-2.9568,-2.9897,-3.0684,0.0,0.0,0.0,0.0,0.0,0.0,0.0,0.0,0.0,0.0,-3.4272,-3.4993,-3.4993,0.0,0.0,0.0,0.0,0.0,-3.5704,-3.5704,-3.5704,-3.5704,-3.5704,-3.5704,-3.5704,0.0,0.0,0.0,0.0,0.0,0.0,0.0,0.0,0.0,0.0,0.0,0.0,0.0,0.0,0.0,0.0,0.0,0.0,0.0,0.0,0.0,0.0,0.0,0.0,0.0,-4.5594,-4.5594,-4.5594,-4.5594,-4.5594,-4.5594,-4.5594,-4.5594,-4.5594,-4.5594,-4.5594,-4.5594,-4.5864,-4.6297,0.0,-4.624,-4.6297,-4.622,-4.5951,-4.5594,-4.5594,-4.5594,-4.5594,-4.5594,-4.5594,-4.5594,0.0,0.0,0.0,0.0,0.0,0.0,0.0,0.0,0.0,0.0,0.0,0.0,0.0,0.0,0.0,0.0,0.0,0.0,0.0,0.0,-2.7701,-2.7701,-2.8139,-2.844,-2.8504,-2.9086,-2.9694,-3.0326,-3.0511,-3.1329,-3.2723,-3.2723,-3.263,-3.2388,-3.1348,-3.0782,-3.057,-2.9971,-3.0215,-3.104,0.0,0.0,0.0,0.0,0.0,0.0,0.0,0.0,0.0,0.0,0.0,0.0,0.0,0.0,0.0,-3.5646,-3.5549,-3.5438,-3.5646,-3.5549,-3.5438,-3.5646,0.0,-3.5737,-3.5877,0.0,0.0,0.0,0.0,0.0,0.0,0.0,0.0,0.0,0.0,0.0,0.0,0.0,0.0,0.0,0.0,0.0,0.0,0.0,0.0,0.0,0.0,0.0,0.0,0.0,-4.521,-4.5017,-4.5017,-4.5017,-4.5017,-4.521,-4.5402,-4.5594,-4.5594,-4.5594,-4.5594,-4.5594,-4.5951,-4.6567,-4.5893,-4.597,-4.6547,-4.5883,-4.5594,-4.5594,-4.5594,-4.5594,-4.5594,-4.5594,-4.5594,-4.5594,0.0,0.0,0.0,0.0,0.0,0.0,0.0,0.0,0.0,0.0,0.0,0.0,0.0,0.0,0.0,0.0,0.0,0.0,0.0,0.0,-2.7701,-2.7701,-2.7982,-2.8246,-2.8485,-2.9086,-2.9444,-2.9489,-3.0233,-3.1032,-3.1886,-3.1886,-3.1496,-3.079,-3.144,-3.1325,-3.07,-3.0619,-3.1157,-3.194,-3.1344,0.0,0.0,0.0,0.0,0.0,0.0,0.0,0.0,0.0,0.0,0.0,0.0,0.0,-3.4645,-3.5458,-3.5129,-3.4665,-3.5477,-3.511,-3.4684,-3.5496,-3.5704,0.0,-3.6419,-3.7159,0.0,-3.7731,0.0,0.0,0.0,0.0,0.0,0.0,0.0,0.0,0.0,0.0,0.0,0.0,0.0,0.0,0.0,0.0,0.0,0.0,0.0,0.0,0.0,0.0,0.0,-4.3297,-4.3278,-4.3278,-4.3278,-4.4028,-4.4797,-4.5594,-4.5594,-4.5594,-4.5594,-4.5594,-4.5633,-4.5691,-4.5633,-4.5633,-4.5691,-4.5633,-4.5594,-4.5594,-4.5594,-4.5594,-4.5594,-4.5594,-4.5594,-4.5594,0.0,0.0,0.0,0.0,0.0,0.0,0.0,0.0,0.0,0.0,0.0,0.0,0.0,0.0,0.0,0.0,0.0,0.0,0.0,0.0,-2.7701,-2.7701,-2.7968,-2.8156,-2.8246,-2.8838,-2.9396,-2.9894,-3.0873,-3.1255,-3.105,-3.105,-3.0883,-3.0586,-3.0395,-3.0445,-3.0711,-3.0745,-3.1272,-3.2127,-3.2409,-3.2558,0.0,0.0,0.0,0.0,0.0,0.0,0.0,0.0,-3.1599,-3.2353,0.0,-3.317,-3.377,-3.4645,-3.4272,-3.3754,-3.4562,-3.4493,-3.4269,-3.4525,-3.5053,0.0,0.0,-3.7183,-3.7595,0.0,0.0,0.0,0.0,0.0,0.0,0.0,0.0,0.0,0.0,0.0,0.0,0.0,0.0,0.0,0.0,0.0,0.0,0.0,0.0,0.0,0.0,0.0,0.0,-4.4643,-4.4124,-4.4105,-4.4643,-4.496,-4.5267,-4.5594,-4.5594,-4.5594,-4.5594,-4.5594,-4.5594,-4.5594,-4.5594,-4.5594,-4.5594,-4.5594,-4.5594,-4.5594,-4.5594,-4.5594,-4.5594,-4.5594,-4.5594,-4.5594,0.0,0.0,0.0,0.0,0.0,0.0,0.0,0.0,0.0,0.0,0.0,0.0,0.0,0.0,0.0,0.0,0.0,0.0,0.0,-2.7701,-2.7701,-2.7701,-2.7869,-2.7964,-2.7964,-2.8534,-2.916,-2.9811,-3.0643,-3.0753,-3.0214,-3.0214,-3.0363,-3.0586,-3.0304,-3.0681,-3.1496,-3.1561,-3.194,-3.256,-3.3154,-3.3233,0.0,0.0,0.0,0.0,0.0,0.0,0.0,0.0,-3.0965,-3.1463,0.0,0.0,0.0,-3.3731,-3.3337,-3.2792,-3.3583,-3.3711,-3.3662,0.0,0.0,0.0,-3.6591,-3.7625,-3.8258,0.0,0.0,0.0,0.0,0.0,0.0,0.0,0.0,0.0,0.0,0.0,0.0,0.0,0.0,0.0,0.0,0.0,0.0,0.0,0.0,0.0,0.0,0.0,0.0,0.0,-4.397,-4.3932,-4.4806,-4.4806,-4.494,-4.519,-4.5479,-4.5594,-4.5594,-4.5594,-4.5594,-4.5594,-4.5594,-4.5594,-4.5594,-4.5594,-4.5594,-4.5594,-4.5594,-4.5594,-4.5594,-4.5594,-4.5594,-4.5594,0.0,0.0,0.0,0.0,0.0,0.0,0.0,0.0,0.0,0.0,0.0,0.0,0.0,0.0,0.0,0.0,0.0,0.0,-2.7701,-2.7701,-2.7701,-2.7701,-2.7701,-2.7701,-2.7698,-2.8232,-2.867,-2.9003,-2.9272,-2.9396,-2.9396,-2.9396,-2.9842,-3.0652,-3.1506,-3.2392,-3.3183,-3.3275,-3.3337,-3.339,-3.3408,-3.3601,-3.3811,0.0,0.0,0.0,0.0,0.0,0.0,0.0,-3.0598,-3.0733,0.0,0.0,0.0,-3.2836,-3.2375,-3.1788,-3.2653,-3.2741,-3.281,0.0,0.0,0.0,0.0,0.0,0.0,0.0,0.0,0.0,0.0,0.0,0.0,0.0,0.0,0.0,0.0,0.0,0.0,0.0,0.0,0.0,0.0,0.0,0.0,0.0,0.0,0.0,0.0,0.0,0.0,0.0,-4.2258,-4.222,-4.3104,-4.3104,-4.3508,-4.4297,-4.5171,-4.5575,-4.5594,-4.5594,-4.5594,-4.5594,-4.5594,-4.5594,-4.5594,-4.5594,-4.5594,-4.5594,-4.5594,-4.5594,-4.5594,-4.5594,-4.5594,-4.5594,0.0,0.0,0.0,0.0,0.0,0.0,0.0,0.0,0.0,0.0,0.0,0.0,0.0,0.0,0.0,0.0,0.0,0.0,-2.7701,-2.7701,-2.7701,-2.7701,-2.7701,-2.7786,-2.7982,-2.8565,-2.8984,-2.9283,-2.9365,-2.9396,-2.9396,-2.9973,-3.0413,-3.0716,-3.1579,-3.2136,-3.247,-3.3104,-3.3379,-3.3446,-3.402,-3.4383,-3.445,0.0,0.0,0.0,0.0,0.0,0.0,0.0,0.0,0.0,0.0,0.0,0.0,-3.1782,-3.1328,-3.0718,-3.1485,-3.2067,0.0,0.0,0.0,0.0,0.0,0.0,0.0,0.0,0.0,0.0,0.0,0.0,0.0,0.0,0.0,0.0,0.0,0.0,0.0,0.0,0.0,0.0,0.0,0.0,0.0,0.0,0.0,0.0,0.0,0.0,0.0,0.0,-4.2547,-4.2489,-4.3932,-4.3374,-4.322,-4.3451,-4.372,-4.4451,-4.5594,-4.5594,-4.5594,-4.5594,-4.5594,-4.5594,-4.5594,-4.5594,-4.5594,-4.5594,-4.5594,-4.5594,-4.5594,-4.5594,-4.5594,-4.5594,0.0,0.0,0.0,0.0,0.0,0.0,0.0,0.0,0.0,0.0,0.0,0.0,0.0,0.0,0.0,0.0,0.0,0.0,0.0,0.0,-2.7701,-2.7701,-2.7701,-2.7869,-2.8246,-2.8755,-2.9134,-2.9396,-2.9396,-2.9388,-2.9427,-3.0246,-3.0847,-3.1254,-3.2128,-3.2534,-3.2604,-3.3162,-3.339,-3.3427,-3.3926,-3.4437,-3.4756,0.0,0.0,0.0,0.0,0.0,0.0,0.0,0.0,0.0,-3.0465,0.0,0.0,-3.0904,-3.0573,-3.0125,-3.0552,0.0,0.0,0.0,0.0,0.0,0.0,0.0,0.0,0.0,0.0,0.0,0.0,0.0,0.0,0.0,0.0,0.0,0.0,0.0,0.0,0.0,0.0,0.0,0.0,0.0,0.0,0.0,0.0,0.0,0.0,0.0,0.0,0.0,-4.1508,-4.145,-4.2777,-4.2316,-4.2239,-4.2585,-4.2931,-4.3624,-4.4605,-4.4605,-4.4605,-4.4624,-4.494,-4.5287,-4.5594,-4.5594,-4.5594,-4.5594,-4.5594,-4.5594,-4.5594,-4.5594,-4.5594,-4.5556,0.0,0.0,0.0,0.0,0.0,0.0,0.0,0.0,0.0,0.0,0.0,0.0,0.0,0.0,0.0,0.0,0.0,0.0,0.0,0.0,-2.7701,-2.7701,-2.7742,-2.8024,-2.8529,-2.8862,-2.9156,-2.9396,-2.9407,-2.9409,-2.9421,-3.029,-3.1179,-3.2043,-3.2836,-3.3195,-3.3184,-3.3256,-3.3277,-3.3277,-3.3371,-3.3994,-3.4784,-3.3914,0.0,0.0,0.0,0.0,0.0,0.0,0.0,0.0,-3.0247,-3.0196,-3.0117,-3.0234,-3.0087,-2.991,0.0,0.0,0.0,0.0,0.0,0.0,0.0,0.0,0.0,0.0,0.0,0.0,0.0,0.0,0.0,0.0,0.0,0.0,0.0,0.0,0.0,0.0,0.0,0.0,0.0,0.0,0.0,0.0,0.0,0.0,0.0,0.0,0.0,0.0,-3.9765,-3.9727,-4.0612,-4.0477,-4.0835,0.0,-4.2489,-4.2854,-4.2874,-4.3028,-4.3104,-4.3143,-4.3874,-4.4643,-4.5364,-4.5364,-4.5364,-4.5364,-4.5364,-4.5364,-4.5364,-4.5364,-4.5364,-4.5267,0.0,0.0,0.0,0.0,0.0,0.0,0.0,0.0,0.0,0.0,0.0,0.0,0.0,0.0,0.0,0.0,0.0,0.0,0.0,0.0,-2.7701,-2.7701,-2.8098,-2.8509,-2.8874,-2.9178,-2.9336,-2.9396,-2.939,-2.9392,-2.9421,-3.0292,-3.1184,-3.2077,-3.2266,-3.2373,-3.2366,-3.2357,-3.2386,-3.2443,-3.3118,-3.392,-3.4582,-3.3744,-3.3044,0.0,0.0,0.0,0.0,0.0,0.0,0.0,-3.0164,-3.0117,-3.0068,-3.0019,-2.9864,-2.9878,0.0,0.0,0.0,0.0,0.0,0.0,0.0,0.0,0.0,0.0,0.0,0.0,0.0,0.0,0.0,0.0,0.0,0.0,0.0,0.0,0.0,0.0,0.0,0.0,0.0,0.0,0.0,0.0,0.0,0.0,0.0,0.0,0.0,-4.1508,-4.0085,-4.0008,-4.1508,-4.0219,-3.9977,0.0,-4.0977,-4.1054,-4.1112,-4.247,-4.3104,-4.3104,-4.3278,-4.3451,-4.3643,-4.3643,-4.3643,-4.3643,-4.3643,-4.3643,-4.3643,-4.3643,-4.3643,-4.3605,0.0,0.0,0.0,0.0,0.0,0.0,0.0,0.0,0.0,0.0,0.0,0.0,0.0,0.0,0.0,0.0,0.0,0.0,0.0,0.0,0.0,-2.7883,-2.8433,-2.8827,-2.8991,-2.9272,-2.9396,-2.9396,-2.9431,-2.9453,-2.9471,-3.0343,-3.1039,-3.1529,-3.1933,-3.1887,-3.1541,-3.1541,-3.1541,-3.1598,-3.2443,-3.3287,-3.402,-3.3982,-3.3315,-3.2333,-3.1779,0.0,0.0,0.0,0.0,0.0,0.0,0.0,-2.9913,-2.9897,-2.9808,-2.9795,0.0,0.0,0.0,0.0,0.0,0.0,0.0,0.0,0.0,0.0,0.0,0.0,0.0,0.0,0.0,0.0,0.0,0.0,0.0,0.0,0.0,0.0,0.0,0.0,0.0,0.0,0.0,0.0,0.0,0.0,0.0,-3.7033,-3.7688,-3.8142,-3.7719,-3.7911,-3.8769,-3.8296,-3.8277,-3.8681,-3.9104,-3.9296,-3.9354,-4.1066,-4.2085,-4.2489,-4.2489,-4.272,-4.3104,-4.3104,-4.3104,-4.3104,-4.3104,-4.3104,-4.3104,-4.3104,-4.3104,-4.3047,0.0,0.0,0.0,0.0,0.0,0.0,0.0,0.0,0.0,0.0,0.0,0.0,0.0,0.0,0.0,0.0,0.0,0.0,0.0,0.0,0.0,-2.817,-2.8688,-2.9014,-2.9078,-2.9294,-2.9388,-2.9388,-2.9481,0.0,0.0,0.0,0.0,-3.0912,-3.1447,-3.1391,-3.0893,-3.0743,-3.0762,-3.0968,-3.1616,-3.2405,-3.325,-3.3926,-3.3314,-3.2127,-3.1957,-3.1017,-2.9849,-2.9755,0.0,0.0,0.0,0.0,-2.9861,-3.0083,-2.9979,-2.9801,0.0,0.0,0.0,0.0,0.0,0.0,0.0,0.0,0.0,0.0,0.0,0.0,0.0,0.0,0.0,0.0,0.0,0.0,0.0,0.0,0.0,0.0,0.0,0.0,0.0,0.0,0.0,0.0,0.0,0.0,-3.3122,-3.3949,-3.4494,-3.4629,-3.5199,-3.5635,-3.5923,-3.6308,-3.6635,-3.6923,-3.7661,-3.8007,-3.8046,-3.9438,-4.0546,-4.1373,-4.1373,-4.1854,-4.2643,-4.2643,-4.2643,-4.2643,-4.2643,-4.2643,-4.2643,-4.2643,-4.2643,-4.2547,0.0,0.0,0.0,0.0,0.0,0.0,0.0,0.0,0.0,0.0,0.0,0.0,0.0,0.0,0.0,0.0,0.0,0.0,-2.7701,0.0,0.0,-2.8422,-2.8803,-2.9112,-2.9336,-2.938,-2.9392,-2.9392,0.0,0.0,0.0,0.0,0.0,-3.0875,0.0,-3.0359,-3.0856,-3.0152,-3.0265,-3.0912,-3.1025,-3.155,-3.2292,-3.2386,-3.187,-3.1101,-3.1072,-3.0481,-2.9747,-2.9841,-2.9942,0.0,0.0,0.0,0.0,-3.1002,-3.0646,-3.0167,0.0,0.0,0.0,0.0,0.0,0.0,0.0,0.0,0.0,0.0,0.0,0.0,0.0,0.0,0.0,0.0,0.0,0.0,0.0,0.0,0.0,0.0,0.0,0.0,0.0,0.0,0.0,0.0,0.0,0.0,-3.4032,-3.4853,-3.5654,-3.6346,-3.5808,-3.6192,-3.7642,-3.6327,-3.6385,-3.7834,-3.795,-3.8007,-3.8007,-3.8238,-3.8815,-3.9623,-3.9623,-4.0112,-4.0843,-4.0843,-4.0843,-4.0843,-4.0843,-4.0843,-4.0843,-4.0843,-4.0843,-4.0823,0.0,0.0,0.0,0.0,0.0,0.0,0.0,0.0,0.0,0.0,0.0,0.0,0.0,0.0,0.0,-2.7104,-2.7508,-2.7757,-2.7911,-2.8166,-2.8466,-2.876,-2.9068,-2.9299,-2.9451,-2.9471,-2.9453,-2.9453,0.0,0.0,0.0,-2.9683,-2.9889,0.0,0.0,0.0,0.0,0.0,0.0,-3.0265,-3.0724,-3.11,-3.1485,-3.1936,-3.1598,-3.0893,-3.0893,-3.0377,-2.972,0.0,-2.9891,-3.0046,-3.0434,0.0,0.0,0.0,0.0,0.0,0.0,0.0,0.0,0.0,0.0,0.0,0.0,0.0,0.0,0.0,0.0,0.0,0.0,0.0,0.0,0.0,0.0,0.0,0.0,0.0,0.0,0.0,0.0,0.0,0.0,0.0,0.0,0.0,0.0,-3.2064,-3.2064,-3.291,-3.3519,-3.3891,-3.3987,-3.441,-3.5141,-3.441,-3.441,-3.5141,-3.5641,-3.5872,-3.5892,-3.6372,-3.7315,-3.8565,-3.8565,-3.9046,-3.9823,-3.9823,-4.0092,-4.0496,-4.0496,-4.0496,-4.0496,-4.0496,-4.0496,-4.0496,0.0,0.0,0.0,0.0,0.0,0.0,0.0,0.0,0.0,0.0,0.0,0.0,0.0,0.0,0.0,0.0,-2.7151,-2.736,-2.7826,-2.8345,-2.8748,-2.9008,-2.9272,-2.9453,-2.9492,-2.9531,-2.9531,0.0,0.0,0.0,-2.9626,-2.9683,-2.9701,0.0,-2.9908,-3.0002,0.0,0.0,0.0,0.0,0.0,-3.0593,-3.0649,0.0,0.0,-3.0593,-3.0593,0.0,0.0,0.0,0.0,0.0,0.0,0.0,0.0,0.0,0.0,0.0,0.0,0.0,0.0,0.0,0.0,0.0,0.0,0.0,0.0,0.0,0.0,0.0,0.0,0.0,0.0,0.0,0.0,0.0,0.0,0.0,0.0,0.0,0.0,0.0,0.0,0.0,0.0,0.0,0.0,-3.0404,-3.0404,-3.1019,-3.1468,-3.1698,-3.2275,-3.2699,-3.2891,-3.2891,-3.2795,-3.2602,-3.3449,-3.3994,-3.4225,-3.4872,-3.5968,-3.7373,-3.7584,-3.8161,-3.8977,-3.8977,-3.9323,-3.99,-4.0112,-4.0054,-3.99,-4.0112,-4.0054,-3.9861,0.0,0.0,0.0,0.0,0.0,0.0,0.0,0.0,0.0,0.0,0.0,0.0,-2.4414,-2.5116,-2.557,-2.5507,-2.5632,-2.6117,-2.7095,-2.8299,-2.8997,-2.9086,-2.9345,0.0,-2.9502,-2.956,0.0,0.0,0.0,0.0,-2.9683,-2.9701,-2.9701,-2.972,-3.0499,-3.0837,-3.0837,0.0,0.0,0.0,0.0,0.0,0.0,0.0,0.0,0.0,0.0,0.0,0.0,0.0,0.0,0.0,0.0,0.0,0.0,0.0,0.0,0.0,0.0,0.0,0.0,0.0,0.0,0.0,0.0,0.0,0.0,0.0,0.0,0.0,0.0,0.0,0.0,0.0,0.0,0.0,0.0,0.0,0.0,0.0,0.0,0.0,0.0,0.0,0.0,0.0,0.0,-3.0404,-3.0404,-3.0442,-3.0846,-3.1679,-3.1737,-3.2122,-3.2891,-3.2891,-3.2526,-3.1775,-3.2583,-3.3391,-3.4205,-3.4244,-3.4776,-3.5673,-3.6442,-3.7257,-3.8065,-3.8065,-3.8084,-3.82,-3.9034,-3.8854,-3.8238,-3.9073,-3.8834,-3.8123,0.0,0.0,0.0,0.0,0.0,0.0,0.0,0.0,0.0,0.0,0.0,0.0,0.0,-2.6317,-2.669,-2.7165,-2.7335,-2.7659,-2.8281,-2.8748,-2.9134,-2.9412,-2.9521,-2.9579,-2.9636,-2.9645,0.0,0.0,0.0,-2.9701,-2.9701,-2.9701,-2.9701,-2.9739,-3.0537,-3.0612,-3.0171,-3.0687,0.0,0.0,0.0,0.0,0.0,0.0,0.0,0.0,0.0,0.0,0.0,0.0,0.0,0.0,0.0,0.0,0.0,0.0,0.0,0.0,0.0,0.0,0.0,0.0,0.0,0.0,0.0,0.0,0.0,0.0,0.0,0.0,0.0,0.0,0.0,0.0,0.0,0.0,0.0,0.0,0.0,0.0,0.0,0.0,0.0,0.0,0.0,0.0,0.0,0.0,-3.0394,-3.0396,-3.0538,-3.0865,-3.0865,-3.1,-3.1288,-3.1288,-3.1154,-3.0885,-3.1718,-3.2295,-3.2602,-3.3122,-3.3545,-3.3853,-3.4141,-3.5372,-3.718,-3.718,-3.7507,-3.8027,-3.8334,-3.8277,-3.8046,-3.8354,-3.8277,-3.8007,0.0,0.0,0.0,0.0,0.0,0.0,0.0,0.0,0.0,0.0,0.0,0.0,0.0,0.0,-2.7304,-2.7619,-2.8015,-2.8366,-2.8636,-2.9,-2.9332,-2.9617,-2.9626,-2.9645,-2.9701,-2.9701,-2.9701,0.0,0.0,0.0,0.0,-2.9701,-2.9701,-2.9739,-3.0537,-3.0593,0.0,0.0,0.0,-3.0161,0.0,0.0,-2.9805,0.0,0.0,0.0,0.0,0.0,0.0,0.0,0.0,0.0,0.0,0.0,0.0,0.0,0.0,0.0,0.0,0.0,0.0,0.0,0.0,0.0,0.0,0.0,0.0,0.0,0.0,0.0,0.0,0.0,0.0,0.0,0.0,0.0,0.0,0.0,0.0,0.0,0.0,0.0,0.0,0.0,0.0,0.0,0.0,0.0,-3.0398,-3.0394,-3.0402,-3.0402,-3.041,-3.0404,-3.0404,-3.0404,-3.0404,-3.0404,-3.0981,-3.1429,-3.1718,-3.2256,-3.2641,-3.291,-3.3218,-3.4295,-3.5853,-3.5853,-3.6372,-3.7199,-3.7469,-3.7411,-3.7199,-3.7469,-3.7392,-3.7161,0.0,0.0,0.0,0.0,0.0,0.0,0.0,0.0,0.0,0.0,0.0,0.0,0.0,0.0,0.0,-2.6738,-2.7445,-2.7962,-2.8037,-2.9025,-2.9626,-2.9701,-2.9701,-2.9701,-2.9701,-2.9701,-2.9701,0.0,0.0,0.0,0.0,0.0,-2.9701,-2.972,-3.0518,-3.0856,-3.0875,0.0,-3.0893,-3.0875,0.0,-3.0596,-2.9851,0.0,0.0,0.0,-3.0837,-3.1202,0.0,0.0,0.0,0.0,0.0,0.0,0.0,0.0,0.0,0.0,0.0,0.0,0.0,0.0,0.0,0.0,0.0,0.0,0.0,0.0,0.0,0.0,0.0,0.0,0.0,0.0,0.0,0.0,0.0,0.0,0.0,0.0,0.0,0.0,0.0,0.0,0.0,0.0,0.0,-3.0398,-3.0398,-3.0398,-3.0392,-3.0392,-3.0402,-3.0404,-3.0404,-3.0404,-3.0404,-3.0404,-3.0404,-3.0846,-3.166,-3.166,-3.2083,-3.2872,-3.3725,-3.4109,-3.4129,-3.4205,-3.4737,-3.5577,-3.6365,-3.6192,-3.5596,-3.6385,-3.6173,-3.55,0.0,0.0,0.0,0.0,0.0,0.0,0.0,0.0,0.0,0.0,0.0,0.0,-2.8065,-2.8367,-2.8517,-2.855,-2.8777,-2.8969,-2.9146,-2.9447,-2.9626,-2.9701,-2.9701,-2.9701,-2.9701,-2.9701,-2.9701,0.0,0.0,0.0,0.0,0.0,0.0,0.0,-2.9927,-3.0021,-3.0077,-3.0649,0.0,0.0,-3.0725,-3.091,0.0,0.0,0.0,0.0,0.0,-3.1392,0.0,0.0,-3.2739,-3.291,0.0,0.0,0.0,0.0,0.0,0.0,-3.0608,0.0,0.0,0.0,0.0,0.0,0.0,0.0,0.0,0.0,0.0,0.0,0.0,0.0,0.0,0.0,0.0,0.0,0.0,0.0,0.0,0.0,0.0,0.0,0.0,0.0,0.0,0.0,-3.05,-3.0469,-3.0469,-3.0425,-3.0396,-3.0396,-3.041,-3.0404,-3.0404,-3.0404,-3.0404,-3.0404,-3.0404,-3.0538,-3.075,-3.075,-3.0885,-3.1115,-3.1346,-3.1814,-3.2526,-3.4391,-3.5269,-3.5519,-3.575,-3.5692,-3.5538,-3.575,-3.5692,-3.55,0.0,0.0,0.0,0.0,0.0,0.0,0.0,0.0,0.0,0.0,0.0,0.0,-2.8706,-2.8962,-2.9174,-2.9434,-2.9443,-2.9482,-2.9626,-2.9636,-2.9655,-2.9701,-2.9701,-2.9701,-2.9701,-2.9701,-2.9701,0.0,0.0,0.0,0.0,0.0,0.0,0.0,0.0,0.0,0.0,0.0,0.0,0.0,-3.0737,0.0,0.0,-3.1369,-3.1788,0.0,0.0,0.0,-3.2458,-3.285,-3.3024,0.0,0.0,0.0,0.0,0.0,0.0,0.0,0.0,0.0,0.0,0.0,0.0,0.0,0.0,-3.0359,0.0,0.0,0.0,0.0,0.0,0.0,0.0,0.0,0.0,0.0,0.0,0.0,0.0,0.0,0.0,0.0,0.0,0.0,0.0,-3.0598,-3.054,-3.0495,-3.0495,-3.0442,-3.0414,-3.0444,-3.0416,-3.0404,-3.0404,-3.0404,-3.0404,-3.0404,-3.0404,-3.0404,-3.0404,-3.0404,-3.0404,-3.0423,-3.0787,-3.1447,-3.2396,-3.4251,-3.4777,-3.4481,-3.5212,-3.5269,-3.5007,-3.5365,-3.55,-3.55,0.0,0.0,0.0,0.0,0.0,0.0,0.0,0.0,0.0,0.0,0.0,-2.7977,-2.903,-2.9251,-2.9414,-2.9692,-2.9655,-2.9636,-2.9701,-2.9701,-2.9701,-2.9701,-2.9701,-2.9701,-2.9701,-2.9701,0.0,0.0,0.0,0.0,0.0,0.0,0.0,0.0,0.0,0.0,0.0,0.0,0.0,-2.983,-3.0837,-3.1221,0.0,0.0,-3.1617,0.0,-3.1625,-3.1705,-3.2131,-3.3809,-3.3728,0.0,0.0,0.0,0.0,0.0,-3.0645,0.0,0.0,0.0,0.0,0.0,0.0,0.0,-3.0604,-3.06,-3.0595,0.0,0.0,0.0,0.0,0.0,0.0,0.0,0.0,0.0,0.0,0.0,0.0,0.0,0.0,0.0,0.0,-3.0598,-3.0598,-3.0598,-3.053,-3.0496,-3.0491,-3.0449,-3.0433,-3.0499,-3.0444,-3.041,-3.0404,-3.041,-3.041,-3.041,-3.0416,-3.0416,-3.0416,-3.0416,-3.0416,-3.0454,-3.1336,-3.2156,-3.2933,-3.3799,-3.3781,-3.3346,-3.4802,-3.4956,-3.4424,-3.5013,-3.5341,-3.5494,0.0,0.0,0.0,0.0,0.0,0.0,0.0,0.0,0.0,0.0,0.0,0.0,0.0,0.0,-2.9463,-2.9673,-2.9692,-2.9692,-2.9701,-2.9701,0.0,-2.9701,-2.9701,-2.9701,-2.9701,-2.9701,0.0,0.0,0.0,0.0,0.0,0.0,0.0,0.0,0.0,0.0,0.0,0.0,0.0,-3.0026,-3.0148,0.0,-3.1378,-3.0844,-3.1618,-3.277,-3.1394,-3.181,-3.3033,0.0,-3.2485,-3.1243,0.0,0.0,0.0,0.0,0.0,0.0,0.0,0.0,0.0,0.0,0.0,0.0,-3.0602,-3.0602,-3.0597,0.0,0.0,0.0,0.0,0.0,0.0,0.0,0.0,0.0,0.0,0.0,0.0,0.0,0.0,0.0,0.0,-3.0598,-3.0598,-3.0598,-3.053,-3.0505,-3.049,-3.0479,-3.0463,-3.0428,-3.0458,-3.0461,-3.0404,-3.0455,-3.0453,-3.0406,-3.0453,-3.0483,-3.0483,-3.0483,-3.0483,-3.0521,-3.14,-3.1882,-3.2094,-3.2929,-3.3965,-3.5039,-3.468,-3.4853,-3.5174,-3.3947,-3.4371,-3.5476,0.0,0.0,0.0,0.0,0.0,0.0,0.0,0.0,0.0,0.0,0.0,0.0,0.0,0.0,0.0,0.0,0.0,-2.9701,0.0,0.0,0.0,0.0,0.0,0.0,0.0,0.0,0.0,0.0,0.0,0.0,0.0,0.0,0.0,0.0,0.0,0.0,0.0,0.0,-3.0015,-3.0183,-3.0089,0.0,-3.1521,-3.0824,-3.1425,-3.2477,-3.1176,-3.1545,-3.2594,-3.2147,-3.2004,0.0,0.0,-3.1666,-3.1355,0.0,-3.1033,-3.0694,0.0,0.0,0.0,-3.0695,0.0,0.0,0.0,-3.0641,0.0,0.0,0.0,0.0,0.0,0.0,0.0,0.0,0.0,0.0,0.0,0.0,0.0,0.0,0.0,0.0,0.0,-3.0598,-3.0598,-3.0598,-3.0564,-3.0554,-3.0545,-3.053,-3.0471,-3.0455,-3.0479,-3.0488,-3.0455,-3.0488,-3.0474,-3.0439,-3.0474,-3.0504,-3.0504,-3.0504,-3.0504,-3.0523,-3.0958,-3.1407,-3.1837,-3.2234,-3.3167,-3.4359,-3.4305,-3.4042,-3.3657,-3.3651,-3.3927,-3.4235,0.0,0.0,0.0,0.0,0.0,0.0,0.0,0.0,0.0,0.0,0.0,0.0,0.0,0.0,0.0,0.0,0.0,0.0,0.0,0.0,0.0,0.0,0.0,-2.9719,0.0,0.0,0.0,0.0,0.0,0.0,0.0,0.0,0.0,0.0,0.0,0.0,0.0,0.0,0.0,-3.0359,0.0,-3.0727,-3.139,-3.0882,-3.1133,-3.1658,-3.0943,-3.1156,-3.1677,-3.1137,0.0,-3.2924,-3.2221,-3.2007,0.0,0.0,0.0,0.0,0.0,0.0,0.0,0.0,0.0,-3.071,0.0,0.0,0.0,0.0,0.0,0.0,0.0,0.0,0.0,0.0,0.0,0.0,0.0,0.0,0.0,0.0,0.0,0.0,0.0,-3.0501,-3.0598,-3.0598,-3.0598,-3.0598,-3.0598,-3.0554,-3.0501,-3.0496,-3.0505,-3.0514,-3.0504,-3.0514,-3.0514,-3.0509,-3.0514,-3.0519,-3.0519,-3.0519,-3.0519,-3.0539,-3.0689,-3.124,-3.2043,-3.1864,-3.2314,-3.316,-3.3633,-3.3051,-3.2105,-3.3186,-3.334,-3.2993,-2.3806,-2.4375,0.0,0.0,0.0,0.0,0.0,0.0,0.0,0.0,0.0,0.0,0.0,0.0,0.0,0.0,0.0,0.0,-2.8604,0.0,0.0,0.0,0.0,0.0,-2.9883,0.0,0.0,0.0,0.0,0.0,0.0,0.0,0.0,0.0,-3.0315,0.0,0.0,0.0,-3.0325,0.0,-3.0429,-3.0452,0.0,-3.0653,-3.0754,-3.083,-3.0733,-3.0752,-3.0943,0.0,-3.1988,-3.2124,0.0,-3.2007,0.0,0.0,0.0,0.0,0.0,0.0,0.0,0.0,-3.0694,0.0,0.0,0.0,0.0,0.0,0.0,0.0,0.0,0.0,0.0,0.0,0.0,0.0,0.0,0.0,0.0,0.0,0.0,0.0,0.0,0.0,-3.0598,-3.0598,-3.0598,-3.0598,-3.0598,-3.0593,-3.0559,-3.0496,-3.0559,-3.0569,-3.0504,-3.0569,-3.0559,-3.0491,-3.0559,-3.0588,-3.0588,-3.0588,-3.0588,-3.0627,-3.1342,-3.2154,-3.2889,-3.2121,-3.2314,-3.303,-3.2348,-3.2439,-3.2787,-3.1497,-3.1898,-3.2981,-2.4502,-2.4773,0.0,0.0,0.0,0.0,0.0,0.0,0.0,0.0,0.0,0.0,0.0,0.0,0.0,0.0,0.0,-2.9622,0.0,0.0,0.0,0.0,0.0,0.0,0.0,0.0,0.0,0.0,-3.0339,0.0,0.0,0.0,0.0,0.0,-3.0542,0.0,-3.0524,0.0,0.0,0.0,0.0,0.0,0.0,-3.0668,-3.0706,-3.0694,-3.0694,-3.0694,-3.0752,0.0,-3.1584,0.0,0.0,0.0,0.0,0.0,0.0,0.0,0.0,0.0,0.0,0.0,0.0,0.0,0.0,0.0,-3.0694,0.0,0.0,0.0,0.0,0.0,0.0,0.0,0.0,0.0,0.0,0.0,0.0,0.0,0.0,0.0,0.0,0.0,0.0,0.0,0.0,-3.0598,-3.0598,-3.0598,-3.0593,-3.0559,-3.0593,-3.0588,-3.0569,-3.0588,-3.0593,-3.0559,-3.0593,-3.0598,-3.0598,-3.0598,-3.0598,-3.0617,-3.0965,-3.1313,-3.1618,-3.1255,-3.1313,-3.1599,-3.1255,-3.1333,-3.1618,-3.1386,-3.1444,-3.1599,-2.5725,0.0,0.0,0.0,0.0,0.0,0.0,0.0,0.0,0.0,0.0,0.0,-2.9701,-2.9729,0.0,0.0,0.0,-2.9754,0.0,0.0,-2.9921,0.0,0.0,0.0,0.0,0.0,0.0,0.0,0.0,0.0,0.0,0.0,0.0,0.0,0.0,-3.0694,-3.069,0.0,0.0,-3.0687,-3.0586,-3.0618,-3.0694,-3.0694,-3.0694,-3.0694,-3.0694,-3.0694,-3.0694,-3.0694,-3.1273,0.0,-3.1716,0.0,0.0,0.0,0.0,0.0,-3.0694,0.0,0.0,0.0,0.0,0.0,0.0,0.0,0.0,0.0,0.0,0.0,0.0,0.0,0.0,0.0,0.0,0.0,0.0,0.0,0.0,0.0,0.0,0.0,0.0,0.0,0.0,-3.0598,-3.0598,-3.0598,-3.0598,-3.0598,-3.0598,-3.0598,-3.0598,-3.0714,-3.0926,-3.0926,-3.1043,-3.1275,-3.1043,-3.0926,-3.0926,-3.0694,-3.0598,-3.0598,-3.0598,-3.0733,-3.0907,-3.0694,-3.0733,-3.0907,-3.0694,-3.0598,-3.0675,-3.1255,-3.1101,-3.0598,-2.759,-2.7602,0.0,0.0,0.0,0.0,0.0,0.0,0.0,0.0,0.0,0.0,0.0,0.0,0.0,0.0,0.0,-2.9575,-2.8794,0.0,-2.9992,0.0,0.0,0.0,0.0,0.0,0.0,0.0,0.0,0.0,0.0,0.0,0.0,0.0,0.0,-3.0694,-3.0694,-3.069,-3.069,-3.0694,-3.069,-3.069,-3.0694,0.0,-3.0694,-3.0694,-3.0694,0.0,0.0,-3.0694,-3.1273,0.0,0.0,0.0,0.0,0.0,0.0,0.0,0.0,0.0,0.0,-3.0694,0.0,0.0,0.0,0.0,-3.0694,0.0,0.0,0.0,0.0,0.0,0.0,0.0,0.0,0.0,0.0,0.0,0.0,0.0,0.0,0.0,0.0,0.0,0.0,-3.0598,-3.0598,-3.0598,-3.0598,-3.0598,-3.0598,-3.0598,-3.0598,-3.0965,-3.1753,-3.1753,-3.2179,-3.301,-3.2159,-3.1753,-3.1734,-3.0965,-3.0598,-3.0598,-3.0598,-3.1043,-3.1695,-3.0926,-3.1062,-3.1676,-3.0907,-3.0598,-3.0598,-3.0636,-3.0617,-3.0598,0.0,0.0,0.0,0.0,0.0,0.0,0.0,-2.9569,0.0,0.0,0.0,0.0,0.0,0.0,-2.9786,0.0,0.0,-2.9958,-2.976,-2.9959,0.0,0.0,0.0,-3.0279,0.0,0.0,0.0,0.0,0.0,0.0,0.0,0.0,0.0,0.0,0.0,-3.0694,0.0,0.0,0.0,0.0,0.0,-3.0694,-3.0694,0.0,0.0,-3.0694,-3.0694,-3.0694,0.0,-3.0694,-3.0907,-3.1098,-3.0791,-3.0904,-3.1079,-3.0791,-3.0694,0.0,0.0,0.0,-3.0695,-3.0695,0.0,0.0,0.0,0.0,0.0,0.0,0.0,0.0,0.0,0.0,0.0,0.0,0.0,0.0,0.0,0.0,0.0,0.0,0.0,0.0,0.0,0.0,0.0,-3.0607,-3.0595,-3.0598,0.0,-3.0598,-3.0598,-3.0598,-3.0598,-3.0733,-3.1004,-3.1521,-3.1947,-3.2237,-3.2527,-3.2353,-3.1792,-3.1521,-3.1101,-3.0598,-3.0598,-3.0752,-3.0984,-3.0714,-3.0752,-3.0984,-3.0714,-3.0598,-3.0598,-3.0598,-3.0598,-3.0598,-2.8661,0.0,0.0,0.0,0.0,0.0,0.0,0.0,0.0,0.0,-2.9815,0.0,-2.9907,0.0,-3.0014,0.0,-3.0125,-3.0171,-3.0267,-3.0247,0.0,-3.0397,-3.0353,0.0,0.0,0.0,0.0,0.0,0.0,-3.0694,0.0,0.0,0.0,0.0,0.0,0.0,0.0,0.0,-3.0694,0.0,0.0,-3.0694,0.0,0.0,-3.0694,-3.0694,0.0,-3.0694,-3.0694,-3.0694,-3.0694,-3.0694,-3.0694,-3.0694,-3.0694,-3.0694,-3.0691,-3.0697,-3.0694,-3.0715,0.0,-3.0747,-3.0747,0.0,-3.073,0.0,0.0,0.0,0.0,0.0,0.0,0.0,0.0,0.0,0.0,0.0,0.0,-3.081,0.0,0.0,0.0,0.0,0.0,0.0,-3.0638,-3.0591,-3.0606,-3.0595,0.0,0.0,-3.0595,-3.0598,-3.0625,-3.0777,-3.1054,-3.1902,-3.2329,-3.2309,-3.2875,-3.2663,-3.1792,-3.1502,-3.1101,-3.0598,-3.0598,-3.0598,-3.0598,-3.0598,-3.0598,-3.0598,-3.0598,-3.0598,-3.0598,-3.0598,-3.0598,-3.0598,0.0,0.0,0.0,0.0,-2.9701,0.0,0.0,0.0,-2.9808,0.0,-2.9866,-2.9905,-2.9905,-3.003,-3.0102,-3.0102,-3.0176,0.0,-3.0206,-3.026,0.0,0.0,-3.0413,-3.0501,-3.069,0.0,0.0,0.0,0.0,0.0,0.0,0.0,0.0,0.0,-3.0694,0.0,-3.0694,-3.0694,-3.0694,-3.0694,-3.0694,-3.0694,-3.0694,-3.0694,-3.0694,-3.0694,-3.0694,-3.0694,-3.0694,-3.0694,-3.0694,-3.0694,-3.0694,-3.0694,-3.0694,-3.0697,-3.0703,-3.0704,-3.0709,-3.0741,-3.0803,-3.0803,0.0,0.0,0.0,0.0,-3.0801,0.0,0.0,0.0,0.0,0.0,0.0,0.0,0.0,0.0,0.0,0.0,0.0,0.0,0.0,0.0,0.0,-3.0664,-3.0661,-3.0606,-3.0591,0.0,0.0,0.0,-3.0607,-3.0597,-3.0671,-3.107,-3.1836,-3.2764,-3.3209,-3.3134,-3.3184,-3.2718,-3.1787,-3.1018,-3.065,-3.0592,-3.0607,-3.0607,-3.0607,-3.0598,-3.0598,-3.0598,-3.0598,-3.0602,-3.0607,-3.0607,-3.0607,-3.0607,-2.8566,-2.927,-2.9701,0.0,-2.9701,-2.9701,0.0,0.0,0.0,0.0,-2.9983,-3.0068,-3.0121,-3.015,-3.0164,-3.0164,-3.0234,0.0,0.0,0.0,0.0,-3.0622,-3.058,-3.0593,-3.069,-3.068,0.0,-3.0694,0.0,0.0,-3.0694,0.0,0.0,0.0,0.0,0.0,-3.0694,-3.0694,-3.0694,-3.0694,-3.0694,-3.0694,0.0,0.0,-3.0694,-3.0694,-3.0694,-3.0694,-3.0694,-3.0694,-3.0694,-3.0694,-3.0694,-3.0694,-3.0704,-3.0689,-3.0691,-3.072,-3.0769,-3.0798,-3.08,-3.08,-3.08,-3.0798,0.0,0.0,0.0,0.0,0.0,0.0,0.0,0.0,0.0,0.0,0.0,0.0,0.0,0.0,0.0,0.0,0.0,0.0,0.0,-3.0662,-3.0639,-3.0664,-3.0636,0.0,0.0,0.0,0.0,-3.0667,-3.0697,-3.0799,-3.1017,-3.1887,-3.2333,-3.2313,-3.2956,-3.2814,-3.1942,-3.1728,-3.1284,-3.0664,-3.0628,-3.0603,-3.0599,-3.061,-3.0598,-3.0598,-3.0598,-3.0604,-3.0603,-3.0603,-3.0603,-3.061,-2.8791,0.0,0.0,-2.9701,0.0,0.0,-2.9747,0.0,0.0,-2.9964,-3.0076,0.0,-3.0204,-3.0233,-3.0241,-3.0241,-3.0316,0.0,0.0,0.0,0.0,-3.0653,-3.0645,-3.0661,-3.0694,-3.0694,0.0,-3.0694,0.0,0.0,-3.0694,0.0,0.0,0.0,0.0,-3.0694,0.0,-3.0694,-3.0694,-3.0694,-3.0694,0.0,0.0,-3.0694,-3.0694,-3.0694,-3.0694,-3.0694,-3.0694,-3.0694,-3.0694,-3.0697,-3.0707,-3.0697,-3.0709,-3.0741,-3.0746,-3.0744,-3.078,-3.08,-3.0797,-3.0797,-3.0797,-3.0798,-3.0801,-3.08,-3.0801,0.0,0.0,0.0,0.0,0.0,0.0,0.0,0.0,0.0,0.0,0.0,0.0,0.0,0.0,0.0,0.0,0.0,0.0,0.0,0.0,0.0,0.0,0.0,0.0,-3.0691,-3.0764,-3.0967,-3.1303,-3.2176,-3.2604,-3.2627,-3.3113,-3.3065,-3.2543,-3.1778,-3.1371,-3.1237,-3.0834,-3.0642,-3.0639,-3.0639,-3.0641,-3.0637,-3.0618,-3.0595,-3.06,-3.063,-3.0642,-3.0647,0.0,0.0,0.0,0.0,0.0,0.0,0.0,-2.9883,0.0,-3.0087,0.0,-3.0192,-3.0206,-3.0273,-3.0291,-3.0303,0.0,-3.0423,-3.0423,-3.0534,-3.0613,-3.0613,-3.0665,-3.0694,-3.0694,-3.0697,0.0,0.0,0.0,0.0,0.0,0.0,0.0,0.0,0.0,0.0,0.0,-3.0701,-3.0704,0.0,-3.0707,-3.0704,-3.0701,-3.0701,-3.0697,-3.0694,-3.0694,-3.0694,-3.0694,-3.0694,-3.0701,-3.0698,-3.0708,-3.0706,-3.0722,-3.0778,-3.0797,-3.0801,-3.08,-3.0795,-3.08,-3.08,-3.08,-3.08,-3.08,-3.08,-3.08,-3.08,-3.08,-3.0799,0.0,0.0,0.0,0.0,0.0,0.0,0.0,0.0,0.0,0.0,0.0,0.0,0.0,0.0,0.0,0.0,0.0,0.0,0.0,0.0,0.0,-3.0728,-3.095,-3.1405,-3.2115,0.0,-3.3397,-3.3404,-3.3287,-3.3218,-3.3095,-3.1471,-3.1137,-3.1802,-3.1053,-3.0717,-3.0717,-3.0691,-3.0709,-3.0684,-3.0633,-3.0614,-3.063,-3.0682,-3.0722,-3.0728,0.0,0.0,0.0,0.0,0.0,-2.9924,-3.0022,-3.0065,-3.008,-3.0095,-3.0161,-3.0226,-3.0273,-3.0298,-3.0321,-3.0375,-3.0496,0.0,0.0,0.0,0.0,-3.068,-3.0687,-3.0694,-3.0694,-3.0701,-3.0701,0.0,0.0,0.0,0.0,0.0,0.0,0.0,0.0,0.0,-3.0694,-3.0694,0.0,-3.0786,-3.0786,-3.0753,-3.0694,-3.0694,-3.0698,-3.0694,-3.0694,-3.0694,-3.0694,-3.0694,-3.071,-3.0691,-3.0699,-3.0749,-3.078,-3.0798,-3.0801,-3.08,-3.0792,-3.0804,-3.08,-3.08,-3.08,-3.08,-3.08,-3.08,-3.08,-3.08,-3.08,-3.08,-3.0799,0.0,0.0,0.0,0.0,0.0,0.0,0.0,0.0,0.0,0.0,0.0,0.0,0.0,0.0,0.0,0.0,0.0,0.0,0.0,0.0,0.0,-3.1582,0.0,0.0,0.0,-3.3398,-3.3398,-3.2734,-3.2401,-3.2361,-3.1326,-3.0955,-3.1071,-3.0862,-3.0774,-3.0773,-3.0724,-3.0709,-3.0709,-3.0699,-3.072,-3.0767,-3.0773,-3.0827,-3.0857,0.0,0.0,0.0,0.0,0.0,0.0,0.0,-3.018,0.0,-3.0161,-3.0219,-3.0254,-3.0304,-3.0392,-3.0467,-3.0501,-3.0593,-3.0649,-3.0649,-3.068,-3.0701,-3.0698,-3.0698,0.0,-3.0742,-3.0756,-3.0728,-3.0698,0.0,0.0,0.0,0.0,0.0,0.0,0.0,-3.0707,0.0,0.0,0.0,-3.0801,-3.0801,-3.0774,-3.0742,-3.0742,-3.0745,-3.075,-3.0757,-3.0747,-3.0754,-3.0717,-3.07,-3.0711,-3.0734,-3.0771,-3.0798,-3.0798,-3.0795,-3.0794,-3.0804,-3.08,-3.08,-3.08,-3.08,-3.08,-3.08,-3.08,-3.08,-3.08,-3.08,-3.0796,-3.0742,-3.0717,0.0,0.0,0.0,0.0,0.0,0.0,0.0,0.0,0.0,0.0,0.0,0.0,0.0,0.0,0.0,0.0,0.0,0.0,0.0,0.0,0.0,0.0,0.0,0.0,0.0,-3.4062,-3.3223,-3.2812,-3.2773,-3.1484,-3.1152,-3.1543,-3.1052,-3.0855,-3.0855,-3.0827,-3.0776,-3.0741,-3.0741,-3.077,-3.08,-3.08,-3.0833,-3.0898,0.0,-2.9937,0.0,0.0,-3.006,0.0,-3.0235,-3.0285,-3.0291,-3.0247,-3.0292,-3.0327,-3.0364,-3.0511,-3.0604,-3.0621,-3.0665,-3.0697,-3.0704,-3.0704,-3.0717,-3.0728,-3.0712,-3.0742,-3.0799,-3.0806,-3.0777,0.0,0.0,0.0,0.0,0.0,0.0,0.0,0.0,0.0,0.0,0.0,-3.0793,-3.0798,-3.0798,-3.0798,-3.08,-3.0798,-3.079,-3.0807,-3.0792,-3.0801,-3.0786,-3.0742,-3.0714,-3.0726,-3.078,-3.08,-3.0798,-3.0805,-3.0799,-3.0799,-3.08,-3.08,-3.08,-3.08,-3.08,-3.08,-3.08,-3.08,-3.08,-3.08,-3.0795,-3.076,-3.0697,-3.0667,0.0,0.0,0.0,0.0,0.0,0.0,0.0,0.0,0.0,0.0,0.0,0.0,0.0,0.0,0.0,0.0,0.0,0.0,0.0,0.0,0.0,-3.248,-3.3125,0.0,-3.4414,-3.4414,-3.3555,-3.3144,-3.3086,-3.1582,-3.1269,-3.1894,-3.1191,-3.0898,-3.0898,-3.0898,-3.0877,-3.0827,-3.0827,-3.0827,-3.0827,-3.0827,-3.0855,-3.0898,0.0,0.0,0.0,0.0,0.0,0.0,0.0,-3.0392,-3.0392,-3.0381,-3.0386,-3.0442,-3.0554,-3.0591,-3.0625,-3.068,-3.071,-3.0707,-3.0697,-3.0697,-3.0731,-3.0796,-3.0796,-3.0799,-3.0801,-3.0804,-3.0804,0.0,0.0,0.0,0.0,0.0,0.0,0.0,0.0,0.0,0.0,-3.0794,-3.0804,-3.0796,-3.0796,-3.08,-3.0806,-3.0799,-3.0801,-3.0807,-3.0801,-3.08,-3.0805,-3.0798,-3.0781,-3.0781,-3.08,-3.0793,-3.0798,-3.0794,-3.0794,-3.0795,-3.0799,-3.08,-3.08,-3.08,-3.08,-3.08,-3.08,-3.08,-3.08,-3.08,-3.0753,-3.0698,-3.0613,-3.057,-3.0534,0.0,0.0,0.0,0.0,0.0,0.0,0.0,0.0,0.0,0.0,0.0,0.0,0.0,0.0,0.0,0.0,0.0,0.0,-3.0897,0.0,-3.2147,-3.2225,-3.3085,-3.3515,-3.3515,-3.2695,-3.2305,-3.2285,-3.1328,-3.0937,-3.1016,-3.0937,-3.0898,-3.0898,-3.0898,-3.0898,-3.0898,-3.0898,-3.0898,-3.0898,-3.0898,-3.0898,-3.0898,0.0,0.0,0.0,0.0,0.0,0.0,0.0,-3.0516,-3.0534,-3.0574,-3.0543,-3.0549,-3.0595,-3.0633,-3.0676,-3.0701,-3.0704,-3.0716,-3.0764,-3.0767,-3.0779,-3.0804,-3.0804,-3.079,-3.0801,-3.0809,-3.0804,0.0,0.0,0.0,0.0,0.0,0.0,0.0,0.0,-3.0764,-3.0794,-3.0791,-3.0795,-3.08,-3.08,-3.08,-3.08,-3.08,-3.0801,-3.0801,-3.08,-3.08,-3.0798,-3.0793,-3.0797,-3.08,-3.0794,-3.0805,-3.0798,-3.0798,-3.0798,-3.0798,-3.08,-3.08,-3.08,-3.08,-3.08,-3.08,-3.08,-3.08,-3.0796,-3.0758,-3.0655,-3.0563,-3.0543,-3.0496,-3.0451,0.0,0.0,0.0,0.0,0.0,0.0,0.0,0.0,0.0,0.0,0.0,0.0,0.0,0.0,0.0,0.0,0.0,0.0,-3.0895,0.0,-3.2107,-3.2107,-3.2966,-3.3142,-3.2614,-3.2283,-3.1893,-3.1405,-3.1053,-3.0897,-3.0897,-3.0898,-3.0898,-3.0898,-3.0898,-3.0898,-3.0898,-3.0898,-3.0898,-3.0898,-3.0898,-3.0898,-3.0898,-3.0392,0.0,-3.0462,0.0,-3.0482,-3.0519,-3.0618,-3.0626,-3.0645,-3.0717,-3.069,-3.0661,-3.063,-3.0694,-3.073,-3.0731,-3.0734,-3.0747,-3.0791,-3.0793,-3.0804,-3.0804,-3.0806,0.0,-3.08,-3.08,-3.0796,-3.0806,-3.0804,0.0,0.0,0.0,0.0,0.0,-3.0799,-3.0794,-3.08,-3.0801,-3.08,-3.0797,-3.0797,-3.0796,-3.0795,-3.0793,-3.0791,-3.0806,-3.0798,-3.0792,-3.0809,-3.0809,-3.0805,-3.0796,-3.0804,-3.0799,-3.0799,-3.0799,-3.0799,-3.0799,-3.08,-3.0799,-3.0799,-3.0799,-3.0799,-3.0799,-3.0799,-3.0773,-3.0732,-3.0622,-3.0535,-3.046,-3.0428,-3.0367,-3.0339,-3.0323,0.0,0.0,0.0,0.0,0.0,0.0,0.0,-3.0333,-3.0462,0.0,0.0,0.0,0.0,0.0,0.0,0.0,0.0,0.0,0.0,0.0,0.0,-3.2358,-3.2358,-3.1752,-3.1753,-3.1441,-3.0894,-3.0894,-3.0894,-3.0895,-3.0897,-3.0897,-3.0897,-3.0898,-3.0898,-3.0898,-3.0898,-3.0898,-3.0898,-3.0898,-3.0897,-3.0896,-3.0402,-3.0506,-3.06,-3.06,-3.0653,-3.0704,-3.0697,-3.07,-3.0712,-3.0796,-3.0799,-3.0769,-3.0703,-3.0764,-3.0799,-3.0799,-3.0799,-3.0791,-3.0796,-3.0798,-3.0806,0.0,0.0,-3.08,-3.08,-3.08,-3.08,-3.08,0.0,0.0,-3.0798,0.0,-3.0799,-3.0791,-3.08,-3.08,-3.0797,-3.0797,-3.0797,-3.0797,-3.0797,-3.081,-3.0794,-3.0799,-3.0807,-3.0804,-3.0796,-3.0799,-3.0799,-3.0799,-3.0799,-3.0801,-3.0791,-3.0792,-3.0792,-3.0792,-3.0792,-3.0794,-3.0799,-3.0796,-3.0792,-3.0792,-3.0792,-3.0792,-3.0792,-3.0745,-3.063,-3.0438,-3.04,-3.0358,-3.0221,-3.0195,-3.0241,-3.0375,0.0,0.0,0.0,0.0,0.0,0.0,-3.0305,-3.0336,-3.0385,0.0,0.0,0.0,0.0,0.0,0.0,0.0,0.0,-3.0907,-3.0907,0.0,-3.0907,-3.0927,-3.0927,-3.0907,-3.0912,-3.0914,-3.0894,-3.0894,-3.0894,-3.0894,-3.0894,-3.0894,-3.0894,-3.0894,-3.0894,-3.0894,-3.0894,-3.0894,-3.0894,-3.0894,-3.0894,-3.0894,-3.0606,-3.0634,-3.0665,-3.0665,-3.0681,-3.0691,-3.07,-3.0737,-3.0772,-3.0799,-3.0798,-3.0786,-3.0778,-3.0789,-3.0808,0.0,-3.0808,-3.0796,0.0,-3.0795,-3.0796,-3.08,-3.08,-3.08,-3.08,-3.08,-3.08,-3.08,0.0,0.0,0.0,-3.0795,-3.0801,-3.0794,-3.0798,-3.0809,-3.0796,-3.0796,-3.0794,-3.0796,-3.0796,-3.0794,-3.0792,-3.0806,-3.0808,-3.0792,-3.0808,-3.0792,-3.0798,-3.0798,-3.0798,-3.0799,-3.0803,-3.0803,-3.0803,-3.0803,-3.0803,-3.0804,-3.0806,-3.0804,-3.0803,-3.0803,-3.0763,-3.0738,-3.0738,-3.0616,-3.0476,-3.0404,-3.0333,-3.0248,-3.0221,-3.0194,-3.0219,-3.0266,-3.0233,0.0,0.0,0.0,0.0,0.0,0.0,-3.026,0.0,-3.0433,0.0,0.0,0.0,0.0,0.0,0.0,0.0,0.0,-3.1136,0.0,-3.1703,-3.1136,-3.0823,-3.0823,-3.0825,-3.0826,-3.0826,-3.0889,-3.0889,-3.0826,-3.0873,-3.0893,-3.089,-3.0893,-3.0894,-3.0894,-3.0894,-3.0894,-3.0894,-3.0894,-3.0893,-3.089,-3.0687,-3.0694,-3.0697,-3.0691,-3.0707,-3.0709,-3.0733,-3.0767,-3.08,-3.0806,-3.0799,-3.0807,-3.0807,-3.0796,0.0,-3.0806,-3.0807,-3.0792,-3.08,-3.08,-3.08,-3.08,-3.08,-3.08,-3.08,0.0,0.0,-3.079,-3.081,-3.0794,-3.0799,-3.08,-3.0791,-3.0792,-3.0798,-3.0801,-3.0801,-3.0808,-3.0804,-3.0801,-3.0801,-3.0806,-3.0793,-3.0804,-3.0791,-3.0804,-3.0798,-3.08,-3.0806,-3.0806,-3.0806,-3.0806,-3.0806,-3.0806,-3.0808,-3.0796,-3.0798,-3.0798,-3.0798,-3.0784,-3.0767,-3.0767,-3.0686,-3.0628,-3.0595,-3.0482,-3.0389,-3.0333,-3.0254,-3.0194,-3.0194,-3.0199,-3.0211,-3.0211,-3.0211,-3.0211,-3.0211,0.0,0.0,0.0,0.0,0.0,0.0,-3.0383,0.0,0.0,0.0,0.0,0.0,0.0,0.0,-3.207,-3.1895,0.0,-3.2091,-3.1563,-3.1114,-3.08,-3.1133,-3.1289,-3.1309,-3.1664,-3.1644,-3.1289,-3.1337,-3.1162,-3.0865,-3.0869,-3.085,-3.085,-3.085,-3.085,-3.085,-3.085,-3.0868,-3.0865,-3.0697,-3.0697,0.0,0.0,-3.0706,0.0,-3.0792,-3.0799,-3.0806,-3.0799,-3.08,-3.08,-3.08,-3.08,-3.08,-3.08,0.0,0.0,0.0,-3.08,-3.0801,-3.0803,-3.0803,-3.0803,-3.0805,-3.0797,-3.08,-3.08,-3.0799,-3.0795,-3.0795,-3.08,-3.0809,-3.0809,-3.0798,-3.0801,-3.0801,-3.0801,-3.0801,-3.0801,-3.0801,-3.0801,-3.0801,-3.0801,-3.0801,-3.0801,-3.0801,-3.0801,-3.0801,-3.0801,-3.0801,-3.0801,-3.0801,-3.0799,-3.0782,-3.081,-3.0796,-3.0796,-3.0792,-3.073,-3.0691,-3.0685,-3.0591,-3.0462,-3.0409,-3.0381,-3.0359,-3.0226,-3.0211,-3.0211,-3.0211,-3.0211,-3.0211,-3.0211,-3.0211,-3.0211,-3.0211,0.0,0.0,0.0,0.0,0.0,0.0,-3.0298,-3.0344,0.0,0.0,0.0,0.0,0.0,-3.2045,-3.2161,-3.2961,-3.2961,-3.2085,-3.2086,-3.1658,-3.08,-3.1621,-3.2032,-3.213,-3.2949,-3.291,-3.2187,-3.2187,-3.1699,-3.0898,-3.0898,-3.0859,-3.08,-3.08,-3.08,-3.08,-3.08,-3.08,-3.08,0.0,0.0,-3.0719,-3.0767,-3.0772,-3.0786,-3.0798,-3.0809,-3.0798,-3.08,-3.08,-3.08,-3.08,-3.08,-3.08,-3.08,-3.08,-3.08,-3.08,-3.08,-3.0807,-3.0797,-3.0797,-3.0799,-3.0801,-3.08,-3.0799,-3.0799,-3.0809,-3.08,-3.08,-3.0792,-3.0795,-3.0795,-3.0806,-3.0801,-3.0801,-3.0801,-3.0801,-3.0801,-3.0801,-3.0801,-3.0801,-3.0801,-3.0801,-3.0801,-3.0801,-3.0801,-3.0801,-3.0801,-3.0801,-3.0801,-3.0801,-3.0734,-3.0668,-3.0777,-3.0791,-3.0782,-3.0684,-3.0636,-3.0605,-3.0559,-3.0443,-3.0331,-3.026,-3.0253,-3.024,-3.0218,-3.0211,-3.0211,-3.0211,-3.0211,-3.0211,-3.0211,-3.0211,-3.0211,-3.0211,-3.0211,0.0,0.0,-3.0199,-3.0206,-3.0226,-3.0273,-3.0299,0.0,0.0,0.0,0.0,-3.1478,-3.219,-3.2915,-3.3142,-3.283,-3.1968,-3.2007,-3.1611,-3.08,-3.1015,-3.1465,-3.211,-3.2304,-3.2656,-3.3084,-3.3084,-3.2597,-3.1797,-3.1797,-3.1407,-3.08,-3.08,-3.08,-3.08,-3.08,-3.08,-3.08,-3.0756,-3.0739,-3.0769,-3.0795,-3.079,-3.0801,-3.0809,-3.0796,-3.08,-3.08,-3.08,-3.08,-3.08,-3.0808,-3.0792,-3.0792,-3.0805,-3.0804,-3.0792,-3.0792,-3.0797,-3.0801,-3.0801,-3.08,-3.0797,-3.0792,-3.0804,-3.0794,-3.0799,-3.0792,-3.0792,-3.0791,-3.0801,-3.0801,-3.0801,-3.0801,-3.0801,-3.0801,-3.0801,-3.0801,-3.0801,-3.0801,-3.0801,-3.0801,-3.0801,-3.0801,-3.0801,-3.0767,-3.0706,-3.0706,-3.0685,-3.0658,-3.0658,-3.061,-3.0568,-3.0648,-3.0658,-3.0648,-3.0568,-3.0507,-3.0448,-3.0378,-3.0316,-3.0241,-3.0206,-3.0211,-3.0211,-3.0211,-3.0211,-3.0211,-3.0211,-3.0211,-3.0211,-3.0211,-3.0211,-3.0211,-3.0211,-3.0211,0.0,-3.0211,-3.0211,-3.0192,-3.0206,-3.0221,-3.0273,-3.0305,0.0,0.0,-3.0984,-3.1447,-3.1975,-3.259,-3.2982,-3.2788,-3.1921,-3.1544,-3.1148,-3.0713,-3.1527,-3.2131,-3.262,-3.3397,-3.3787,-3.3846,-3.3478,-3.2815,-3.198,-3.1613,-3.1172,-3.0764,-3.0796,-3.08,-3.0799,-3.0767,-3.0742,-3.0758,-3.0806,-3.0806,-3.0795,-3.0799,-3.0803,-3.0806,-3.0799,-3.08,-3.0801,-3.0805,-3.0805,-3.0806,-3.0808,-3.0798,-3.08,-3.08,-3.0795,-3.0793,-3.08,-3.08,-3.0801,-3.0795,-3.0795,-3.0793,-3.0792,-3.0796,-3.0794,-3.0801,-3.0801,-3.0801,-3.0801,-3.0801,-3.0801,-3.0801,-3.0801,-3.0801,-3.0801,-3.0801,-3.0801,-3.0799,-3.0772,-3.0769,-3.0769,-3.0759,-3.0756,-3.0756,-3.0756,-3.0685,-3.0575,-3.0575,-3.0548,-3.0501,-3.0501,-3.0487,-3.0477,-3.0477,-3.0462,-3.0457,-3.0472,-3.0375,-3.0273,-3.0219,-3.0211,-3.0211,-3.0211,-3.0211,-3.0211,-3.0211,-3.0211,-3.0211,-3.0211,-3.0211,-3.0211,-3.0211,-3.0211,-3.0211,-3.0211,0.0,-3.0211,-3.0211,-3.0211,-3.0199,-3.02,-3.0207,-3.0227,-3.0279,-3.0286,-3.0612,-3.136,-3.1411,-3.1484,-3.1654,-3.2621,-3.2745,-3.188,-3.1025,-3.0582,-3.0613,-3.2225,-3.3079,-3.3254,-3.4804,-3.5169,-3.4548,-3.3759,-3.2905,-3.2031,-3.122,-3.0794,-3.0682,-3.0757,-3.0846,-3.0939,-3.0752,-3.0774,-3.0845,-3.081,-3.0794,-3.0799,-3.0795,-3.0798,-3.0798,-3.08,-3.08,-3.0806,-3.0797,-3.0798,-3.08,-3.08,-3.0799,-3.0798,-3.0798,-3.0799,-3.0799,-3.0798,-3.0798,-3.0795,-3.0799,-3.0798,-3.0807,-3.08,-3.0793,-3.0806,-3.0801,-3.0801,-3.0801,-3.0801,-3.0801,-3.0801,-3.0801,-3.0801,-3.0801,-3.0801,-3.0801,-3.0801,-3.0796,-3.0671,-3.063,-3.0623,-3.0571,-3.0542,-3.0542,-3.0542,-3.0533,-3.0524,-3.0524,-3.051,-3.0501,-3.0501,-3.0418,-3.0331,-3.0331,-3.0285,-3.026,-3.0327,-3.0266,-3.0213,-3.0192,-3.0211,-3.0211,-3.0211,-3.0211,-3.0211,-3.0211,-3.0211,-3.0211,-3.0211,-3.0211,-3.0211,-3.0211,-3.0211,-3.0211,-3.0211,0.0,-3.0211,-3.0211,-3.0211,-3.0192,-3.0192,-3.0194,-3.0195,-3.0221,-3.0273,-3.035,-3.0491,-3.0503,-3.0529,-3.0546,-3.2115,-3.2571,-3.1816,-3.095,-3.0543,-3.0613,-3.1619,-3.2493,-3.3235,-3.4159,-3.4936,-3.5445,-3.4661,-3.3806,-3.2924,-3.2064,-3.1274,-3.0614,-3.0623,-3.107,-3.1631,-3.0886,-3.1077,-3.1617,-3.0809,-3.0791,-3.0794,-3.0799,-3.0808,-3.0793,-3.0793,-3.0798,-3.08,-3.0801,-3.08,-3.08,-3.0797,-3.0791,-3.0806,-3.0806,-3.0795,-3.0807,-3.0807,-3.08,-3.0798,-3.081,-3.0808,-3.08,-3.0801,-3.0801,-3.0801,-3.0801,-3.0801,-3.0801,-3.0801,-3.0801,-3.0801,-3.0801,-3.0801,-3.0801,-3.0799,-3.0712,-3.0697,-3.0675,-3.0579,-3.0548,-3.0543,-3.0515,-3.0501,-3.0501,-3.0501,-3.0443,-3.0392,-3.0392,-3.0373,-3.034,-3.034,-3.0298,-3.0241,-3.0241,-3.0221,-3.0206,-3.0247,-3.0221,-3.0211,-3.0211,-3.0211,-3.0211,-3.0211,-3.0211,-3.0211,-3.0211,-3.0211,-3.0211,-3.0211,-3.0211,-3.0164,-3.0049,-3.0034,0.0,0.0,-3.0034,-3.0072,-3.0197,-3.0211,-3.0211,-3.0211,-3.0199,-3.0206,-3.0206,-3.0226,-3.024,-3.026,-3.0246,-3.0246,-3.026,-3.1066,-3.1335,-3.1003,-3.0598,-3.0414,-3.0447,-3.1316,-3.2185,-3.301,-3.3859,-3.4463,-3.4797,-3.3989,-3.3144,-3.228,-3.1476,-3.0916,-3.0552,-3.0598,-3.0846,-3.1149,-3.0719,-3.08,-3.1082,-3.0792,-3.0792,-3.0792,-3.0792,-3.0798,-3.0801,-3.0801,-3.08,-3.0796,-3.0793,-3.0793,-3.0792,-3.0808,-3.0794,-3.0803,-3.0803,-3.08,-3.0801,-3.0801,-3.0808,-3.0792,-3.0801,-3.0801,-3.0801,-3.0801,-3.0801,-3.0801,-3.0801,-3.0801,-3.0801,-3.0801,-3.0769,-3.0745,-3.0742,-3.0748,-3.0722,-3.0719,-3.0609,-3.0587,-3.0579,-3.0486,-3.0443,-3.0457,-3.0437,-3.0427,-3.0427,-3.0427,-3.0367,-3.0279,-3.0279,-3.0235,-3.0211,-3.0211,-3.0211,-3.0211,-3.0211,-3.0211,-3.0211,-3.0211,-3.0211,-3.0211,-3.0211,-3.0211,-3.0211,-3.0211,-3.0211,-3.0211,-3.0211,-3.0211,-3.0211,-3.0211,-3.0157,-3.0072,-2.994,0.0,0.0,0.0,-2.983,-2.9888,-3.0042,-3.0094,-3.0135,-3.0135,-3.0164,-3.0211,-3.0211,-3.0211,-3.0199,-3.02,-3.0199,-3.0199,-3.02,-3.026,-3.0279,-3.0292,-3.0292,-3.0292,-3.0312,-3.1366,-3.2095,-3.2555,-3.3801,-3.428,-3.4076,-3.3452,-3.2679,-3.1828,-3.1075,-3.0635,-3.0452,-3.0513,-3.066,-3.0802,-3.0554,-3.0577,-3.0721,-3.0798,-3.0798,-3.0798,-3.0798,-3.0798,-3.0798,-3.0798,-3.0797,-3.0793,-3.0798,-3.0795,-3.0806,-3.0793,-3.0806,-3.0806,-3.0806,-3.0801,-3.0801,-3.0801,-3.0804,-3.0804,-3.0801,-3.0801,-3.0801,-3.0801,-3.0801,-3.0801,-3.0801,-3.0801,-3.0801,-3.0799,-3.0668,-3.0603,-3.062,-3.0539,-3.0519,-3.0519,-3.0515,-3.051,-3.0501,-3.037,-3.0319,-3.0308,-3.0247,-3.0219,-3.0219,-3.0219,-3.0213,-3.0206,-3.0206,-3.0199,-3.0211,-3.0211,-3.0211,-3.0211,-3.0211,-3.0211,-3.0211,-3.0211,-3.0211,-3.0211,-3.0211,-3.0211,-3.0211,-3.0211,-3.0211,-3.0211,-3.0211,-3.0211,-3.0211,-3.0211,-3.0042,-2.9932,-2.9897,0.0,0.0,-2.9626,-2.9626,-2.9635,-2.9644,-2.9813,-2.9913,-2.9913,-3.0079,-3.0211,-3.0211,-3.0211,-3.0211,-3.0192,-3.0211,-3.0211,-3.0192,-3.02,-3.0234,-3.0312,-3.0292,-3.0292,-3.0331,-3.1941,-3.2344,-3.1775,-3.4127,-3.4798,-3.4096,-3.4038,-3.352,-3.2651,-3.1852,-3.1034,-3.0311,-3.0324,-3.081,-3.1431,-3.0606,-3.0836,-3.1392,-3.0699,-3.0797,-3.0797,-3.0797,-3.0791,-3.0804,-3.0804,-3.0792,-3.0798,-3.0806,-3.0752,-3.0738,-3.0739,-3.0742,-3.073,-3.073,-3.073,-3.073,-3.073,-3.073,-3.0767,-3.0799,-3.133,-3.1349,-3.0801,-3.0801,-3.0801,-3.0801,-3.0728,-3.0671,-3.0668,-3.0544,-3.0507,-3.0535,-3.0467,-3.0443,-3.0438,-3.0383,-3.0389,-3.0367,-3.0273,-3.0247,-3.0241,-3.0206,-3.0211,-3.0211,-3.0211,-3.0211,-3.0211,-3.0211,-3.0211,-3.0211,-3.0211,-3.0211,-3.0211,-3.0211,-3.0211,-3.0164,-3.0042,-3.0113,-3.0211,-3.0211,-3.0211,-3.0211,-3.0211,-3.0211,-3.0164,-3.0034,-3.0019,-2.9988,-2.9845,-2.976,-2.9672,-2.9551,0.0,-2.9415,-2.9415,-2.9415,-2.9465,-2.9589,-2.9672,-2.9707,-2.9707,-2.9777,-2.9888,-3.0011,-3.0019,-3.0064,-3.0185,-3.0211,-3.0211,-3.0211,-3.0715,-3.0767,-3.0245,-3.0762,-3.1049,-3.1068,-3.219,-3.2866,-3.3103,-3.3498,-3.3823,-3.4003,-3.3508,-3.2807,-3.1964,-3.171,-3.1091,-3.0292,-3.0292,-3.0503,-3.0752,-3.0427,-3.0503,-3.0759,-3.0627,-3.0803,-3.0803,-3.0803,-3.0791,-3.0798,-3.0773,-3.0769,-3.0767,-3.0778,-3.0739,-3.0707,-3.0707,-3.0707,-3.0694,-3.0694,-3.0694,-3.0694,-3.0694,-3.0966,-3.1006,-3.0776,-3.1596,-3.166,-3.0789,-3.0728,-3.0719,-3.0748,-3.0598,-3.0536,-3.0536,-3.0404,-3.0353,-3.0402,-3.0334,-3.0312,-3.0306,-3.0266,-3.0228,-3.0235,-3.0192,-3.019,-3.0204,-3.0171,-3.0178,-3.0211,-3.0211,-3.0211,-3.0211,-3.0211,-3.0211,-3.0211,-3.0211,-3.0211,-3.019,-3.0049,-3.0057,-3.0057,-2.9864,-2.9905,-3.0,-3.0,-3.0,-3.0,-3.0,-3.0,-2.9969,-2.982,-2.9813,-2.976,-2.9626,-2.9551,-2.9465,-2.9324,-2.9259,-2.9206,-2.9206,-2.9206,-2.9259,-2.9395,-2.9474,-2.9513,-2.9513,-2.957,-2.9662,-2.9805,-2.9813,-2.9897,-3.0106,-3.0164,-3.0326,-3.0605,-3.1197,-3.1331,-3.0987,-3.158,-3.1885,-3.1885,-3.2699,-3.328,-3.3586,-3.352,-3.3681,-3.3975,-3.3693,-3.2916,-3.1883,-3.1924,-3.1287,-3.0279,-3.0279,-3.0279,-3.0279,-3.0279,-3.0279,-3.0266,-3.0626,-3.0801,-3.0801,-3.0801,-3.0799,-3.0772,-3.0706,-3.07,-3.0691,-3.0697,-3.0694,-3.0694,-3.0694,-3.0694,-3.0694,-3.0694,-3.0694,-3.069,-3.069,-3.151,-3.1607,-3.0729,-3.1522,-3.1598,-3.0719,-3.0576,-3.052,-3.0599,-3.0467,-3.0402,-3.0402,-3.0253,-3.0209,-3.0203,-3.0123,-3.0095,-3.0095,-3.0095,-3.0098,-3.0101,-3.0091,-3.014,-3.0185,-3.0142,-3.013,-3.0204,-3.0204,-3.0204,-3.0204,-3.0211,-3.0204,-3.0204,-3.0185,-3.0185,-3.0128,-2.9716,-2.9734,-2.9855,-2.9653,-2.9598,-2.9598,-2.9608,-2.9608,-2.9608,-2.9608,-2.9608,-2.9608,-2.9598,-2.9598,-2.9598,-2.9598,-2.9435,-2.9293,-2.9293,-2.9127,-2.9005,-2.9005,-2.9005,-2.9005,-2.9005,-2.9163,-2.9293,-2.9293,-2.9484,-2.9598,-2.9598,-2.9608,-2.9689,-2.988,-3.0098,-3.0605,-3.1465,-3.1515,-3.1897,-3.2691,-3.2718,-3.2718,-3.2718,-3.3586,-3.3566,-3.2776,-3.4437,-3.4751,-3.4052,-3.4846,-3.4246,-3.2699,-3.2699,-3.1706,-3.0211,-3.0211,-3.0211,-3.0211,-3.0211,-3.0211,-3.0211,-3.0509,-3.0767,-3.0734,-3.0734,-3.0736,-3.072,-3.0711,-3.0707,-3.0704,-3.0694,-3.0665,-3.0626,-3.0626,-3.0621,-3.0623,-3.0623,-3.0623,-3.0582,-3.0506,-3.1226,-3.1289,-3.0455,-3.1342,-3.1431,-3.0519,-3.0443,-3.0448,-3.0463,-3.0323,-3.0253,-3.0272,-3.0121,-3.0075,-3.0123,-3.0061,-3.003,-3.003,-3.0087,-3.0068,-3.0026,-3.0087,-3.011,-3.0132,-3.0117,-3.0113,-3.0123,-3.0123,-3.0123,-3.015,-3.0178,-3.0038,-2.9826,-2.9678,-2.967,-2.9697,-2.9579,-2.9561,-2.9589,-2.9367,-2.9285,-2.9316,-2.9533,-2.9608,-2.9608,-2.9608,-2.9608,-2.957,-2.9425,-2.9395,-2.9334,-2.9134,-2.9052,-2.8996,-2.8957,-2.8952,-2.8917,-2.8876,-2.8893,-2.8917,-2.8876,-2.8899,-2.8957,-2.8957,-2.8996,-2.913,-2.9314,-2.9485,-2.9626,-2.9689,-3.0281,-3.083,-3.1284,-3.2258,-3.2665,-3.2492,-3.3244,-3.3605,-3.3624,-3.4445,-3.4713,-3.4456,-3.4388,-3.4541,-3.4827,-3.4503,-3.3738,-3.2699,-3.2699,-3.1706,-3.0211,-3.0211,-3.0211,-3.0211,-3.0211,-3.0211,-3.0192,-3.0332,-3.0628,-3.0579,-3.0579,-3.0579,-3.0574,-3.0557,-3.0537,-3.0548,-3.0544,-3.0511,-3.0472,-3.0472,-3.0479,-3.0483,-3.0483,-3.0483,-3.0461,-3.0365,-3.0785,-3.0771,-3.0245,-3.0796,-3.089,-3.037,-3.0308,-3.029,-3.0319,-3.0163,-3.008,-3.008,-3.0,-2.9972,-3.0022,-2.9972,-2.9956,-2.9964,-2.9988,-3.0014,-3.0007,-3.0022,-3.0046,-3.0087,-2.9991,-2.9937,-2.9934,-2.9851,-2.9826,-2.9834,-2.9859,-2.9739,-2.9542,-2.9339,-2.9359,-2.9437,-2.9266,-2.9277,-2.9297,-2.909,-2.9,-2.9034,-2.9241,-2.9293,-2.9293,-2.9293,-2.9293,-2.9251,-2.913,-2.9108,-2.9052,-2.8893,-2.8858,-2.8846,-2.8798,-2.8834,-2.8846,-2.8798,-2.8834,-2.8846,-2.8798,-2.8798,-2.8925,-2.9235,-2.9271,-2.9338,-2.949,-2.9736,-2.9882,-2.9882,-3.0727,-3.1296,-3.1506,-3.2341,-3.2614,-3.2288,-3.3239,-3.3729,-3.3729,-3.4223,-3.4486,-3.4566,-3.4414,-3.4494,-3.4713,-3.4541,-3.4006,-3.3196,-3.2833,-3.1897,-3.0643,-3.0319,-3.0211,-3.0211,-3.0211,-3.0211,-3.0185,-3.0064,-3.0376,-3.0397,-3.0397,-3.0392,-3.037,-3.03,-3.0294,-3.0309,-3.0299,-3.0292,-3.0292,-3.0292,-3.0292,-3.0292,-3.0292,-3.0279,-3.0273,-3.0273,-3.0266,-3.0219,-3.0094,-3.0087,-3.0135,-3.0265,-3.0142,-3.0104,-3.0162,-2.9992,-2.9897,-2.9897,-2.9897,-2.9897,-2.9897,-2.9897,-2.9888,-2.9872,-2.9872,-2.9907,-2.9932,-2.9864,-2.9924,-3.0007,-2.9761,-2.9662,-2.9652,-2.9457,-2.9389,-2.9389,-2.9359,-2.9359,-2.9319,-2.9118,-2.9193,-2.9277,-2.891,-2.8927,-2.9016,-2.8839,-2.8785,-2.8773,-2.8773,-2.8773,-2.8804,-2.8785,-2.8798,-2.8798,-2.8798,-2.8798,-2.8798,-2.8785,-2.884,-2.8877,-2.8792,-2.8858,-2.8877,-2.8792,-2.8785,-2.8785,-2.8773,-2.8846,-2.9186,-2.9909,-2.9995,-2.9995,-2.9995,-3.0093,-3.0167,-3.0167,-3.118,-3.1837,-3.1973,-3.2027,-3.2088,-3.2171,-3.2795,-3.3181,-3.3298,-3.3373,-3.3475,-3.361,-3.4406,-3.4451,-3.3985,-3.4702,-3.4606,-3.387,-3.3004,-3.2119,-3.1268,-3.0448,-3.015,-3.015,-3.015,-3.015,-3.0128,-2.9207,-2.9904,-3.0323,-3.0323,-3.0315,-3.0311,-3.0299,-3.0292,-3.0311,-3.0292,-3.0292,-3.0292,-3.0292,-3.0292,-3.0292,-3.0292,-3.0194,-3.0138,-3.0138,-3.0057,-2.9969,-2.9937,-2.9937,-2.9961,-2.9988,-2.9961,-2.9945,-2.9969,-2.9921,-2.9897,-2.9897,-2.9897,-2.9897,-2.9897,-2.9897,-2.9822,-2.9662,-2.9662,-2.9589,-2.9455,-2.9445,-2.9455,-2.9474,-2.9415,-2.9397,-2.9379,-2.9339,-2.9319,-2.9289,-2.9144,-2.909,-2.9031,-2.8797,-2.8773,-2.8827,-2.8743,-2.8755,-2.8773,-2.8731,-2.8687,-2.8637,-2.8637,-2.8637,-2.8675,-2.8773,-2.8798,-2.8798,-2.8798,-2.8798,-2.8785,-2.8737,-2.9233,-2.9439,-2.8759,-2.9214,-2.9408,-2.8741,-2.8687,-2.8712,-2.865,-2.9194,-2.9642,-2.9823,-2.988,-2.9906,-2.9906,-2.9424,-2.9143,-2.9202,-3.0607,-3.1537,-3.1823,-3.2212,-3.249,-3.2734,-3.201,-3.2198,-3.3317,-3.3926,-3.3939,-3.3369,-3.3558,-3.3588,-3.3458,-3.3647,-3.3599,-3.3382,-3.2581,-3.1723,-3.0847,-3.0045,-2.9734,-2.9734,-2.9734,-2.9734,-2.9707,-2.8839,-2.9289,-2.953,-2.953,-2.9534,-2.9544,-2.9544,-2.9868,-3.0109,-3.0109,-3.0109,-3.0109,-3.0109,-3.0109,-3.0109,-3.0109,-3.0057,-2.9992,-2.9992,-2.9929,-2.9897,-2.9897,-2.9897,-2.9897,-2.9897,-2.9897,-2.9897,-2.9897,-2.9897,-2.9897,-2.9888,-2.9813,-2.977,-2.9742,-2.9662,-2.9561,-2.9465,-2.9465,-2.9405,-2.9304,-2.9304,-2.9304,-2.9283,-2.9188,-2.9155,-2.9137,-2.9016,-2.8971,-2.8948,-2.8833,-2.8815,-2.8767,-2.8632,-2.8625,-2.8644,-2.8644,-2.8644,-2.8644,-2.8644,-2.8625,-2.86,-2.86,-2.86,-2.8612,-2.8687,-2.87,-2.87,-2.87,-2.87,-2.8809,-2.9165,-2.9243,-2.9266,-2.9174,-2.9236,-2.9109,-2.8654,-2.8637,-2.865,-2.86,-2.93,-2.9947,-3.0346,-3.0753,-3.0676,-2.9914,-3.0212,-3.027,-2.9926,-3.1419,-3.2232,-3.2084,-3.2324,-3.2347,-3.2139,-3.1931,-3.2186,-3.2929,-3.3337,-3.3173,-3.2512,-3.3359,-3.3566,-3.3325,-3.37,-3.3644,-3.325,-3.2424,-3.1616,-3.0772,-2.9927,-2.9608,-2.9608,-2.9608,-2.9542,-2.9445,-2.8289,-2.8476,-2.8495,-2.8495,-2.8495,-2.8532,-2.8684,-2.9271,-2.9745,-2.9878,-2.9897,-2.9897,-2.9897,-2.9897,-2.9897,-2.9897,-2.9897,-2.9897,-2.9897,-2.9897,-2.9897,-2.9897,-2.9897,-2.9897,-2.9897,-2.9864,-2.9847,-2.9847,-2.9847,-2.9839,-2.9786,-2.9626,-2.9551,-2.9551,-2.9375,-2.9283,-2.9241,-2.9241,-2.922,-2.9177,-2.9177,-2.9177,-2.9155,-2.9003,-2.8934,-2.8899,-2.8687,-2.86,-2.86,-2.86,-2.86,-2.86,-2.86,-2.86,-2.86,-2.86,-2.86,-2.86,-2.86,-2.86,-2.86,-2.86,-2.86,-2.86,-2.86,-2.86,-2.86,-2.86,-2.86,-2.8799,-2.9463,-2.9156,-2.898,-2.9513,-2.9156,-2.8763,-2.8618,-2.8726,-2.8799,-2.8799,-2.9644,-3.0527,-3.1329,-3.189,-3.1636,-3.031,-3.1324,-3.1705,-3.1048,-3.2411,-3.3031,-3.2611,-3.2466,-3.2219,-3.1884,-3.2273,-3.2461,-3.2461,-3.2602,-3.2349,-3.1812,-3.3265,-3.365,-3.3216,-3.3732,-3.3668,-3.3106,-3.2171,-3.1385,-3.0692,-2.9822,-2.9504,-2.9504,-2.9504,-2.9395,-2.9259,-2.6541,-2.716,-2.7657,-2.7657,-2.7657,-2.7904,-2.8589,-2.8798,-2.912,-2.9821,-2.9897,-2.9897,-2.9897,-2.9897,-2.9897,-2.9897,-2.9897,-2.9897,-2.9897,-2.9897,-2.9897,-2.9897,-2.9897,-2.9897,-2.9897,-2.9725,-2.9644,-2.9644,-2.9644,-2.9561,-2.9385,-2.9355,-2.9345,-2.9345,-2.9314,-2.9198,-2.9048,-2.9048,-2.891,-2.8682,-2.8682,-2.8682,-2.8682,-2.8662,-2.865,-2.865,-2.8612,-2.86,-2.86,-2.86,-2.86,-2.86,-2.86,-2.86,-2.86,-2.86,-2.86,-2.86,-2.86,-2.86,-2.86,-2.86,-2.86,-2.86,-2.86,-2.86,-2.86,-2.86,-2.86,-2.8636,-2.8744,-2.9246,-2.9445,-2.8853,-2.9246,-2.9391,-2.8708,-2.9192,-2.9639,-2.9639,-3.0948,-3.218,-3.2995,-3.2542,-3.2107,-3.189,-3.1419,-3.1139,-3.1102,-3.1951,-3.2756,-3.3409,-3.2711,-3.2924,-3.4215,-3.2904,-3.224,-3.224,-3.3001,-3.3049,-3.2474,-3.2708,-3.277,-3.2661,-3.2066,-3.2139,-3.2569,-3.109,-3.039,-3.0212,-2.9402,-2.9078,-2.9078,-2.9078,-2.9067,-2.9033,-2.6197,-2.6501,-2.6766,-2.6766,-2.6766,-2.705,-2.7896,-2.84,-2.8987,-2.9802,-2.9897,-2.9897,-2.9897,-2.9897,-2.9897,-2.9897,-2.9897,-2.9897,-2.9897,-2.9786,-2.9725,-2.9725,-2.9626,-2.9551,-2.9551,-2.9484,-2.9385,-2.9262,-2.9385,-2.9395,-2.9293,-2.9195,-2.913,-2.913,-2.8984,-2.8857,-2.8785,-2.8785,-2.8712,-2.86,-2.86,-2.86,-2.86,-2.86,-2.86,-2.86,-2.86,-2.86,-2.86,-2.86,-2.86,-2.86,-2.86,-2.86,-2.86,-2.86,-2.86,-2.86,-2.86,-2.86,-2.86,-2.86,-2.86,-2.86,-2.86,-2.86,-2.8726,-2.9174,-2.9264,-2.9536,-3.0459,-3.0183,-2.9839,-2.9934,-2.9857,-2.9676,-2.9318,-2.9952,-3.0636,-3.1089,-3.1763,-3.2343,-3.2705,-3.2814,-3.2488,-3.16,-3.2035,-3.2158,-3.1733,-3.2476,-3.3099,-3.3534,-3.316,-3.331,-3.4018,-3.3299,-3.294,-3.294,-3.3313,-3.3144,-3.2496,-3.2993,-3.3208,-3.3171,-3.2405,-3.2001,-3.1779,-3.0662,-2.9953,-2.9482,-2.9133,-2.9005,-2.9005,-2.9005,-2.9005,-2.9005]},{"header":{"parameterUnit":"m.s-1","parameterCategory":1,"la1":30.6,"la2":28.766,"lo1":-90.7593,"lo2":-88.6598,"dy":0.0162,"dx":0.0183,"nx":116,"ny":114,"refTime":"2023-07-27T06:00:00:Z","depth":0,"parameterNumber":3,"parameterNumberName":"V-component_of_WINDS"},"data":[0.0,0.0,0.0,0.0,0.0,0.0,0.0,0.0,0.0,0.0,0.0,0.0,0.0,0.0,0.0,0.0,0.0,0.0,0.0,0.0,0.0,0.0,0.0,0.0,0.0,0.0,0.0,0.0,0.0,0.0,0.0,0.0,0.0,0.0,0.0,0.0,0.0,0.0,0.0,0.0,0.0,0.0,0.0,0.0,0.0,0.0,0.0,0.0,0.0,0.0,0.0,0.0,0.0,0.0,0.0,0.0,0.0,0.0,0.0,0.0,0.0,0.0,0.0,0.0,0.0,0.0,0.0,0.0,0.0,0.0,0.0,0.0,0.0,0.0,0.0,0.0,0.0,0.0,0.0,0.0,0.0,0.0,0.0,0.0,0.0,0.0,0.0,0.0,0.0,0.0,0.0,0.0,0.0,0.0,0.0,0.0,0.0,0.0,0.0,0.0,0.0,0.0,0.0,0.0,0.0,0.0,0.0,0.0,0.0,0.0,0.0,0.0,0.0,0.0,0.0,0.0,0.0,0.0,0.0,0.0,0.0,0.0,0.0,0.0,0.0,0.0,0.0,0.0,0.0,0.0,0.0,0.0,0.0,0.0,0.0,0.0,0.0,0.0,0.0,0.0,0.0,0.0,0.0,0.0,0.0,0.0,0.0,0.0,0.0,0.0,0.0,0.0,0.0,0.0,0.0,0.0,0.0,0.0,0.0,0.0,0.0,0.0,0.0,0.0,0.0,0.0,0.0,0.0,0.0,0.0,0.0,0.0,0.0,0.0,0.0,0.0,0.0,0.0,0.0,0.0,0.0,0.0,0.0,0.0,0.0,0.0,0.0,0.0,0.0,0.0,0.0,0.0,0.0,0.0,0.0,0.0,0.0,0.0,0.0,0.0,0.0,0.0,0.0,0.0,0.0,0.0,0.0,0.0,0.0,0.0,0.0,0.0,0.0,0.0,0.0,0.0,0.0,0.0,0.0,0.0,0.0,0.0,0.0,0.0,0.0,0.0,0.0,0.0,0.0,0.0,0.0,0.0,0.0,0.0,0.0,0.0,0.0,0.0,0.0,0.0,0.0,0.0,0.0,0.0,0.0,0.0,0.0,0.0,0.0,0.0,0.0,0.0,0.0,0.0,0.0,0.0,0.0,0.0,0.0,0.0,0.0,0.0,0.0,0.0,0.0,0.0,0.0,0.0,0.0,0.0,0.0,0.0,0.0,0.0,0.0,0.0,0.0,0.0,0.0,0.0,0.0,0.0,0.0,0.0,0.0,0.0,0.0,0.0,0.0,0.0,0.0,0.0,0.0,0.0,0.0,0.0,0.0,0.0,0.0,0.0,0.0,0.0,0.0,0.0,0.0,0.0,0.0,0.0,0.0,0.0,0.0,0.0,0.0,0.0,0.0,0.0,0.0,0.0,0.0,0.0,0.0,0.0,0.0,0.0,0.0,0.0,0.0,0.0,0.0,0.0,0.0,0.0,0.0,0.0,0.0,0.0,0.0,0.0,0.0,0.0,0.0,0.0,0.0,0.0,0.0,0.0,0.0,0.0,0.0,0.0,0.0,0.0,0.0,0.0,0.0,0.0,0.0,0.0,0.0,0.0,0.0,0.0,0.0,0.0,0.0,0.0,0.0,0.0,0.0,0.0,0.0,0.0,0.0,0.0,0.0,0.0,0.0,0.0,0.0,0.0,0.0,0.0,0.0,0.0,0.0,0.0,0.0,0.0,0.0,0.0,0.0,0.0,0.0,0.0,0.0,0.0,0.0,0.0,0.0,0.0,0.0,0.0,0.0,0.0,0.0,0.0,0.0,0.0,0.0,0.0,0.0,0.0,0.0,0.0,0.0,0.0,0.0,0.0,0.0,0.0,0.0,0.0,0.0,0.0,0.0,0.0,0.0,0.0,0.0,0.0,0.0,0.0,0.0,0.0,0.0,0.0,0.0,0.0,0.0,0.0,0.0,0.0,0.0,0.0,0.0,0.0,0.0,0.0,0.0,0.0,0.0,0.0,0.0,0.0,0.0,0.0,0.0,0.0,0.0,0.0,0.0,0.0,0.0,0.0,0.0,0.0,0.0,0.0,0.0,0.0,0.0,0.0,0.0,0.0,0.0,0.0,0.0,0.0,0.0,0.0,0.0,0.0,0.0,0.0,0.0,0.0,0.0,0.0,0.0,0.0,0.0,0.0,0.0,0.0,0.0,0.0,0.0,0.0,0.0,0.0,0.0,0.0,0.0,0.0,0.0,0.0,0.0,0.0,0.0,0.0,0.0,0.0,0.0,0.0,0.0,0.0,0.0,0.0,0.0,0.0,0.0,0.0,0.0,0.0,0.0,0.0,0.0,0.0,0.0,0.0,0.0,0.0,0.0,0.0,0.0,0.0,0.0,0.0,0.0,0.0,0.0,0.0,0.0,0.0,0.0,0.0,0.0,0.0,0.0,0.0,0.0,0.0,0.0,0.0,0.0,0.0,0.0,0.0,0.0,0.0,0.0,0.0,0.0,0.0,0.0,0.0,0.0,0.0,0.0,0.0,0.0,0.0,0.0,0.0,0.0,0.0,0.0,0.0,0.0,0.0,0.0,0.0,0.0,0.0,0.0,0.0,0.0,0.0,0.0,0.0,0.0,0.0,0.0,0.0,0.0,0.0,0.0,0.0,0.0,0.0,0.0,0.0,0.0,0.0,0.0,0.0,0.0,0.0,0.0,0.0,0.0,0.0,0.0,0.0,0.0,0.0,0.0,0.0,0.0,0.0,0.0,0.0,0.0,0.0,0.0,0.0,0.0,0.0,0.0,0.0,0.0,0.0,0.0,0.0,0.0,0.0,0.0,0.0,0.0,0.0,0.0,0.0,0.0,0.0,0.0,0.0,0.0,0.0,0.0,0.0,0.0,0.0,0.0,0.0,0.0,0.0,0.0,0.0,0.0,0.0,0.0,0.0,0.0,0.0,0.0,0.0,0.0,0.0,0.0,0.0,0.0,0.0,0.0,0.0,0.0,0.0,0.0,0.0,0.0,0.0,0.0,0.0,0.0,0.0,0.0,0.0,0.0,0.0,0.0,0.0,0.0,0.0,0.0,0.0,0.0,0.0,0.0,0.0,0.0,0.0,0.0,0.0,0.0,0.0,0.0,0.0,0.0,0.0,0.0,0.0,0.0,0.0,0.0,0.0,0.0,0.0,0.0,0.0,0.0,0.0,0.0,0.0,0.0,0.0,0.0,0.0,0.0,0.0,0.0,0.0,0.0,0.0,0.0,0.0,0.0,0.0,0.0,0.0,0.0,0.0,0.0,0.0,0.0,0.0,0.0,0.0,0.0,0.0,0.0,0.0,0.0,0.0,0.0,0.0,0.0,0.0,0.0,0.0,0.0,0.0,0.0,0.0,0.0,0.0,0.0,0.0,0.0,0.0,0.0,0.0,0.0,0.0,0.0,0.0,0.0,0.0,0.0,0.0,0.0,0.0,0.0,0.0,0.0,0.0,0.0,0.0,0.0,0.0,0.0,0.0,0.0,0.0,0.0,0.0,0.0,0.0,0.0,0.0,0.0,0.0,0.0,0.0,0.0,0.0,0.0,0.0,0.0,0.0,0.0,0.0,0.0,0.0,0.0,0.0,0.0,0.0,0.0,0.0,0.0,0.0,0.0,0.0,0.0,0.0,0.0,0.0,0.0,0.0,0.0,0.0,0.0,0.0,0.0,0.0,0.0,0.0,0.0,0.0,0.0,0.0,0.0,0.0,0.0,0.0,0.0,0.0,0.0,0.0,0.0,0.0,0.0,0.0,0.0,0.0,0.0,0.0,0.0,0.0,0.0,0.0,0.0,0.0,0.0,0.0,0.0,0.0,0.0,0.0,0.0,0.0,0.0,0.0,0.0,0.0,0.0,0.0,0.0,0.0,0.0,0.0,0.0,0.0,0.0,0.0,0.0,0.0,0.0,0.0,0.0,0.0,0.0,0.0,0.0,0.0,0.0,0.0,0.0,0.0,0.0,0.0,0.0,0.0,0.0,0.0,0.0,0.0,0.0,0.0,0.0,0.0,0.0,0.0,0.0,0.0,0.0,0.0,0.0,0.0,0.0,0.0,0.0,0.0,0.0,0.0,0.0,0.0,0.0,0.0,0.0,0.0,0.0,0.0,0.0,0.0,0.0,0.0,0.0,0.0,0.0,0.0,0.0,0.0,0.0,0.0,0.0,0.0,0.0,0.0,0.0,0.0,0.0,0.0,0.0,0.0,0.0,0.0,0.0,0.0,0.0,0.0,0.0,0.0,0.0,0.0,0.0,0.0,0.0,0.0,0.0,0.0,0.0,0.0,0.0,0.0,0.0,0.0,0.0,0.0,0.0,0.0,0.0,0.0,0.0,0.0,0.0,0.0,0.0,0.0,0.0,0.0,0.0,0.0,0.0,0.0,0.0,0.0,0.0,0.0,0.0,0.0,0.0,0.0,0.0,0.0,0.0,0.0,0.0,0.0,0.0,0.0,0.0,0.0,0.0,0.0,0.0,0.0,0.0,0.0,0.0,0.0,0.0,0.0,0.0,0.0,0.0,0.0,0.0,0.0,0.0,0.0,0.0,0.0,0.0,0.0,0.0,0.0,0.0,0.0,0.0,0.0,0.0,0.0,0.0,0.0,0.0,0.0,0.0,0.0,0.0,0.0,0.0,0.0,0.0,0.0,0.0,0.0,0.0,0.0,0.0,0.0,0.0,0.0,0.0,0.0,0.0,0.0,0.0,0.0,0.0,0.0,0.0,0.0,0.0,0.0,0.0,0.0,0.0,0.0,0.0,0.0,0.0,0.0,0.0,0.0,0.0,0.0,0.0,0.0,0.0,0.0,0.0,0.0,0.0,0.0,0.0,0.0,0.0,0.0,0.0,0.0,0.0,0.0,0.0,0.0,0.0,0.0,0.0,0.0,0.0,0.0,0.0,0.0,0.0,0.0,0.0,0.0,0.0,0.0,0.0,0.0,0.0,0.0,0.0,0.0,0.0,0.0,0.0,0.0,0.0,0.0,0.0,0.0,0.0,0.0,0.0,0.0,0.0,0.0,0.0,0.0,0.0,0.0,0.0,0.0,0.0,0.0,0.0,0.0,0.0,0.0,0.0,0.0,0.0,0.0,0.0,0.0,0.0,0.0,0.0,0.0,0.0,0.0,0.0,0.0,0.0,0.0,0.0,0.0,0.0,0.0,0.0,0.0,0.0,0.0,0.0,0.0,0.0,0.0,0.0,0.0,0.0,0.0,0.0,0.0,0.0,0.0,0.0,0.0,0.0,0.0,0.0,0.0,0.0,0.0,0.0,0.0,0.0,0.0,0.0,0.0,0.0,0.0,0.0,0.0,0.0,0.0,0.0,0.0,0.0,0.0,0.0,0.0,0.0,0.0,0.0,0.0,0.0,0.0,0.0,0.0,0.0,0.0,0.0,0.0,0.0,0.0,0.0,0.0,0.0,0.0,0.0,0.0,0.0,0.0,0.0,0.0,0.0,0.0,0.0,0.0,0.0,0.0,0.0,0.0,0.0,0.0,0.0,0.0,0.0,0.0,0.0,0.0,0.0,0.0,0.0,0.0,0.0,0.0,0.0,0.0,0.0,0.0,0.0,0.0,0.0,0.0,0.0,0.0,0.0,0.0,0.0,0.0,0.0,0.0,0.0,0.0,0.0,0.0,0.0,0.0,0.0,0.0,0.0,0.0,0.0,0.0,0.0,0.0,0.0,0.0,0.0,0.0,0.0,0.0,0.0,0.0,0.0,0.0,0.0,0.0,0.0,0.0,0.0,0.0,0.0,0.0,0.0,0.0,0.0,0.0,0.0,0.0,0.0,0.0,0.0,0.0,0.0,0.0,0.0,0.0,0.0,0.0,0.0,0.0,0.0,0.0,0.0,0.0,0.0,0.0,0.0,0.0,0.0,0.0,0.0,0.0,0.0,0.0,0.0,0.0,0.0,0.0,0.0,0.0,0.0,0.0,0.0,0.0,0.0,0.0,0.0,0.0,0.0,0.0,0.0,0.0,0.0,0.0,0.0,0.0,0.0,0.0,0.0,0.0,0.0,0.0,0.0,0.0,0.0,0.0,0.0,0.0,0.0,0.0,0.0,0.0,0.0,0.0,0.0,0.0,-1.1578,0.0,0.0,0.0,0.0,0.0,0.0,0.0,0.0,0.0,0.0,0.0,0.0,0.0,0.0,0.0,0.0,0.0,0.0,0.0,0.0,0.0,0.0,0.0,0.0,0.0,0.0,0.0,0.0,0.0,0.0,0.0,0.0,0.0,0.0,0.0,0.0,0.0,0.0,0.0,-0.657,-0.6254,-0.5834,-0.3864,-0.2377,-0.1412,0.0,0.0,0.0,0.0,0.0,0.0,0.0,0.0,0.0,0.0,0.0,0.0,0.0,0.0,0.0,0.0,0.0,0.0,0.0,0.0,0.0,0.0,0.0,0.0,0.0,0.0,0.0,0.0,0.0,0.0,0.0,0.0,0.0,0.0,0.0,0.0,0.0,0.0,0.0,0.0,0.0,0.0,0.0,0.0,0.0,0.0,0.0,0.0,0.0,0.0,0.0,0.0,0.0,0.0,0.0,0.0,0.0,0.0,0.0,0.0,0.0,0.0,0.0,0.0,0.0,0.0,0.0,0.0,0.0,0.0,0.0,-1.1768,0.0,0.0,0.0,0.0,0.0,0.0,0.0,0.0,0.0,0.0,0.0,0.0,0.0,0.0,0.0,0.0,0.0,0.0,0.0,0.0,0.0,0.0,0.0,0.0,0.0,0.0,0.0,0.0,0.0,0.0,0.0,0.0,0.0,0.0,0.0,0.0,0.0,0.0,-0.7467,-0.7163,-0.6328,-0.4548,-0.3062,-0.1794,-0.1589,0.0,0.0,0.0,0.0,0.0,0.0,0.0,0.0,0.0,0.0,0.0,0.0,0.0,0.0,0.0,0.0,0.0,0.0,0.0,0.0,0.0,0.0,0.0,0.0,0.0,0.0,0.0,0.0,0.0,0.0,0.0,0.0,0.0,0.0,0.0,0.0,0.0,0.0,0.0,0.0,0.0,0.0,0.0,0.0,0.0,0.0,0.0,0.0,0.0,0.0,0.0,0.0,0.0,0.0,0.0,0.0,0.0,0.0,0.0,0.0,0.0,0.0,0.0,-1.1603,-1.2185,-1.1975,-1.2313,-1.2374,-1.2186,-1.2119,-1.1927,-1.1693,0.0,0.0,0.0,0.0,0.0,0.0,0.0,0.0,0.0,0.0,0.0,0.0,0.0,0.0,0.0,0.0,0.0,0.0,0.0,0.0,0.0,0.0,0.0,0.0,0.0,0.0,0.0,0.0,0.0,0.0,0.0,0.0,0.0,0.0,0.0,0.0,-0.7808,-0.7865,-0.7463,-0.6543,-0.6315,-0.5092,-0.3006,-0.1991,-0.1537,-0.1562,0.0,0.0,0.0,0.0,0.0,0.0,0.0,0.0,0.0,0.0,0.0,0.0,0.0,0.0,0.0,0.0,0.0,0.0,0.0,0.0,0.0,0.0,0.0,0.0,0.0,0.0,0.0,0.0,0.0,0.0,0.0,0.0,0.0,0.0,0.0,0.0,0.0,0.0,0.0,0.0,0.0,-0.4203,-0.5416,0.0,0.0,0.0,0.0,0.0,0.0,0.0,0.0,0.0,0.0,0.0,0.0,0.0,-0.7199,-0.8342,-0.9295,-1.0274,-1.1302,-1.218,-1.2626,-1.2584,-1.239,-1.245,-1.2608,-1.2559,0.0,-1.2007,-1.2488,0.0,0.0,0.0,0.0,0.0,0.0,0.0,0.0,0.0,0.0,0.0,0.0,0.0,0.0,0.0,0.0,0.0,0.0,0.0,0.0,0.0,0.0,0.0,0.0,0.0,0.0,0.0,0.0,0.0,0.0,0.0,0.0,0.0,0.0,0.0,0.0,-0.8456,-0.8258,-0.7835,-0.7463,-0.6182,-0.4145,-0.3316,-0.2459,-0.167,-0.1576,0.0,0.0,0.0,0.0,0.0,0.0,0.0,0.0,0.0,0.0,0.0,0.0,0.0,0.0,0.0,0.0,0.0,0.0,0.0,0.0,0.0,0.0,0.0,0.0,0.0,0.0,0.0,0.0,0.0,0.0,0.0,0.0,0.0,0.0,0.0,0.0,0.0,0.0,0.0,-0.411,-0.5205,-0.5711,-0.6035,-0.6128,0.0,0.0,0.0,0.0,0.0,0.0,0.0,0.0,0.0,-0.6841,-0.6912,-0.7447,-0.8591,-0.9491,-1.0443,-1.1488,-1.2613,-1.3085,-1.294,-1.297,-1.297,-1.2928,-1.3033,-1.2994,-1.2788,-1.2783,-1.2703,-1.2569,0.0,0.0,0.0,0.0,-1.3846,-1.4649,0.0,0.0,0.0,0.0,0.0,0.0,0.0,0.0,0.0,0.0,0.0,0.0,0.0,0.0,0.0,-1.4824,0.0,0.0,0.0,0.0,0.0,0.0,0.0,0.0,0.0,0.0,0.0,-0.91,-0.9064,-0.9083,-0.912,-0.8567,-0.7425,-0.5737,-0.4884,-0.3471,-0.1735,-0.1644,-0.1594,-0.1536,0.0,0.0,0.0,0.0,0.0,0.0,0.0,0.0,0.0,0.0,0.0,0.0,0.0,0.0,0.0,0.0,0.0,0.0,0.0,0.0,0.0,0.0,0.0,0.0,0.0,0.0,0.0,0.0,0.0,0.0,0.0,0.0,0.0,0.0,0.0,0.0,0.0,-0.5282,-0.5894,-0.5913,-0.6309,-0.6477,0.0,0.0,0.0,0.0,0.0,0.0,-0.7024,-0.6932,-0.699,-0.7206,-0.7247,-0.7824,-0.8898,-0.9795,-1.0811,-1.1908,-1.314,-1.361,-1.3429,-1.3556,-1.3544,-1.3417,-1.3539,-1.3623,-1.3572,-1.3243,-1.3074,-1.2991,-1.2732,-1.2599,-1.2532,-1.2743,-1.3548,-1.4579,0.0,0.0,0.0,0.0,0.0,0.0,0.0,0.0,0.0,0.0,0.0,0.0,0.0,0.0,-1.5658,-1.5398,-1.5899,-1.6099,0.0,0.0,0.0,0.0,0.0,0.0,0.0,0.0,0.0,-0.9843,-0.961,-0.9633,-0.9957,-0.9817,-0.9196,-0.8079,-0.6613,-0.4431,-0.1796,-0.1737,-0.1676,-0.1613,-0.1506,0.0,0.0,0.0,0.0,0.0,0.0,0.0,0.0,0.0,0.0,0.0,0.0,0.0,0.0,0.0,0.0,0.0,0.0,0.0,0.0,0.0,0.0,0.0,0.0,0.0,0.0,0.0,0.0,0.0,0.0,0.0,0.0,0.0,0.0,0.0,0.0,0.0,0.0,-0.5882,-0.6431,0.0,0.0,0.0,0.0,-0.6862,-0.698,-0.717,-0.7385,-0.7388,-0.7411,-0.757,-0.7706,-0.8326,-0.9551,-1.0622,-1.1751,-1.2957,-1.3827,-1.425,-1.4226,-1.3996,-1.4014,-1.4214,-1.3995,-1.4,-1.4127,-1.4052,-1.3841,-1.3553,-1.354,-1.3367,-1.3239,-1.3949,-1.4239,-1.4549,0.0,0.0,0.0,0.0,0.0,0.0,0.0,0.0,0.0,0.0,0.0,0.0,0.0,-1.8512,-1.8395,-1.7638,-1.7611,-1.7288,-1.6449,0.0,0.0,0.0,0.0,0.0,0.0,0.0,-1.0874,-1.0237,-1.0245,-1.0317,-1.0334,-1.0736,-1.0131,-0.8672,-0.7744,-0.6195,-0.4117,-0.2485,-0.1737,-0.1675,-0.1613,-0.1509,0.0,0.0,0.0,0.0,0.0,0.0,0.0,0.0,0.0,0.0,0.0,0.0,0.0,0.0,0.0,0.0,0.0,0.0,0.0,0.0,0.0,0.0,0.0,0.0,0.0,0.0,0.0,0.0,0.0,0.0,0.0,0.0,0.0,0.0,0.0,0.0,0.0,-0.6757,-0.7204,0.0,0.0,-0.735,-0.7397,-0.7489,-0.7458,-0.7543,-0.7787,-0.7706,-0.7726,-0.783,-0.7884,-0.847,-0.9608,-1.0681,-1.1746,-1.2812,-1.3804,-1.4298,-1.4292,-1.4201,-1.4208,-1.4286,-1.42,-1.4311,-1.4527,-1.4661,-1.4417,-1.3926,-1.3917,-1.3868,-1.3816,-1.4084,-1.436,-1.4783,0.0,0.0,0.0,0.0,0.0,0.0,0.0,0.0,0.0,0.0,0.0,-1.9526,-1.9848,-1.9803,-1.9454,-1.8748,-1.8253,-1.7611,-1.6623,0.0,0.0,0.0,-1.5398,0.0,0.0,-1.2365,-1.1577,-1.0615,-1.0785,-1.0884,-1.096,-1.1422,-1.1099,-1.0019,-0.9062,-0.7864,-0.6339,-0.4036,-0.2658,-0.2003,-0.1728,-0.1615,-0.1507,0.0,0.0,0.0,0.0,0.0,0.0,0.0,0.0,0.0,0.0,0.0,0.0,0.0,0.0,0.0,0.0,0.0,0.0,0.0,0.0,0.0,0.0,0.0,0.0,0.0,0.0,0.0,0.0,0.0,0.0,0.0,0.0,0.0,0.0,0.0,-0.7109,-0.7292,-0.7758,-0.8018,-0.797,-0.7923,-0.7936,-0.8031,-0.795,-0.8004,-0.8201,-0.8123,-0.8085,-0.8187,-0.8143,-0.8488,-0.9237,-1.0551,-1.1585,-1.2316,-1.3693,-1.4298,-1.4298,-1.4298,-1.4298,-1.4298,-1.4298,-1.4394,-1.4592,-1.4838,-1.4699,-1.434,-1.4467,-1.4469,-1.4382,-1.4382,-1.4528,-1.4807,0.0,0.0,0.0,0.0,0.0,0.0,0.0,0.0,0.0,0.0,-1.9326,-1.9427,-2.0279,-1.9371,-1.8621,-1.8498,-1.7735,-1.7002,-1.6382,-1.5517,0.0,0.0,0.0,0.0,-1.2943,-1.3199,-1.2621,-1.1105,-1.1163,-1.1435,-1.1797,-1.1967,-1.2142,-1.2253,-1.0651,-0.937,-0.8201,-0.6418,-0.4542,-0.2737,-0.2006,-0.1679,-0.1617,0.0,0.0,0.0,0.0,0.0,0.0,0.0,0.0,0.0,0.0,0.0,0.0,0.0,0.0,0.0,0.0,0.0,0.0,0.0,0.0,0.0,0.0,0.0,0.0,0.0,0.0,0.0,0.0,0.0,0.0,0.0,0.0,0.0,-0.6371,-0.7006,-0.7498,-0.7364,-0.8052,-0.8455,-0.8371,-0.8428,-0.8509,-0.8503,-0.8503,-0.8567,-0.871,-0.8577,-0.8496,-0.8489,-0.8357,-0.8402,-0.8531,-1.0342,-1.1392,-1.1676,-1.3462,-1.431,-1.431,-1.4298,-1.4298,-1.4298,-1.4298,-1.4298,-1.4346,-1.4592,-1.4688,-1.4758,-1.5192,-1.5237,-1.499,-1.4977,-1.4834,-1.4702,0.0,0.0,0.0,0.0,0.0,0.0,0.0,0.0,0.0,0.0,-1.9646,-2.0189,-2.159,-2.0793,-2.0256,-2.0475,-1.9013,-1.7746,-1.7009,0.0,0.0,0.0,0.0,0.0,-1.4721,-1.4428,-1.3882,-1.2944,-1.2196,-1.1926,-1.2166,-1.2337,-1.2442,-1.2499,-1.1315,-1.0192,-0.9048,-0.7231,-0.5646,-0.4272,-0.2941,-0.2377,-0.2288,0.0,0.0,0.0,0.0,0.0,0.0,0.0,0.0,0.0,0.0,0.0,0.0,0.0,0.0,0.0,0.0,0.0,0.0,0.0,0.0,0.0,0.0,0.0,0.0,0.0,0.0,0.0,0.0,0.0,0.0,0.0,0.0,-0.7551,-0.7218,-0.7796,-0.8263,-0.8441,-0.8848,-0.912,-0.9079,-0.911,-0.9089,-0.9033,-0.9026,-0.8944,-0.8824,-0.8835,-0.8764,-0.8652,-0.8611,-0.8973,-0.9731,-1.1015,-1.2089,-1.2977,-1.405,-1.46,-1.4594,-1.4389,-1.4298,-1.4298,-1.4298,-1.4298,-1.4346,-1.4592,-1.4688,-1.4729,-1.5041,-1.5241,-1.5331,-1.5074,-1.5348,-1.5848,0.0,0.0,0.0,0.0,0.0,0.0,0.0,0.0,0.0,0.0,-2.0048,-2.068,-2.2117,-2.1427,-2.082,-2.0662,-1.9242,-1.791,-1.6881,0.0,0.0,0.0,0.0,-1.6387,-1.5736,-1.5683,-1.5056,-1.3797,-1.3292,-1.291,-1.2532,-1.2633,-1.2714,-1.2787,-1.2153,-1.1249,-1.0104,-0.8604,-0.7233,-0.6054,-0.4362,-0.3246,-0.2612,-0.2121,-0.1808,-0.1532,-0.1489,-0.1485,-0.1682,-0.3015,0.0,0.0,0.0,0.0,0.0,0.0,0.0,0.0,0.0,0.0,0.0,0.0,0.0,0.0,0.0,0.0,0.0,0.0,0.0,0.0,0.0,0.0,0.0,0.0,-0.7865,-0.8211,-0.8208,-0.8548,-0.8852,-0.9096,-0.9334,-0.95,-0.9557,-0.951,-0.9439,-0.9351,-0.9344,-0.9184,-0.9035,-0.8971,-0.8814,-0.8716,-0.871,-0.8987,-0.9576,-1.0621,-1.1717,-1.2868,-1.3723,-1.4363,-1.4708,-1.4552,-1.4413,0.0,-1.4298,-1.4298,-1.4298,-1.4496,-1.4544,0.0,0.0,0.0,0.0,0.0,-1.5323,-1.5749,0.0,0.0,0.0,0.0,0.0,0.0,0.0,0.0,0.0,0.0,0.0,-2.0891,-2.2144,-2.1477,-2.067,-1.9998,-1.8754,-1.7519,0.0,0.0,0.0,-1.5878,-1.6526,-1.6711,-1.6405,-1.6887,-1.6121,-1.4137,-1.4489,-1.4018,-1.277,-1.279,-1.2938,-1.3059,-1.2925,-1.225,-1.1156,-1.0087,-0.8989,-0.765,-0.5994,-0.4342,-0.2907,-0.2714,-0.2214,-0.1609,-0.1552,-0.1579,-0.1954,-0.3726,0.0,0.0,0.0,0.0,0.0,0.0,0.0,0.0,0.0,0.0,0.0,0.0,0.0,0.0,0.0,0.0,0.0,0.0,0.0,0.0,0.0,0.0,0.0,0.0,-0.8347,-0.8733,-0.9224,-0.9286,-0.933,-0.9395,-0.954,-0.9683,-0.9808,-0.9707,-0.9629,-0.9612,-0.9483,-0.9347,-0.9268,0.0,0.0,0.0,0.0,-0.8821,-0.8949,-0.9854,-1.0909,-1.2053,-1.2832,-1.3684,-1.4511,-1.4481,-1.4436,-1.4298,-1.4298,-1.4298,-1.4298,-1.4298,-1.4298,-1.4442,-1.5112,-1.5358,-1.5295,-1.5099,-1.499,-1.4972,0.0,0.0,0.0,0.0,0.0,0.0,0.0,0.0,0.0,-1.9865,-1.9987,-2.0589,-2.2117,-2.0806,-2.012,-2.092,-1.8543,-1.6583,0.0,0.0,-1.6293,-1.6526,-1.7289,-1.7814,-1.8053,-1.8009,-1.7213,-1.5649,-1.5091,-1.4157,-1.2774,-1.2978,-1.2986,-1.2889,-1.2999,-1.2359,-1.1156,-1.0943,-0.9692,-0.7834,-0.7287,-0.568,-0.3532,-0.2912,-0.2211,-0.1612,-0.1576,-0.2146,-0.3059,-0.4186,-0.5093,-0.5984,-0.7094,0.0,0.0,0.0,0.0,0.0,0.0,0.0,0.0,0.0,0.0,0.0,0.0,0.0,0.0,0.0,0.0,0.0,0.0,0.0,0.0,-0.8273,-0.8869,-0.932,-0.9646,-0.9693,-0.9659,-0.9578,-0.9693,-0.9791,-0.9819,-0.9795,-0.9734,-0.9618,-0.9581,-0.9551,-0.9523,-0.9496,0.0,-0.9256,-0.9252,-0.9582,-1.03,-1.0514,-1.114,-1.2154,0.0,0.0,-1.338,-1.3188,-1.3514,-1.4298,-1.4298,-1.4298,-1.4298,-1.4298,-1.4442,-1.464,-1.4783,-1.4609,-1.4284,-1.4799,-1.4878,-1.4713,0.0,0.0,0.0,0.0,0.0,0.0,0.0,0.0,0.0,0.0,-1.9969,-2.053,-2.1328,-2.0746,-2.0254,-2.0195,-1.8062,0.0,0.0,-1.6313,-1.662,-1.6914,-1.7789,-1.841,-1.8698,-1.9049,-1.8502,-1.7139,-1.636,-1.534,-1.4094,-1.3428,-1.3145,-1.3174,-1.3234,-1.2907,-1.2273,-1.1574,-1.0666,-0.9586,-0.8742,-0.7426,-0.58,-0.4268,-0.3204,-0.2483,-0.2792,-0.3354,-0.4153,-0.5094,-0.5807,-0.6461,-0.7333,-0.7543,-0.7385,0.0,0.0,0.0,0.0,0.0,0.0,0.0,0.0,0.0,0.0,0.0,0.0,0.0,0.0,-0.7372,0.0,0.0,-0.8385,-0.9066,-0.9405,-0.968,-0.9842,-0.9872,-0.9849,-0.9839,-0.9825,-0.9822,-0.9822,-0.9822,-0.9791,-0.972,-0.9717,-0.9683,-0.9612,-0.9608,-0.9503,-0.933,-0.934,-0.9517,-0.9809,-0.9805,-1.0358,-1.1446,-1.1155,-1.1531,-1.244,-1.2263,-1.2351,-1.2732,-1.2732,-1.3022,-1.3559,-1.41,-1.4394,-1.4496,-1.4496,-1.4479,-1.4511,-1.4583,-1.4527,-1.443,0.0,0.0,0.0,0.0,0.0,0.0,0.0,0.0,0.0,0.0,-1.9868,-2.0345,-2.0428,-2.0698,-2.033,0.0,0.0,0.0,0.0,-1.6746,-1.6947,-1.7353,-1.8123,-1.8711,-1.9005,-1.9813,-1.9552,-1.8196,-1.7384,-1.6409,-1.5325,-1.3865,-1.3307,-1.3587,-1.3474,-1.3405,-1.336,-1.2289,-1.1669,-1.1321,-1.0009,-0.897,-0.7917,-0.6044,-0.4695,-0.3837,-0.4223,-0.4628,-0.516,-0.5935,-0.6404,-0.6738,-0.7452,-0.7743,-0.7736,-0.7297,-0.7166,0.0,0.0,0.0,0.0,0.0,0.0,0.0,0.0,0.0,-0.7743,-0.8083,-0.816,-0.8303,-0.8913,-0.8971,-0.913,-0.9761,-0.989,-0.9954,-1.0014,-1.0007,-0.9977,-0.9947,-0.9897,-0.9822,-0.9822,-0.9822,-0.9822,-0.9822,-0.9822,-0.9771,-0.9656,-0.9649,-0.9527,-0.9306,-0.9334,-0.9252,-0.8984,-0.8898,-0.9357,-1.0292,-1.0034,-1.0435,-1.1419,-1.1263,-1.1227,-1.1219,-1.1219,-1.1755,-1.2775,-1.3613,-1.41,-1.4298,-1.4298,-1.4544,-1.487,-1.44,-1.421,-1.4224,0.0,0.0,0.0,0.0,0.0,0.0,0.0,0.0,0.0,0.0,0.0,0.0,0.0,0.0,0.0,0.0,0.0,0.0,-1.6737,-1.6994,-1.7393,-1.7896,-1.8531,-1.9011,-1.9312,-1.992,-1.9552,-1.8196,-1.7384,-1.6392,-1.5181,-1.3942,-1.3364,-1.3409,-1.3551,-1.3522,-1.336,-1.3038,-1.234,-1.1407,-1.0887,-0.9648,-0.8158,-0.7743,-0.6755,-0.5463,-0.497,-0.5248,-0.5886,-0.6123,-0.6774,-0.7546,-0.7867,-0.7909,-0.7777,-0.76,0.0,-0.7339,-0.7351,-0.7354,-0.736,-0.7509,-0.756,-0.7712,0.0,0.0,-0.8615,-0.8743,-0.9035,-0.9232,-0.9317,-0.9534,-0.9768,-0.9926,-1.0137,-1.0236,-1.0253,-1.0137,-0.9936,-0.9863,-0.9832,-0.9822,-0.9822,-0.9822,-0.9822,-0.9822,-0.9822,-0.9815,-0.9798,-0.9798,-0.9724,-0.9564,-0.9442,-0.93,-0.9187,-0.9001,-0.8924,-0.8946,-0.8772,-0.9135,-1.0002,-0.9867,-1.031,-1.1219,-1.1219,-1.1755,-1.2732,-1.2829,-1.3463,-1.4298,-1.4298,-1.4346,-1.4358,-1.4247,-1.4235,-1.4297,0.0,0.0,0.0,0.0,0.0,0.0,0.0,0.0,0.0,0.0,0.0,0.0,0.0,0.0,0.0,0.0,0.0,0.0,-1.7239,-1.7211,-1.7387,-1.7742,-1.8671,-1.9239,-1.9424,-1.9773,-1.9759,-1.9363,-1.8375,-1.7415,-1.6338,-1.5036,-1.4074,-1.338,-1.3563,-1.3543,-1.3368,-1.3287,-1.2918,-1.2373,-1.1675,-1.0992,-1.0341,-0.9507,-0.8579,-0.7626,-0.6618,-0.6519,0.0,0.0,-0.7127,-0.7604,-0.7641,-0.7726,-0.7767,-0.7536,-0.7485,0.0,-0.7443,-0.7495,0.0,0.0,-0.8052,-0.8357,-0.8832,-0.8975,-0.9059,-0.9384,-0.9551,-0.9717,-0.9978,-1.0127,-1.0263,0.0,-1.0493,-1.0477,-1.0304,-1.007,-0.9829,-0.9591,-0.9412,-0.9408,-0.9673,-0.9696,-0.9734,-0.9815,-0.9822,-0.9822,-0.9822,-0.9822,-0.9754,-0.9615,-0.9459,-0.9306,-0.921,-0.8923,-0.8818,-0.8838,-0.8513,-0.8626,-0.905,-0.8794,-0.892,-0.9361,-0.9998,-1.0489,-1.0925,-1.156,-1.2096,-1.2538,-1.3119,-1.3366,-1.3434,-1.3855,-1.4046,-1.408,0.0,0.0,0.0,0.0,0.0,0.0,0.0,0.0,0.0,0.0,0.0,0.0,0.0,0.0,0.0,0.0,0.0,0.0,0.0,-1.7278,-1.7252,-1.7321,-1.841,-1.9045,-1.9125,-1.9646,-2.0027,-2.0173,-1.9218,-1.8413,-1.773,-1.5942,-1.4674,-1.3916,-1.3591,-1.3417,-1.3291,-1.3242,-1.3116,-1.2905,-1.2167,-1.1779,-1.1623,-1.0406,-0.9548,-0.8884,-0.7786,-0.7387,0.0,0.0,-0.7204,-0.7346,-0.7316,-0.7455,-0.7594,-0.7421,-0.7482,-0.7584,-0.7512,0.0,0.0,-0.8177,-0.8594,-0.8974,-0.9269,-0.946,-0.9627,-0.993,-1.0005,-1.0093,-1.0382,-1.0432,0.0,-1.0582,-1.0633,-1.0568,-1.0317,-1.0015,-0.9696,-0.9357,-0.9055,-0.9005,-0.933,-0.9435,-0.9544,-0.969,-0.9737,-0.9764,-0.9764,-0.9798,-0.9774,-0.9673,-0.9483,-0.9327,-0.9272,-0.8923,-0.8828,-0.8878,-0.8567,-0.8425,-0.8472,-0.8174,-0.7988,-0.8038,-0.8821,-0.9316,-0.9657,-1.044,-1.093,-1.1317,-1.229,-1.2678,-1.2807,-1.3696,-1.4014,-1.4049,0.0,0.0,0.0,0.0,0.0,0.0,0.0,0.0,0.0,0.0,0.0,0.0,0.0,0.0,0.0,0.0,0.0,0.0,0.0,-1.7165,-1.6971,-1.6757,-1.7549,-1.8169,-1.851,-1.9633,-2.0167,-2.0173,-1.9406,-1.904,-1.9179,-1.6251,-1.5068,-1.5245,-1.3785,-1.3108,-1.3092,-1.2925,-1.2747,-1.2548,-1.2186,-1.1647,-1.1028,-1.0056,-0.922,-0.8453,-0.8094,0.0,0.0,0.0,-0.6844,-0.6776,-0.7014,-0.7109,0.0,-0.7329,-0.7482,-0.7628,0.0,0.0,-0.8364,-0.8747,-0.914,-0.9439,-0.9734,-1.0032,-1.029,-1.0439,-1.047,-1.0432,-1.031,-1.0287,-1.029,-1.0293,-1.0409,-1.0449,-1.03,-1.0015,-0.9656,-0.9268,-0.8899,-0.8723,0.0,-0.8998,-0.9286,-0.9384,-0.9534,-0.9615,-0.9615,-0.9747,-0.9819,-0.9815,-0.9534,-0.9381,-0.9374,-0.9079,-0.8878,-0.8881,-0.8774,-0.8621,-0.8472,-0.8174,-0.7988,-0.7988,-0.8038,-0.8627,-0.9608,-0.9657,-1.0243,-1.1317,-1.229,-1.2678,-1.2823,-1.3896,-1.4286,-1.425,0.0,0.0,0.0,0.0,0.0,0.0,0.0,0.0,0.0,0.0,0.0,0.0,0.0,0.0,0.0,0.0,0.0,0.0,0.0,-1.6899,-1.672,-1.6442,-1.7081,-1.7689,-1.8183,-1.8522,-1.8915,-1.9366,-1.9272,-1.8838,-1.7948,-1.7167,-1.5841,-1.412,-1.3816,-1.3195,-1.2381,-1.2324,-1.2199,-1.1987,-1.1153,-1.0722,-1.0496,-0.9377,-0.8612,-0.8048,0.0,0.0,0.0,0.0,0.0,0.0,-0.6664,0.0,-0.6915,-0.7268,-0.7482,-0.7695,0.0,0.0,-0.9019,-0.9412,-0.9754,-1.0056,-1.0351,-1.0497,-1.0531,-1.0382,-1.0188,-0.9971,-0.9727,-0.9683,-0.9747,-0.9944,-1.0185,-1.0334,-1.0287,-1.0015,-0.9618,-0.9076,-0.8743,0.0,0.0,0.0,0.0,-0.9268,-0.9371,-0.9503,-0.9605,-0.9744,-0.9822,-0.9822,-0.9635,-0.9483,-0.9384,-0.9181,-0.9032,-0.8881,-0.8784,-0.8581,-0.8336,-0.8238,-0.8136,-0.7988,-0.7988,-0.8187,-0.8531,-0.8531,-0.8775,-0.9167,-1.0243,-1.1072,-1.1853,-1.2877,-1.3709,-1.4286,0.0,0.0,0.0,0.0,0.0,0.0,0.0,0.0,0.0,0.0,0.0,0.0,0.0,0.0,0.0,0.0,0.0,0.0,0.0,0.0,-1.6192,-1.5578,-1.6109,-1.6653,-1.7086,-1.7509,-1.7856,-1.8174,-1.8584,-1.8268,-1.7409,-1.7126,-1.6062,-1.4392,-1.4148,-1.354,-1.2702,-1.2285,-1.1917,-1.1639,-1.0479,-0.984,-0.9567,-0.8601,-0.7921,0.0,0.0,0.0,0.0,0.0,0.0,0.0,0.0,-0.6688,-0.7007,-0.7353,-0.7672,-0.8055,-0.871,-0.9174,-0.9595,-1.0097,-1.0371,-1.0555,-1.069,-1.0639,-1.0463,-1.0114,-0.9754,-0.9415,-0.9113,-0.9018,-0.9083,-0.9378,-0.9635,-0.9856,-1.0019,-0.973,-0.9384,-0.9055,-0.8699,0.0,0.0,0.0,0.0,-0.8977,-0.9235,-0.9422,-0.9523,-0.9713,-0.9822,-0.9822,-0.9683,-0.9537,-0.9384,-0.9286,-0.9083,-0.8881,-0.8726,-0.853,-0.8343,-0.8238,-0.8133,-0.7988,-0.7988,-0.7988,-0.7988,-0.7988,-0.7988,-0.8088,-0.9167,-1.0243,-1.1317,-1.2339,-1.3366,-1.4286,0.0,0.0,0.0,0.0,0.0,0.0,0.0,0.0,0.0,0.0,0.0,0.0,0.0,0.0,0.0,0.0,0.0,0.0,0.0,0.0,0.0,-1.4241,-1.4734,-1.5212,-1.5466,-1.6527,-1.6959,-1.6709,-1.7264,-1.7508,-1.7488,-1.6284,-1.5773,-1.5825,-1.4642,-1.4098,-1.3902,-1.2703,-1.1903,-1.1366,-1.0106,-0.9061,-0.824,-0.7721,0.0,0.0,0.0,0.0,0.0,0.0,0.0,0.0,0.0,-0.6948,-0.7453,-0.759,-0.8058,-0.8682,-0.9439,-0.9866,-1.0172,-1.0749,-1.0887,-1.084,-1.0744,-1.0473,-1.0124,-0.9659,-0.9201,-0.8784,0.0,0.0,-0.8336,-0.8648,-0.8845,-0.9063,-0.9581,-0.9269,-0.9039,0.0,0.0,0.0,0.0,0.0,0.0,-0.872,0.0,-0.9374,-0.9391,-0.9666,-0.9822,-0.9822,-0.9683,-0.9537,-0.9384,-0.9279,-0.9076,-0.8878,-0.8645,-0.8499,-0.8472,-0.8191,-0.8005,-0.7988,-0.7988,-0.7988,-0.7988,-0.7988,-0.7988,-0.8088,-0.9118,-1.0145,-1.1219,-1.2242,-1.3318,-1.4214,0.0,0.0,0.0,0.0,0.0,0.0,0.0,0.0,0.0,0.0,0.0,0.0,0.0,0.0,0.0,0.0,0.0,0.0,0.0,0.0,0.0,0.0,0.0,0.0,0.0,0.0,0.0,0.0,-1.6157,-1.6289,-1.6279,-1.6203,-1.5569,-1.4594,-1.4393,-1.3605,-1.241,-1.1944,-1.1146,-1.0101,0.0,-0.8589,-0.7771,0.0,0.0,0.0,0.0,0.0,0.0,0.0,0.0,0.0,0.0,-0.7156,-0.7535,-0.8082,-0.8654,-0.9204,-0.9903,-1.0409,-1.0715,-1.1043,-1.1026,-1.0809,-1.0612,-1.0232,-0.9747,-0.9076,-0.8492,-0.7974,0.0,0.0,0.0,-0.8459,-0.895,0.0,-1.0029,-0.991,0.0,0.0,0.0,-0.9066,-0.8845,-0.8821,0.0,0.0,-0.9204,-0.931,-0.954,-0.9724,-0.9822,-0.9822,-0.9683,-0.9537,-0.9384,-0.9123,-0.8974,-0.8881,-0.8804,-0.8703,-0.8479,-0.8404,-0.8248,-0.7988,-0.7988,-0.7988,-0.7988,-0.7988,-0.7988,-0.8038,-0.8283,-0.9069,-1.0145,-1.117,-1.2242,-1.321,0.0,0.0,0.0,0.0,0.0,0.0,0.0,0.0,0.0,0.0,0.0,0.0,0.0,0.0,0.0,0.0,0.0,0.0,0.0,0.0,0.0,0.0,0.0,0.0,0.0,0.0,0.0,0.0,0.0,0.0,-1.4883,-1.5226,-1.4923,-1.4105,-1.4341,-1.3793,-1.2694,-1.2046,0.0,0.0,0.0,0.0,0.0,0.0,0.0,0.0,0.0,0.0,0.0,0.0,0.0,-0.717,-0.7402,-0.7777,-0.8191,-0.8872,0.0,-0.9859,-1.0483,-1.09,-1.1162,-1.1243,-1.1053,-1.0668,-1.0297,-0.9747,-0.9123,-0.8377,-0.7797,0.0,0.0,0.0,0.0,0.0,0.0,0.0,-0.976,-0.971,-0.9646,0.0,-0.9473,0.0,-0.915,-0.9133,-0.9195,0.0,-0.935,-0.9357,-0.9598,-0.9686,-0.9727,-0.9727,-0.9585,-0.9435,-0.934,-0.9055,-0.8885,-0.8885,-0.8814,-0.8713,-0.8479,-0.8418,-0.8262,-0.7988,0.0,-0.7988,-0.7988,-0.7988,-0.7988,-0.7988,-0.7988,-0.8676,-0.9657,-1.0293,-1.117,-1.2193,0.0,0.0,0.0,0.0,0.0,0.0,0.0,0.0,0.0,0.0,0.0,0.0,0.0,0.0,0.0,0.0,0.0,0.0,0.0,0.0,0.0,0.0,0.0,0.0,0.0,0.0,0.0,0.0,0.0,0.0,0.0,0.0,0.0,0.0,0.0,0.0,0.0,0.0,0.0,0.0,0.0,0.0,0.0,0.0,0.0,0.0,0.0,0.0,0.0,0.0,-0.7484,-0.7597,-0.8045,-0.8521,-0.9087,-0.9737,-1.0114,-1.0463,-1.1036,-1.129,-1.1392,-1.1392,-1.1023,-1.0504,-0.99,-0.9171,-0.8411,-0.7665,0.0,-0.682,-0.6671,0.0,-0.7058,-0.755,0.0,-0.8476,-0.9204,-0.9265,-0.9361,-0.9629,-0.9534,-0.9439,-0.9439,-0.9422,-0.9466,-0.9598,-0.9466,-0.9449,-0.9602,-0.9591,-0.9568,-0.9551,-0.9418,-0.9276,-0.9183,-0.9001,-0.8885,-0.8881,-0.8804,-0.8662,-0.8509,-0.8384,-0.8235,-0.8019,0.0,0.0,-0.7988,-0.7988,-0.7988,-0.7988,-0.7988,-0.8581,-0.941,-0.9558,-1.0293,-1.1317,0.0,0.0,0.0,0.0,0.0,0.0,0.0,0.0,0.0,0.0,0.0,0.0,0.0,0.0,0.0,0.0,0.0,0.0,0.0,0.0,0.0,0.0,0.0,0.0,0.0,0.0,0.0,0.0,0.0,0.0,0.0,0.0,0.0,0.0,0.0,0.0,0.0,0.0,0.0,0.0,0.0,0.0,0.0,0.0,0.0,0.0,0.0,0.0,0.0,0.0,-0.7828,-0.8367,-0.8873,-0.9205,-0.9608,-1.0202,-1.0504,-1.0748,-1.1223,-1.1369,-1.1392,-1.1392,-1.087,-1.0198,-0.9595,-0.8781,0.0,0.0,0.0,-0.6549,-0.6402,-0.6559,0.0,-0.7662,0.0,0.0,0.0,0.0,-0.95,0.0,0.0,0.0,0.0,0.0,0.0,0.0,0.0,0.0,-0.9602,-0.949,-0.9364,-0.9292,-0.9262,-0.9123,-0.8977,-0.8895,-0.8885,-0.8885,-0.8858,-0.8818,-0.8669,-0.8645,-0.8486,-0.8231,-0.8231,0.0,-0.7988,-0.7988,-0.7988,-0.7988,-0.7988,-0.8137,-0.8382,-0.9262,-1.0293,-1.1317,0.0,0.0,0.0,0.0,0.0,0.0,0.0,0.0,0.0,0.0,-1.3802,-1.3999,0.0,0.0,0.0,0.0,0.0,0.0,0.0,0.0,0.0,0.0,0.0,0.0,0.0,0.0,0.0,0.0,0.0,0.0,0.0,0.0,0.0,0.0,0.0,0.0,0.0,0.0,0.0,0.0,0.0,0.0,0.0,0.0,0.0,0.0,0.0,0.0,0.0,0.0,-0.7695,-0.8357,-0.9016,-0.9469,-0.9924,-1.0361,-1.0656,-1.0917,-1.129,-1.145,-1.1453,-1.1219,-1.0599,-0.9842,-0.8977,0.0,0.0,0.0,0.0,-0.6218,-0.6271,0.0,0.0,0.0,0.0,0.0,0.0,0.0,0.0,0.0,0.0,0.0,0.0,0.0,0.0,0.0,0.0,0.0,-0.9493,-0.9347,-0.9195,-0.9045,-0.9042,-0.9008,-0.8885,-0.8885,-0.8885,-0.8885,-0.8885,-0.8804,-0.8706,-0.8628,-0.8476,-0.8316,-0.8184,0.0,-0.7988,-0.7988,-0.7988,-0.7988,-0.7988,-0.7988,-0.8038,-0.8581,-0.9069,-0.9756,0.0,0.0,0.0,0.0,0.0,0.0,0.0,-1.3511,-1.3648,-1.4042,-1.375,-1.3545,-1.3622,-1.3836,0.0,0.0,0.0,0.0,0.0,0.0,0.0,0.0,0.0,0.0,0.0,0.0,0.0,0.0,0.0,0.0,0.0,0.0,0.0,0.0,0.0,0.0,0.0,0.0,0.0,0.0,0.0,0.0,0.0,0.0,0.0,0.0,0.0,0.0,0.0,0.0,-0.7385,-0.7911,-0.8558,-0.9259,-0.9958,-1.0226,-1.0585,-1.089,-1.1226,-1.1406,-1.1423,-1.1002,-1.0283,-0.9401,-0.8418,-0.7459,0.0,0.0,-0.6022,-0.598,-0.618,0.0,0.0,0.0,0.0,0.0,0.0,0.0,0.0,0.0,0.0,0.0,0.0,0.0,0.0,0.0,0.0,0.0,-0.934,-0.9275,-0.9086,-0.8888,-0.8885,-0.8885,-0.8885,-0.8851,-0.8834,-0.8834,-0.8801,-0.8777,-0.8659,-0.8537,-0.8404,-0.8313,-0.8143,0.0,0.0,-0.7988,-0.7988,-0.7988,-0.7988,-0.7988,-0.7988,-0.7988,-0.8137,-0.8627,0.0,0.0,0.0,0.0,0.0,0.0,0.0,-1.3511,-1.3648,-1.4042,-1.375,-1.3648,-1.4007,-1.375,0.0,0.0,0.0,0.0,0.0,0.0,0.0,0.0,0.0,0.0,0.0,0.0,0.0,0.0,0.0,0.0,0.0,0.0,0.0,0.0,0.0,0.0,0.0,0.0,0.0,0.0,0.0,0.0,0.0,0.0,0.0,0.0,0.0,0.0,0.0,0.0,0.0,-0.7237,-0.7392,-0.8361,-0.9476,-0.9642,0.0,0.0,-1.0877,-1.1094,-1.1131,-1.0819,-0.9971,-0.9108,-0.8431,0.0,0.0,-0.6008,-0.5912,-0.5902,-0.5941,-0.6161,0.0,0.0,0.0,0.0,0.0,0.0,0.0,0.0,0.0,0.0,0.0,0.0,0.0,0.0,0.0,0.0,0.0,-0.9217,-0.9086,-0.8888,-0.8885,-0.8885,-0.8885,-0.8801,-0.873,-0.873,-0.8591,-0.8516,-0.8503,-0.8489,-0.8404,-0.8323,-0.8255,0.0,0.0,-0.7988,-0.7988,-0.7988,-0.7988,-0.7988,-0.7988,-0.7988,-0.8627,-0.9608,0.0,0.0,0.0,0.0,0.0,0.0,0.0,-1.3511,-1.3648,-1.4042,-1.375,-1.3656,-1.405,-1.3742,-1.3571,0.0,0.0,0.0,0.0,0.0,0.0,0.0,0.0,0.0,0.0,0.0,0.0,0.0,0.0,0.0,0.0,0.0,0.0,0.0,0.0,0.0,0.0,0.0,0.0,0.0,0.0,0.0,0.0,0.0,0.0,0.0,0.0,0.0,0.0,0.0,0.0,0.0,-0.636,-0.6998,0.0,0.0,-0.9353,-0.9949,-1.0493,-1.085,-1.0941,-1.0551,-0.9734,-0.8787,-0.8005,0.0,0.0,-0.597,-0.5902,-0.5941,-0.6099,-0.6219,-0.6358,0.0,0.0,0.0,0.0,0.0,0.0,0.0,0.0,0.0,0.0,0.0,0.0,0.0,0.0,0.0,0.0,-0.9069,-0.8998,-0.8885,-0.8885,-0.8841,-0.8801,-0.874,-0.8665,-0.857,-0.8513,-0.8482,-0.8479,-0.8394,-0.8374,-0.8316,-0.8174,0.0,0.0,-0.7988,-0.7988,-0.7988,-0.7988,-0.7988,-0.7988,-0.7988,-0.8283,-0.8775,0.0,0.0,0.0,0.0,0.0,0.0,-1.3511,-1.3511,-1.3648,-1.4042,-1.375,-1.3656,-1.405,-1.3742,-1.3511,-1.3511,0.0,0.0,0.0,0.0,0.0,0.0,0.0,0.0,0.0,0.0,0.0,0.0,0.0,0.0,0.0,0.0,0.0,0.0,0.0,0.0,0.0,0.0,0.0,0.0,0.0,0.0,0.0,0.0,0.0,0.0,0.0,0.0,0.0,0.0,0.0,0.0,0.0,0.0,0.0,0.0,-0.8381,-0.9143,-0.9781,-1.0253,-1.0517,-1.0114,-0.9313,-0.8405,0.0,0.0,-0.6069,-0.5875,-0.5747,-0.5825,-0.6138,-0.618,-0.6219,0.0,0.0,0.0,0.0,0.0,0.0,0.0,0.0,0.0,0.0,0.0,0.0,0.0,0.0,0.0,0.0,-0.9018,-0.8885,-0.8885,-0.8841,-0.8818,-0.8713,-0.8625,-0.8526,-0.8418,-0.8374,-0.835,-0.8347,-0.8248,-0.8204,-0.8197,0.0,0.0,0.0,-0.7988,-0.7988,-0.7988,-0.7988,-0.7988,-0.7988,-0.7988,-0.7988,-0.8137,0.0,0.0,0.0,0.0,0.0,0.0,0.0,-1.3511,-1.3648,-1.4042,-1.375,-1.3656,-1.405,-1.3742,-1.3511,-1.3511,0.0,0.0,0.0,0.0,0.0,0.0,0.0,0.0,0.0,0.0,0.0,-1.1926,-1.1926,0.0,0.0,0.0,0.0,0.0,0.0,0.0,0.0,0.0,0.0,0.0,0.0,0.0,0.0,0.0,0.0,0.0,0.0,0.0,0.0,0.0,0.0,0.0,0.0,0.0,0.0,0.0,-0.7407,-0.8422,-0.8572,-0.9207,-0.9761,-0.9462,-0.8716,-0.7898,0.0,0.0,-0.5519,-0.5587,-0.544,-0.5437,-0.5822,-0.5902,-0.598,-0.6261,-0.6419,0.0,0.0,0.0,0.0,0.0,0.0,0.0,0.0,0.0,0.0,0.0,0.0,0.0,0.0,-0.9018,-0.8885,-0.8885,-0.8791,-0.8713,-0.871,-0.8421,-0.8327,-0.8323,-0.8116,-0.7995,-0.7995,-0.7992,-0.7992,0.0,0.0,0.0,0.0,-0.7988,-0.7988,-0.7988,-0.7988,-0.7988,-0.7988,-0.7988,-0.7988,-0.8137,0.0,0.0,0.0,0.0,0.0,0.0,0.0,-1.3511,-1.3554,-1.3682,-1.3588,-1.3554,-1.3682,-1.3579,-1.3511,-1.3511,0.0,0.0,0.0,0.0,0.0,0.0,0.0,0.0,0.0,0.0,-1.2177,-1.1615,-1.1796,-1.188,-1.192,0.0,0.0,0.0,0.0,0.0,0.0,0.0,0.0,0.0,0.0,0.0,0.0,0.0,0.0,0.0,0.0,0.0,0.0,0.0,0.0,0.0,0.0,0.0,0.0,-0.5436,0.0,0.0,-0.7661,-0.8061,-0.8278,-0.8091,-0.7703,-0.7276,-0.6898,-0.6373,-0.5956,-0.5817,-0.5747,-0.5747,-0.586,-0.606,-0.621,-0.639,-0.648,0.0,0.0,0.0,0.0,0.0,0.0,0.0,0.0,0.0,0.0,0.0,0.0,0.0,0.0,-0.871,-0.8676,-0.8777,-0.8733,-0.8615,-0.8411,-0.8319,-0.8218,-0.8113,-0.817,-0.8143,-0.7992,-0.815,0.0,0.0,0.0,0.0,0.0,-0.7988,-0.7988,-0.7988,-0.7988,-0.7988,-0.7988,-0.7988,-0.7988,-0.8038,0.0,0.0,0.0,0.0,0.0,0.0,0.0,-1.3511,-1.3511,-1.3511,-1.3511,-1.3511,-1.3511,-1.3511,-1.3511,-1.3511,0.0,0.0,0.0,0.0,0.0,0.0,0.0,0.0,0.0,-1.2079,-1.1916,-1.1188,-1.1351,-1.1483,-1.1573,-1.1449,-1.1333,0.0,0.0,0.0,0.0,0.0,0.0,0.0,0.0,0.0,-0.8173,0.0,0.0,0.0,0.0,0.0,0.0,0.0,0.0,0.0,0.0,0.0,0.0,0.0,-0.5399,0.0,0.0,-0.7048,-0.722,-0.7182,-0.6886,0.0,0.0,-0.6075,-0.5853,-0.5805,-0.5789,-0.5828,-0.6022,-0.6099,-0.6207,-0.638,-0.6433,0.0,0.0,0.0,0.0,0.0,0.0,0.0,0.0,0.0,0.0,0.0,0.0,0.0,0.0,0.0,-0.8503,-0.8543,-0.8543,-0.8459,-0.8323,-0.8211,-0.8136,-0.7992,-0.8136,-0.8133,-0.7992,-0.814,0.0,0.0,0.0,0.0,0.0,-0.7988,-0.7988,-0.7988,-0.7988,-0.7988,-0.7988,-0.7988,-0.7988,-0.7988,0.0,0.0,0.0,0.0,0.0,0.0,0.0,0.0,0.0,0.0,-1.3511,-1.3511,-1.3511,-1.3511,-1.3511,0.0,0.0,0.0,0.0,0.0,0.0,0.0,0.0,0.0,0.0,-1.2192,-1.1813,-1.0629,-1.0665,-1.0846,-1.1087,-1.1099,-1.1099,-1.1081,-1.1063,0.0,0.0,0.0,0.0,0.0,0.0,0.0,0.0,0.0,0.0,0.0,0.0,0.0,0.0,0.0,0.0,0.0,0.0,0.0,0.0,0.0,0.0,0.0,0.0,0.0,0.0,0.0,0.0,0.0,0.0,-0.5528,0.0,-0.5559,-0.5598,-0.5715,-0.6183,-0.606,-0.6022,-0.6236,-0.6323,0.0,0.0,0.0,0.0,0.0,0.0,0.0,0.0,0.0,0.0,0.0,0.0,0.0,0.0,0.0,-0.8391,-0.8258,-0.8255,-0.8255,-0.8255,-0.8109,-0.7988,-0.7988,-0.8002,-0.8002,-0.7988,-0.8002,0.0,0.0,0.0,0.0,0.0,-0.8002,-0.8002,-0.7988,-0.7988,-0.7988,-0.7988,-0.7988,-0.7988,-0.7988,0.0,0.0,0.0,0.0,0.0,0.0,0.0,0.0,0.0,0.0,0.0,-1.3511,-1.3511,-1.3511,0.0,0.0,0.0,0.0,0.0,0.0,0.0,0.0,0.0,0.0,0.0,-1.1379,-1.0882,-1.0088,-1.0491,-1.0719,-1.0816,-1.1015,-1.1003,-1.0803,-1.0569,-1.0256,0.0,0.0,0.0,0.0,0.0,0.0,0.0,0.0,0.0,0.0,-0.5312,-0.5162,0.0,0.0,0.0,0.0,0.0,0.0,0.0,0.0,-0.5018,-0.5037,-0.5198,0.0,-0.5389,-0.5389,-0.5422,-0.5448,0.0,-0.5361,-0.5359,-0.5559,0.0,0.0,-0.5754,-0.6025,-0.6217,0.0,0.0,0.0,0.0,0.0,0.0,0.0,0.0,0.0,0.0,0.0,0.0,0.0,0.0,0.0,0.0,0.0,-0.813,-0.8096,-0.8096,-0.8096,-0.8096,-0.8008,-0.7988,-0.7992,-0.816,-0.8153,-0.7992,-0.8163,0.0,0.0,0.0,0.0,-0.7998,-0.8167,-0.8147,-0.7988,-0.7988,-0.7988,-0.7988,-0.7988,-0.7988,-0.7988,0.0,0.0,0.0,0.0,0.0,0.0,0.0,0.0,0.0,0.0,0.0,0.0,0.0,0.0,0.0,0.0,0.0,0.0,0.0,0.0,0.0,0.0,0.0,0.0,-1.1509,-1.0976,-1.0464,-0.9907,-1.031,-1.0569,-1.0725,-1.0985,-1.1033,-1.0851,-1.0587,-1.0316,0.0,0.0,0.0,0.0,0.0,0.0,0.0,0.0,0.0,0.0,-0.5225,-0.5089,0.0,-0.5065,-0.5093,-0.5018,0.0,0.0,0.0,0.0,-0.5018,-0.5018,-0.5018,-0.5018,-0.5018,-0.5018,-0.5093,-0.5168,-0.5168,0.0,0.0,0.0,0.0,0.0,0.0,0.0,0.0,0.0,0.0,0.0,0.0,0.0,0.0,0.0,0.0,0.0,0.0,0.0,0.0,0.0,0.0,0.0,0.0,0.0,-0.7988,-0.7988,-0.7988,-0.7988,-0.7988,-0.7988,-0.7988,-0.7992,-0.8126,-0.8123,-0.7992,-0.8126,-0.8157,0.0,0.0,0.0,-0.8147,-0.816,-0.8116,-0.7988,-0.7988,-0.7988,-0.7988,-0.7988,-0.7988,-0.7988,0.0,0.0,0.0,0.0,0.0,0.0,0.0,0.0,0.0,0.0,0.0,0.0,0.0,0.0,0.0,0.0,0.0,0.0,0.0,0.0,0.0,0.0,0.0,-1.2074,-1.1516,-1.0724,-1.0193,-0.9847,-1.0148,-1.0406,-1.0635,-1.0972,-1.1069,-1.0979,-1.0719,-1.0545,0.0,0.0,0.0,0.0,-0.8105,0.0,0.0,0.0,0.0,0.0,0.0,0.0,0.0,-0.4909,-0.5002,-0.5018,-0.5018,0.0,0.0,0.0,0.0,0.0,-0.5018,-0.5018,-0.5018,-0.5018,-0.5018,-0.5018,-0.5018,0.0,0.0,0.0,0.0,0.0,0.0,0.0,0.0,0.0,0.0,0.0,0.0,0.0,0.0,0.0,0.0,0.0,0.0,0.0,0.0,0.0,0.0,0.0,0.0,-0.7988,-0.7988,-0.7988,-0.7988,-0.7988,-0.7988,-0.7988,-0.7988,-0.7988,-0.7988,-0.7988,-0.7988,-0.7988,-0.8109,0.0,0.0,0.0,-0.8225,-0.8119,-0.8012,-0.7988,-0.7988,-0.7988,-0.7988,-0.7988,-0.7988,-0.7988,0.0,0.0,0.0,0.0,0.0,0.0,0.0,0.0,0.0,0.0,0.0,0.0,0.0,0.0,0.0,0.0,0.0,0.0,0.0,0.0,0.0,0.0,-1.232,-1.1609,-1.1516,-1.0288,-0.963,-0.9576,-1.0057,-1.0316,-1.0364,-1.0882,-1.0876,-1.04,-1.0142,-0.9901,-0.9658,-0.9471,-0.9518,-0.9534,-0.7711,0.0,0.0,0.0,0.0,0.0,0.0,0.0,0.0,-0.4822,-0.4893,-0.5018,-0.5018,0.0,0.0,0.0,0.0,0.0,-0.5018,-0.5018,-0.5018,-0.5018,-0.5018,-0.5018,-0.5018,0.0,0.0,0.0,0.0,0.0,0.0,0.0,0.0,0.0,0.0,0.0,0.0,0.0,0.0,0.0,0.0,0.0,0.0,0.0,0.0,0.0,0.0,0.0,0.0,0.0,-0.7988,-0.7988,-0.7988,-0.7988,-0.7988,-0.7988,-0.7988,-0.7988,-0.7988,-0.7988,-0.7988,-0.7988,-0.8002,0.0,0.0,-0.8174,-0.8032,-0.8191,-0.816,-0.7988,-0.7988,-0.7988,-0.7988,-0.7988,-0.7988,-0.7988,0.0,0.0,0.0,0.0,0.0,0.0,0.0,0.0,0.0,0.0,0.0,0.0,0.0,0.0,0.0,0.0,0.0,0.0,0.0,0.0,0.0,-1.3511,-1.2228,-1.1516,-1.1516,-1.0193,-0.9582,-0.9727,-0.9967,-1.0232,-1.0509,-1.0755,-1.0737,-1.0485,-1.0081,-0.9835,-0.9682,-0.9429,-0.9426,-0.9528,0.0,0.0,0.0,0.0,0.0,0.0,0.0,0.0,0.0,0.0,-0.4817,-0.4879,-0.4879,0.0,0.0,0.0,0.0,0.0,-0.5018,-0.5018,-0.5018,-0.5018,-0.5018,-0.5018,-0.5018,0.0,0.0,0.0,0.0,0.0,0.0,0.0,0.0,0.0,0.0,0.0,0.0,0.0,0.0,0.0,0.0,0.0,0.0,0.0,0.0,0.0,0.0,0.0,0.0,0.0,-0.7988,-0.7988,-0.7988,-0.7988,-0.7988,-0.7988,-0.7988,-0.7988,-0.7988,-0.7988,-0.7988,-0.7988,-0.8035,-0.8163,0.0,-0.8153,-0.8163,-0.815,-0.8102,-0.7988,-0.7988,-0.7988,-0.7988,-0.7988,-0.7988,-0.7988,0.0,0.0,0.0,0.0,0.0,0.0,0.0,0.0,0.0,0.0,0.0,0.0,0.0,0.0,0.0,0.0,0.0,0.0,0.0,0.0,-1.3511,-1.3511,-1.2381,-1.1671,-1.1516,-1.0193,-0.9612,-0.9817,-0.9877,-1.0142,-1.0593,-1.0593,-1.0563,-1.0485,-1.0148,-0.9928,-0.9822,-0.945,-0.9454,-0.9564,0.0,0.0,0.0,0.0,0.0,0.0,0.0,0.0,0.0,0.0,0.0,0.0,0.0,0.0,0.0,-0.501,-0.4996,-0.4941,-0.501,-0.4996,-0.4941,-0.501,0.0,-0.5062,-0.5322,0.0,0.0,0.0,0.0,0.0,0.0,0.0,0.0,0.0,0.0,0.0,0.0,0.0,0.0,0.0,0.0,0.0,0.0,0.0,0.0,0.0,0.0,0.0,0.0,0.0,-0.7921,-0.7887,-0.7887,-0.7887,-0.7887,-0.7921,-0.7955,-0.7988,-0.7988,-0.7988,-0.7988,-0.7988,-0.8102,-0.8211,-0.8092,-0.8106,-0.8208,-0.8039,-0.7988,-0.7988,-0.7988,-0.7988,-0.7988,-0.7988,-0.7988,-0.7988,0.0,0.0,0.0,0.0,0.0,0.0,0.0,0.0,0.0,0.0,0.0,0.0,0.0,0.0,0.0,0.0,0.0,0.0,0.0,0.0,-1.3511,-1.3511,-1.2826,-1.2135,-1.1509,-1.0193,-0.9496,-0.9546,-0.9787,-1.0045,-1.0322,-1.0322,-1.0196,-0.9967,-1.0178,-1.0027,-0.9606,-0.9471,-0.9451,-0.9423,-0.8289,0.0,0.0,0.0,0.0,0.0,0.0,0.0,0.0,0.0,0.0,0.0,0.0,0.0,-0.4831,-0.4944,-0.4898,-0.4833,-0.4947,-0.4895,-0.4836,-0.4949,-0.5018,0.0,-0.6258,-0.6678,0.0,-0.6695,0.0,0.0,0.0,0.0,0.0,0.0,0.0,0.0,0.0,0.0,0.0,0.0,0.0,0.0,0.0,0.0,0.0,0.0,0.0,0.0,0.0,0.0,0.0,-0.7634,-0.7631,-0.7631,-0.7631,-0.7763,-0.7899,-0.7988,-0.7988,-0.7988,-0.7988,-0.7988,-0.7995,-0.8005,-0.7995,-0.7995,-0.8005,-0.7995,-0.7988,-0.7988,-0.7988,-0.7988,-0.7988,-0.7988,-0.7988,-0.7988,0.0,0.0,0.0,0.0,0.0,0.0,0.0,0.0,0.0,0.0,0.0,0.0,0.0,0.0,0.0,0.0,0.0,0.0,0.0,0.0,-1.3511,-1.3511,-1.2856,-1.2389,-1.2135,-1.0818,-1.0194,-1.0366,-1.0218,-1.0118,-1.0051,-1.0051,-0.9997,-0.9901,-0.9729,-0.9636,-0.9573,-0.9327,-0.9338,-0.9478,-0.9064,-0.8118,0.0,0.0,0.0,0.0,0.0,0.0,0.0,0.0,-0.4476,-0.4583,0.0,-0.4662,-0.4746,-0.4831,-0.4817,-0.4856,-0.5397,-0.5579,-0.5735,-0.6204,-0.6023,0.0,0.0,-0.7186,-0.7521,0.0,0.0,0.0,0.0,0.0,0.0,0.0,0.0,0.0,0.0,0.0,0.0,0.0,0.0,0.0,0.0,0.0,0.0,0.0,0.0,0.0,0.0,0.0,0.0,-0.7872,-0.778,-0.7777,-0.7872,-0.7877,-0.7931,-0.7988,-0.7988,-0.7988,-0.7988,-0.7988,-0.7988,-0.7988,-0.7988,-0.7988,-0.7988,-0.7988,-0.7988,-0.7988,-0.7988,-0.7988,-0.7988,-0.7988,-0.7988,-0.7988,0.0,0.0,0.0,0.0,0.0,0.0,0.0,0.0,0.0,0.0,0.0,0.0,0.0,0.0,0.0,0.0,0.0,0.0,0.0,-1.3511,-1.3511,-1.3511,-1.307,-1.2818,-1.2818,-1.1492,-1.0794,-1.0777,-1.029,-0.9955,-0.9781,-0.9781,-0.9829,-0.9901,-0.9628,-0.96,-0.9742,-0.9461,-0.9423,-0.9529,-0.9585,-0.8556,0.0,0.0,0.0,0.0,0.0,0.0,0.0,0.0,-0.4352,-0.4457,0.0,0.0,0.0,-0.4741,-0.4871,-0.5084,-0.5695,-0.6096,-0.6467,0.0,0.0,0.0,-0.7361,-0.7955,-0.8263,0.0,0.0,0.0,0.0,0.0,0.0,0.0,0.0,0.0,0.0,0.0,0.0,0.0,0.0,0.0,0.0,0.0,0.0,0.0,0.0,0.0,0.0,0.0,0.0,0.0,-0.7753,-0.7746,-0.785,-0.785,-0.7874,-0.7917,-0.7968,-0.7988,-0.7988,-0.7988,-0.7988,-0.7988,-0.7988,-0.7988,-0.7988,-0.7988,-0.7988,-0.7988,-0.7988,-0.7988,-0.7988,-0.7988,-0.7988,-0.7988,0.0,0.0,0.0,0.0,0.0,0.0,0.0,0.0,0.0,0.0,0.0,0.0,0.0,0.0,0.0,0.0,0.0,0.0,-1.3511,-1.3511,-1.3511,-1.3511,-1.3511,-1.3511,-1.3472,-1.2166,-1.1149,-1.0485,-0.983,-0.9516,-0.9516,-0.9516,-0.966,-0.9886,-0.9972,-1.0019,-1.0105,-0.9935,-0.9796,-0.9614,-0.9619,-0.8612,-0.711,0.0,0.0,0.0,0.0,0.0,0.0,0.0,-0.43,-0.4319,0.0,0.0,0.0,-0.4651,-0.5092,-0.5534,-0.5684,-0.629,-0.6937,0.0,0.0,0.0,0.0,0.0,0.0,0.0,0.0,0.0,0.0,0.0,0.0,0.0,0.0,0.0,0.0,0.0,0.0,0.0,0.0,0.0,0.0,0.0,0.0,0.0,0.0,0.0,0.0,0.0,0.0,0.0,-0.7451,-0.7444,-0.76,-0.76,-0.7672,-0.7811,-0.7914,-0.7985,-0.7988,-0.7988,-0.7988,-0.7988,-0.7988,-0.7988,-0.7988,-0.7988,-0.7988,-0.7988,-0.7988,-0.7988,-0.7988,-0.7988,-0.7988,-0.7988,0.0,0.0,0.0,0.0,0.0,0.0,0.0,0.0,0.0,0.0,0.0,0.0,0.0,0.0,0.0,0.0,0.0,0.0,-1.3511,-1.3511,-1.3511,-1.3511,-1.3511,-1.329,-1.2826,-1.1469,-1.0478,-0.9798,-0.9612,-0.9516,-0.9516,-0.9703,-0.9735,-0.9685,-0.9806,-0.9787,-0.9695,-0.9688,-0.965,-0.963,-0.9755,-0.9173,-0.8191,0.0,0.0,0.0,0.0,0.0,0.0,0.0,0.0,0.0,0.0,0.0,0.0,-0.5212,-0.5665,-0.625,-0.6872,-0.7403,0.0,0.0,0.0,0.0,0.0,0.0,0.0,0.0,0.0,0.0,0.0,0.0,0.0,0.0,0.0,0.0,0.0,0.0,0.0,0.0,0.0,0.0,0.0,0.0,0.0,0.0,0.0,0.0,0.0,0.0,0.0,0.0,-0.7502,-0.7492,-0.7746,-0.7648,-0.7621,-0.7662,-0.7709,-0.7838,-0.7988,-0.7988,-0.7988,-0.7988,-0.7988,-0.7988,-0.7988,-0.7988,-0.7988,-0.7988,-0.7988,-0.7988,-0.7988,-0.7988,-0.7988,-0.7988,0.0,0.0,0.0,0.0,0.0,0.0,0.0,0.0,0.0,0.0,0.0,0.0,0.0,0.0,0.0,0.0,0.0,0.0,0.0,0.0,-1.3511,-1.3511,-1.3511,-1.307,-1.2135,-1.1038,-1.0174,-0.9516,-0.9516,-0.9478,-0.942,-0.9682,-0.9726,-0.9667,-0.9746,-0.9753,-0.9658,-0.9627,-0.9614,-0.9625,-0.9728,-0.9348,-0.8666,0.0,0.0,0.0,0.0,0.0,0.0,0.0,0.0,0.0,-0.4791,0.0,0.0,-0.5484,-0.6081,-0.6955,-0.7441,0.0,0.0,0.0,0.0,0.0,0.0,0.0,0.0,0.0,0.0,0.0,0.0,0.0,0.0,0.0,0.0,0.0,0.0,0.0,0.0,0.0,0.0,0.0,0.0,0.0,0.0,0.0,0.0,0.0,0.0,0.0,0.0,0.0,-0.7319,-0.7309,-0.7543,-0.7461,-0.7448,-0.7509,-0.757,-0.7692,-0.7865,-0.7865,-0.7865,-0.7868,-0.7874,-0.7934,-0.7988,-0.7988,-0.7988,-0.7988,-0.7988,-0.7988,-0.7988,-0.7988,-0.7988,-0.7982,0.0,0.0,0.0,0.0,0.0,0.0,0.0,0.0,0.0,0.0,0.0,0.0,0.0,0.0,0.0,0.0,0.0,0.0,0.0,0.0,-1.3511,-1.3511,-1.3381,-1.2734,-1.1454,-1.0755,-1.011,-0.9516,-0.9484,-0.9414,-0.9312,-0.9478,-0.9644,-0.9758,-0.9766,-0.9793,-0.983,-0.9654,-0.9581,-0.9581,-0.9608,-0.9268,-0.8794,-0.8652,0.0,0.0,0.0,0.0,0.0,0.0,0.0,0.0,-0.5606,-0.587,-0.6264,-0.5672,-0.6498,-0.7596,0.0,0.0,0.0,0.0,0.0,0.0,0.0,0.0,0.0,0.0,0.0,0.0,0.0,0.0,0.0,0.0,0.0,0.0,0.0,0.0,0.0,0.0,0.0,0.0,0.0,0.0,0.0,0.0,0.0,0.0,0.0,0.0,0.0,0.0,-0.6967,-0.696,-0.7115,-0.7092,-0.72,0.0,-0.7492,-0.7556,-0.756,-0.7587,-0.76,-0.7607,-0.7736,-0.7872,-0.7948,-0.7948,-0.7948,-0.7948,-0.7948,-0.7948,-0.7948,-0.7948,-0.7948,-0.7931,0.0,0.0,0.0,0.0,0.0,0.0,0.0,0.0,0.0,0.0,0.0,0.0,0.0,0.0,0.0,0.0,0.0,0.0,0.0,0.0,-1.3511,-1.3511,-1.2473,-1.1555,-1.0724,-1.0047,-0.9638,-0.9516,-0.9408,-0.9338,-0.9312,-0.9406,-0.9497,-0.9578,-0.9558,-0.9474,-0.9357,-0.9317,-0.9287,-0.9303,-0.9497,-0.9606,-0.9631,-0.9437,-0.8661,0.0,0.0,0.0,0.0,0.0,0.0,0.0,-0.6034,-0.6264,-0.6494,-0.6896,-0.7619,-0.8321,0.0,0.0,0.0,0.0,0.0,0.0,0.0,0.0,0.0,0.0,0.0,0.0,0.0,0.0,0.0,0.0,0.0,0.0,0.0,0.0,0.0,0.0,0.0,0.0,0.0,0.0,0.0,0.0,0.0,0.0,0.0,0.0,0.0,-0.7319,-0.7068,-0.7054,-0.7319,-0.7092,-0.7004,0.0,-0.7179,-0.7193,-0.7203,-0.7489,-0.76,-0.76,-0.7631,-0.7662,-0.7695,-0.7695,-0.7695,-0.7695,-0.7695,-0.7695,-0.7695,-0.7695,-0.7695,-0.7689,0.0,0.0,0.0,0.0,0.0,0.0,0.0,0.0,0.0,0.0,0.0,0.0,0.0,0.0,0.0,0.0,0.0,0.0,0.0,0.0,0.0,-1.3039,-1.1741,-1.085,-1.0516,-0.983,-0.9516,-0.9516,-0.928,-0.9145,-0.9151,-0.9241,-0.9231,-0.9227,-0.9308,-0.9256,-0.9044,-0.9044,-0.9044,-0.906,-0.9303,-0.9545,-0.9755,-0.9744,-0.9083,-0.8212,-0.8404,0.0,0.0,0.0,0.0,0.0,0.0,0.0,-0.7423,-0.7489,-0.7987,-0.8544,0.0,0.0,0.0,0.0,0.0,0.0,0.0,0.0,0.0,0.0,0.0,0.0,0.0,0.0,0.0,0.0,0.0,0.0,0.0,0.0,0.0,0.0,0.0,0.0,0.0,0.0,0.0,0.0,0.0,0.0,0.0,-0.6488,-0.6603,-0.6725,-0.6651,-0.6685,-0.688,-0.6753,-0.6749,-0.682,-0.6895,-0.6929,-0.6939,-0.7241,-0.7421,-0.7492,-0.7492,-0.7533,-0.76,-0.76,-0.76,-0.76,-0.76,-0.76,-0.76,-0.76,-0.76,-0.759,0.0,0.0,0.0,0.0,0.0,0.0,0.0,0.0,0.0,0.0,0.0,0.0,0.0,0.0,0.0,0.0,0.0,0.0,0.0,0.0,0.0,-1.2358,-1.1156,-1.0453,-1.0333,-0.9766,-0.9478,-0.9478,-0.9119,0.0,0.0,0.0,0.0,-0.89,-0.9017,-0.9001,-0.8895,-0.8852,-0.8857,-0.8917,-0.9066,-0.9292,-0.9534,-0.9728,-0.9161,-0.8383,-0.8938,-0.8529,-0.7754,-0.8182,0.0,0.0,0.0,0.0,-0.7862,-0.7466,-0.7718,-0.816,0.0,0.0,0.0,0.0,0.0,0.0,0.0,0.0,0.0,0.0,0.0,0.0,0.0,0.0,0.0,0.0,0.0,0.0,0.0,0.0,0.0,0.0,0.0,0.0,0.0,0.0,0.0,0.0,0.0,0.0,-0.584,-0.5986,-0.6043,-0.6067,-0.6207,-0.6323,-0.6375,-0.6443,-0.6501,-0.6552,-0.6641,-0.6702,-0.6709,-0.691,-0.7149,-0.7295,-0.7295,-0.738,-0.7519,-0.7519,-0.7519,-0.7519,-0.7519,-0.7519,-0.7519,-0.7519,-0.7519,-0.7502,0.0,0.0,0.0,0.0,0.0,0.0,0.0,0.0,0.0,0.0,0.0,0.0,0.0,0.0,0.0,0.0,0.0,0.0,-1.3511,0.0,0.0,-1.1664,-1.0912,-1.0238,-0.9638,-0.944,-0.9338,-0.9338,0.0,0.0,0.0,0.0,0.0,-0.889,0.0,-0.8705,-0.8884,-0.8646,-0.8678,-0.89,-0.8933,-0.9084,-0.926,-0.9287,-0.9101,-0.8808,-0.891,-0.8704,-0.8284,-0.7787,-0.7223,0.0,0.0,0.0,0.0,-0.6519,-0.6689,-0.6861,0.0,0.0,0.0,0.0,0.0,0.0,0.0,0.0,0.0,0.0,0.0,0.0,0.0,0.0,0.0,0.0,0.0,0.0,0.0,0.0,0.0,0.0,0.0,0.0,0.0,0.0,0.0,0.0,0.0,0.0,-0.5963,-0.6146,-0.6327,-0.645,-0.6354,-0.6422,-0.6637,-0.6446,-0.6457,-0.6671,-0.6692,-0.6702,-0.6702,-0.6742,-0.6844,-0.6987,-0.6987,-0.7028,-0.7156,-0.7156,-0.7156,-0.7156,-0.7156,-0.7156,-0.7156,-0.7156,-0.7156,-0.7152,0.0,0.0,0.0,0.0,0.0,0.0,0.0,0.0,0.0,0.0,0.0,0.0,0.0,0.0,0.0,-1.322,-1.3417,-1.3351,-1.2978,-1.232,-1.1609,-1.086,-1.0186,-0.9626,-0.9215,-0.9151,-0.9145,-0.9145,0.0,0.0,0.0,-0.8582,-0.8571,0.0,0.0,0.0,0.0,0.0,0.0,-0.8678,-0.8846,-0.8954,-0.9028,-0.9157,-0.906,-0.8895,-0.8895,-0.8711,-0.8452,0.0,-0.7591,-0.704,-0.7096,0.0,0.0,0.0,0.0,0.0,0.0,0.0,0.0,0.0,0.0,0.0,0.0,0.0,0.0,0.0,0.0,0.0,0.0,0.0,0.0,0.0,0.0,0.0,0.0,0.0,0.0,0.0,0.0,0.0,0.0,0.0,0.0,0.0,0.0,-0.5654,-0.5654,-0.5803,-0.5948,-0.5976,-0.5993,-0.6067,-0.6196,-0.6067,-0.6067,-0.6196,-0.6285,-0.6325,-0.6329,-0.6413,-0.658,-0.68,-0.68,-0.6885,-0.6977,-0.6977,-0.7024,-0.7095,-0.7095,-0.7095,-0.7095,-0.7095,-0.7095,-0.7095,0.0,0.0,0.0,0.0,0.0,0.0,0.0,0.0,0.0,0.0,0.0,0.0,0.0,0.0,0.0,0.0,-1.3169,-1.2867,-1.2316,-1.1596,-1.0892,-1.0237,-0.9582,-0.9145,-0.9017,-0.8958,-0.8958,0.0,0.0,0.0,-0.8705,-0.8582,-0.8517,0.0,-0.8576,-0.8603,0.0,0.0,0.0,0.0,0.0,-0.8809,-0.8825,0.0,0.0,-0.8809,-0.8809,0.0,0.0,0.0,0.0,0.0,0.0,0.0,0.0,0.0,0.0,0.0,0.0,0.0,0.0,0.0,0.0,0.0,0.0,0.0,0.0,0.0,0.0,0.0,0.0,0.0,0.0,0.0,0.0,0.0,0.0,0.0,0.0,0.0,0.0,0.0,0.0,0.0,0.0,0.0,0.0,-0.5395,-0.5395,-0.5504,-0.5549,-0.5589,-0.5691,-0.5766,-0.58,-0.58,-0.5783,-0.5749,-0.5898,-0.5956,-0.5996,-0.6149,-0.6342,-0.659,-0.6627,-0.6729,-0.6829,-0.6829,-0.6889,-0.6991,-0.7028,-0.7018,-0.6991,-0.7028,-0.7018,-0.6984,0.0,0.0,0.0,0.0,0.0,0.0,0.0,0.0,0.0,0.0,0.0,0.0,-1.1874,-1.1946,-1.2128,-1.244,-1.2226,-1.1971,-1.1746,-1.0863,-1.0268,-1.0015,-0.9358,0.0,-0.8985,-0.8861,0.0,0.0,0.0,0.0,-0.8511,-0.8517,-0.8517,-0.8522,-0.8782,-0.8879,-0.8879,0.0,0.0,0.0,0.0,0.0,0.0,0.0,0.0,0.0,0.0,0.0,0.0,0.0,0.0,0.0,0.0,0.0,0.0,0.0,0.0,0.0,0.0,0.0,0.0,0.0,0.0,0.0,0.0,0.0,0.0,0.0,0.0,0.0,0.0,0.0,0.0,0.0,0.0,0.0,0.0,0.0,0.0,0.0,0.0,0.0,0.0,0.0,0.0,0.0,0.0,-0.5395,-0.5395,-0.5402,-0.5474,-0.5586,-0.5596,-0.5664,-0.58,-0.58,-0.5735,-0.5603,-0.5745,-0.5888,-0.5993,-0.6,-0.6132,-0.633,-0.6467,-0.6569,-0.6712,-0.6712,-0.6715,-0.6736,-0.6839,-0.6851,-0.6742,-0.6846,-0.6848,-0.6722,0.0,0.0,0.0,0.0,0.0,0.0,0.0,0.0,0.0,0.0,0.0,0.0,0.0,-1.1958,-1.2128,-1.2451,-1.217,-1.1669,-1.0856,-1.0499,-0.9996,-0.9274,-0.899,-0.8797,-0.8673,-0.8641,0.0,0.0,0.0,-0.8517,-0.8517,-0.8517,-0.8517,-0.8528,-0.8792,-0.8814,-0.8651,-0.8836,0.0,0.0,0.0,0.0,0.0,0.0,0.0,0.0,0.0,0.0,0.0,0.0,0.0,0.0,0.0,0.0,0.0,0.0,0.0,0.0,0.0,0.0,0.0,0.0,0.0,0.0,0.0,0.0,0.0,0.0,0.0,0.0,0.0,0.0,0.0,0.0,0.0,0.0,0.0,0.0,0.0,0.0,0.0,0.0,0.0,0.0,0.0,0.0,0.0,0.0,-0.5223,-0.5326,-0.5419,-0.5477,-0.5477,-0.5501,-0.5552,-0.5552,-0.5528,-0.5481,-0.5593,-0.5694,-0.5749,-0.584,-0.5915,-0.5969,-0.602,-0.6237,-0.6556,-0.6556,-0.6614,-0.6705,-0.6759,-0.6749,-0.6709,-0.6763,-0.6749,-0.6702,0.0,0.0,0.0,0.0,0.0,0.0,0.0,0.0,0.0,0.0,0.0,0.0,0.0,0.0,-1.1555,-1.1511,-1.1319,-1.0853,-1.0,-0.9844,-0.946,-0.8738,-0.8705,-0.8641,-0.8517,-0.8517,-0.8517,0.0,0.0,0.0,0.0,-0.8517,-0.8517,-0.8528,-0.8792,-0.8809,0.0,0.0,0.0,-0.8613,0.0,0.0,-0.8511,0.0,0.0,0.0,0.0,0.0,0.0,0.0,0.0,0.0,0.0,0.0,0.0,0.0,0.0,0.0,0.0,0.0,0.0,0.0,0.0,0.0,0.0,0.0,0.0,0.0,0.0,0.0,0.0,0.0,0.0,0.0,0.0,0.0,0.0,0.0,0.0,0.0,0.0,0.0,0.0,0.0,0.0,0.0,0.0,0.0,-0.5087,-0.5223,-0.5292,-0.5292,-0.5362,-0.5395,-0.5395,-0.5395,-0.5395,-0.5395,-0.5498,-0.5542,-0.5593,-0.5688,-0.5755,-0.5803,-0.5857,-0.6047,-0.6322,-0.6322,-0.6413,-0.6559,-0.6607,-0.6597,-0.6559,-0.6607,-0.6593,-0.6552,0.0,0.0,0.0,0.0,0.0,0.0,0.0,0.0,0.0,0.0,0.0,0.0,0.0,0.0,0.0,-0.9567,-0.9618,-0.956,-0.9211,-0.8943,-0.8705,-0.8517,-0.8517,-0.8517,-0.8517,-0.8517,-0.8517,0.0,0.0,0.0,0.0,0.0,-0.8517,-0.8522,-0.8787,-0.8884,-0.889,0.0,-0.8895,-0.8817,0.0,-0.7984,-0.8419,0.0,0.0,0.0,-0.751,-0.7239,0.0,0.0,0.0,0.0,0.0,0.0,0.0,0.0,0.0,0.0,0.0,0.0,0.0,0.0,0.0,0.0,0.0,0.0,0.0,0.0,0.0,0.0,0.0,0.0,0.0,0.0,0.0,0.0,0.0,0.0,0.0,0.0,0.0,0.0,0.0,0.0,0.0,0.0,0.0,-0.5087,-0.5087,-0.5087,-0.512,-0.512,-0.5292,-0.5395,-0.5395,-0.5395,-0.5395,-0.5395,-0.5395,-0.5474,-0.5583,-0.5583,-0.5657,-0.5796,-0.5909,-0.5976,-0.5979,-0.5993,-0.6125,-0.6313,-0.6453,-0.6422,-0.6317,-0.6457,-0.6419,-0.63,0.0,0.0,0.0,0.0,0.0,0.0,0.0,0.0,0.0,0.0,0.0,0.0,-1.1661,-1.1174,-1.045,-0.9587,-0.9524,-0.9378,-0.8946,-0.8828,-0.8705,-0.8517,-0.8517,-0.8517,-0.8517,-0.8517,-0.8517,0.0,0.0,0.0,0.0,0.0,0.0,0.0,-0.8581,-0.8608,-0.8624,-0.8825,0.0,0.0,-0.8557,-0.8174,0.0,0.0,0.0,0.0,0.0,-0.5747,0.0,0.0,-0.4638,-0.4955,0.0,0.0,0.0,0.0,0.0,0.0,-0.3928,0.0,0.0,0.0,0.0,0.0,0.0,0.0,0.0,0.0,0.0,0.0,0.0,0.0,0.0,0.0,0.0,0.0,0.0,0.0,0.0,0.0,0.0,0.0,0.0,0.0,0.0,0.0,-0.4694,-0.4894,-0.4894,-0.516,-0.5326,-0.5326,-0.5362,-0.5395,-0.5395,-0.5395,-0.5395,-0.5395,-0.5395,-0.5419,-0.5457,-0.5457,-0.5481,-0.5521,-0.5562,-0.561,-0.5735,-0.6064,-0.6259,-0.6303,-0.6344,-0.6334,-0.6306,-0.6344,-0.6334,-0.63,0.0,0.0,0.0,0.0,0.0,0.0,0.0,0.0,0.0,0.0,0.0,0.0,-1.0947,-1.0541,-0.9939,-0.9139,-0.9177,-0.9049,-0.8705,-0.8673,-0.8608,-0.8517,-0.8517,-0.8517,-0.8517,-0.8517,-0.8517,0.0,0.0,0.0,0.0,0.0,0.0,0.0,0.0,0.0,0.0,0.0,0.0,0.0,-0.7985,0.0,0.0,-0.6668,-0.6179,0.0,0.0,0.0,-0.5068,-0.4106,-0.4128,0.0,0.0,0.0,0.0,0.0,0.0,0.0,0.0,0.0,0.0,0.0,0.0,0.0,0.0,-0.508,0.0,0.0,0.0,0.0,0.0,0.0,0.0,0.0,0.0,0.0,0.0,0.0,0.0,0.0,0.0,0.0,0.0,0.0,0.0,-0.43,-0.4564,-0.4728,-0.4728,-0.506,-0.5226,-0.5163,-0.5329,-0.5395,-0.5395,-0.5395,-0.5395,-0.5395,-0.5395,-0.5395,-0.5395,-0.5395,-0.5395,-0.5399,-0.5359,-0.5439,-0.5567,-0.5847,-0.6015,-0.6119,-0.6248,-0.6259,-0.6173,-0.6276,-0.63,-0.63,0.0,0.0,0.0,0.0,0.0,0.0,0.0,0.0,0.0,0.0,0.0,-1.0775,-0.9996,-0.9646,-0.9204,-0.8549,-0.8679,-0.8673,-0.8517,-0.8517,-0.8517,-0.8517,-0.8517,-0.8517,-0.8517,-0.8517,0.0,0.0,0.0,0.0,0.0,0.0,0.0,0.0,0.0,0.0,0.0,0.0,0.0,-0.8203,-0.6907,-0.6707,0.0,0.0,-0.5255,0.0,-0.4832,-0.4562,-0.448,-0.3815,-0.3657,0.0,0.0,0.0,0.0,0.0,-0.3627,0.0,0.0,0.0,0.0,0.0,0.0,0.0,-0.3961,-0.3995,-0.4028,0.0,0.0,0.0,0.0,0.0,0.0,0.0,0.0,0.0,0.0,0.0,0.0,0.0,0.0,0.0,0.0,-0.43,-0.43,-0.43,-0.4495,-0.4592,-0.4625,-0.4891,-0.499,-0.4831,-0.5163,-0.5362,-0.5395,-0.5362,-0.5362,-0.5362,-0.5329,-0.5329,-0.5329,-0.5329,-0.5329,-0.5336,-0.5279,-0.5345,-0.5437,-0.5467,-0.5577,-0.5805,-0.6097,-0.6124,-0.5992,-0.6134,-0.6192,-0.6219,0.0,0.0,0.0,0.0,0.0,0.0,0.0,0.0,0.0,0.0,0.0,0.0,0.0,0.0,-0.9113,-0.8544,-0.8549,-0.8549,-0.8517,-0.8517,0.0,-0.8517,-0.8517,-0.8517,-0.8517,-0.8517,0.0,0.0,0.0,0.0,0.0,0.0,0.0,0.0,0.0,0.0,0.0,0.0,0.0,-0.7036,-0.703,0.0,-0.6135,-0.5023,-0.4338,-0.3951,-0.3612,-0.3589,-0.3727,0.0,-0.3522,-0.356,0.0,0.0,0.0,0.0,0.0,0.0,0.0,0.0,0.0,0.0,0.0,0.0,-0.3825,-0.3825,-0.3859,0.0,0.0,0.0,0.0,0.0,0.0,0.0,0.0,0.0,0.0,0.0,0.0,0.0,0.0,0.0,0.0,-0.43,-0.43,-0.43,-0.4495,-0.4661,-0.4761,-0.4827,-0.4927,-0.5024,-0.496,-0.5063,-0.5395,-0.5096,-0.4994,-0.5156,-0.4994,-0.493,-0.493,-0.493,-0.493,-0.4937,-0.5008,-0.5085,-0.5119,-0.5215,-0.5418,-0.5628,-0.5648,-0.5676,-0.565,-0.5529,-0.5598,-0.5738,0.0,0.0,0.0,0.0,0.0,0.0,0.0,0.0,0.0,0.0,0.0,0.0,0.0,0.0,0.0,0.0,0.0,-0.8517,0.0,0.0,0.0,0.0,0.0,0.0,0.0,0.0,0.0,0.0,0.0,0.0,0.0,0.0,0.0,0.0,0.0,0.0,0.0,0.0,-0.6999,-0.6038,-0.6396,0.0,-0.5239,-0.4229,-0.3685,-0.3413,-0.3277,-0.3316,-0.3426,-0.3379,-0.3434,0.0,0.0,-0.3468,-0.3434,0.0,-0.333,-0.3192,0.0,0.0,0.0,-0.3362,0.0,0.0,0.0,-0.3661,0.0,0.0,0.0,0.0,0.0,0.0,0.0,0.0,0.0,0.0,0.0,0.0,0.0,0.0,0.0,0.0,0.0,-0.43,-0.43,-0.43,-0.4398,-0.4464,-0.4531,-0.4631,-0.4758,-0.4858,-0.4827,-0.4897,-0.5096,-0.4897,-0.4861,-0.4957,-0.4861,-0.4797,-0.4797,-0.4797,-0.4797,-0.48,-0.48,-0.4834,-0.4865,-0.4853,-0.4957,-0.5173,-0.5395,-0.543,-0.5368,-0.5405,-0.5411,-0.5461,0.0,0.0,0.0,0.0,0.0,0.0,0.0,0.0,0.0,0.0,0.0,0.0,0.0,0.0,0.0,0.0,0.0,0.0,0.0,0.0,0.0,0.0,0.0,-0.8382,0.0,0.0,0.0,0.0,0.0,0.0,0.0,0.0,0.0,0.0,0.0,0.0,0.0,0.0,0.0,-0.508,0.0,-0.5245,-0.4551,-0.3621,-0.3307,-0.3362,-0.3252,-0.3275,-0.3364,-0.3273,0.0,-0.346,-0.3422,-0.3399,0.0,0.0,0.0,0.0,0.0,0.0,0.0,0.0,0.0,-0.3228,0.0,0.0,0.0,0.0,0.0,0.0,0.0,0.0,0.0,0.0,0.0,0.0,0.0,0.0,0.0,0.0,0.0,0.0,0.0,-0.4287,-0.43,-0.43,-0.43,-0.43,-0.43,-0.4464,-0.4558,-0.4592,-0.4661,-0.4731,-0.4797,-0.4731,-0.4731,-0.4764,-0.4731,-0.4697,-0.4697,-0.4697,-0.4697,-0.47,-0.4621,-0.4634,-0.4682,-0.4549,-0.4577,-0.4734,-0.5139,-0.5198,-0.5049,-0.5219,-0.5243,-0.5189,-0.9588,-0.9848,0.0,0.0,0.0,0.0,0.0,0.0,0.0,0.0,0.0,0.0,0.0,0.0,0.0,0.0,0.0,0.0,-0.8236,0.0,0.0,0.0,0.0,0.0,-0.7624,0.0,0.0,0.0,0.0,0.0,0.0,0.0,0.0,0.0,-0.5107,0.0,0.0,0.0,-0.5279,0.0,-0.4514,-0.4619,0.0,-0.373,-0.3368,-0.3206,-0.3196,-0.3198,-0.3252,0.0,-0.3397,-0.3412,0.0,-0.3399,0.0,0.0,0.0,0.0,0.0,0.0,0.0,0.0,-0.3192,0.0,0.0,0.0,0.0,0.0,0.0,0.0,0.0,0.0,0.0,0.0,0.0,0.0,0.0,0.0,0.0,0.0,0.0,0.0,0.0,0.0,-0.43,-0.43,-0.43,-0.43,-0.43,-0.4334,-0.4431,-0.4592,-0.4431,-0.45,-0.4797,-0.45,-0.4431,-0.4625,-0.4431,-0.4367,-0.4367,-0.4367,-0.4367,-0.4372,-0.4475,-0.4591,-0.4695,-0.455,-0.4577,-0.4679,-0.4618,-0.4667,-0.4717,-0.4497,-0.4589,-0.4745,-0.9899,-1.0009,0.0,0.0,0.0,0.0,0.0,0.0,0.0,0.0,0.0,0.0,0.0,0.0,0.0,0.0,0.0,-0.8076,0.0,0.0,0.0,0.0,0.0,0.0,0.0,0.0,0.0,0.0,-0.5315,0.0,0.0,0.0,0.0,0.0,-0.3987,0.0,-0.412,0.0,0.0,0.0,0.0,0.0,0.0,-0.3426,-0.3261,-0.3192,-0.3192,-0.3192,-0.3198,0.0,-0.332,0.0,0.0,0.0,0.0,0.0,0.0,0.0,0.0,0.0,0.0,0.0,0.0,0.0,0.0,0.0,-0.3192,0.0,0.0,0.0,0.0,0.0,0.0,0.0,0.0,0.0,0.0,0.0,0.0,0.0,0.0,0.0,0.0,0.0,0.0,0.0,0.0,-0.43,-0.43,-0.43,-0.4334,-0.4431,-0.4334,-0.4367,-0.45,-0.4367,-0.4334,-0.4431,-0.4334,-0.43,-0.43,-0.43,-0.43,-0.4303,-0.4352,-0.4401,-0.4479,-0.4393,-0.4401,-0.4476,-0.4393,-0.4404,-0.4479,-0.4446,-0.4454,-0.4476,-0.9939,0.0,0.0,0.0,0.0,0.0,0.0,0.0,0.0,0.0,0.0,0.0,-0.8517,-0.842,0.0,0.0,0.0,-0.773,0.0,0.0,-0.7391,0.0,0.0,0.0,0.0,0.0,0.0,0.0,0.0,0.0,0.0,0.0,0.0,0.0,0.0,-0.3192,-0.3226,0.0,0.0,-0.3259,-0.3789,-0.3692,-0.3192,-0.3192,-0.3192,-0.3192,-0.3192,-0.3192,-0.3192,-0.3192,-0.3287,0.0,-0.3368,0.0,0.0,0.0,0.0,0.0,-0.3192,0.0,0.0,0.0,0.0,0.0,0.0,0.0,0.0,0.0,0.0,0.0,0.0,0.0,0.0,0.0,0.0,0.0,0.0,0.0,0.0,0.0,0.0,0.0,0.0,0.0,0.0,-0.43,-0.43,-0.43,-0.43,-0.43,-0.43,-0.43,-0.43,-0.4317,-0.4346,-0.4346,-0.4363,-0.4395,-0.4363,-0.4346,-0.4346,-0.4314,-0.43,-0.43,-0.43,-0.4319,-0.4344,-0.4314,-0.4319,-0.4344,-0.4314,-0.43,-0.4311,-0.4393,-0.4371,-0.43,-0.95,-1.0389,0.0,0.0,0.0,0.0,0.0,0.0,0.0,0.0,0.0,0.0,0.0,0.0,0.0,0.0,0.0,-0.7408,-0.7146,0.0,-0.7097,0.0,0.0,0.0,0.0,0.0,0.0,0.0,0.0,0.0,0.0,0.0,0.0,0.0,0.0,-0.3192,-0.3192,-0.3226,-0.3226,-0.3192,-0.3226,-0.3226,-0.3192,0.0,-0.3192,-0.3192,-0.3192,0.0,0.0,-0.3192,-0.3287,0.0,0.0,0.0,0.0,0.0,0.0,0.0,0.0,0.0,0.0,-0.3192,0.0,0.0,0.0,0.0,-0.3192,0.0,0.0,0.0,0.0,0.0,0.0,0.0,0.0,0.0,0.0,0.0,0.0,0.0,0.0,0.0,0.0,0.0,0.0,-0.43,-0.43,-0.43,-0.43,-0.43,-0.43,-0.43,-0.43,-0.4352,-0.4498,-0.4498,-0.4558,-0.4676,-0.4555,-0.4498,-0.4495,-0.4352,-0.43,-0.43,-0.43,-0.4363,-0.449,-0.4346,-0.4365,-0.4487,-0.4344,-0.43,-0.43,-0.4306,-0.4303,-0.43,0.0,0.0,0.0,0.0,0.0,0.0,0.0,-0.8829,0.0,0.0,0.0,0.0,0.0,0.0,-0.753,0.0,0.0,-0.6813,-0.6156,-0.6539,0.0,0.0,0.0,-0.5646,0.0,0.0,0.0,0.0,0.0,0.0,0.0,0.0,0.0,0.0,0.0,-0.3192,0.0,0.0,0.0,0.0,0.0,-0.3192,-0.3192,0.0,0.0,-0.3192,-0.3192,-0.3192,0.0,-0.3192,-0.3214,-0.3269,-0.3202,-0.3248,-0.3267,-0.3202,-0.3192,0.0,0.0,0.0,-0.2551,-0.2551,0.0,0.0,0.0,0.0,0.0,0.0,0.0,0.0,0.0,0.0,0.0,0.0,0.0,0.0,0.0,0.0,0.0,0.0,0.0,0.0,0.0,0.0,0.0,-0.3623,-0.4028,-0.43,0.0,-0.43,-0.43,-0.43,-0.43,-0.4319,-0.4357,-0.4465,-0.4525,-0.4566,-0.4608,-0.4583,-0.4503,-0.4465,-0.4371,-0.43,-0.43,-0.4322,-0.4355,-0.4317,-0.4322,-0.4355,-0.4317,-0.43,-0.43,-0.43,-0.43,-0.43,-0.8388,0.0,0.0,0.0,0.0,0.0,0.0,0.0,0.0,0.0,-0.7884,0.0,-0.7526,0.0,-0.7171,0.0,-0.6782,-0.6482,-0.5918,-0.6017,0.0,-0.4848,-0.5113,0.0,0.0,0.0,0.0,0.0,0.0,-0.3192,0.0,0.0,0.0,0.0,0.0,0.0,0.0,0.0,-0.3192,0.0,0.0,-0.3192,0.0,0.0,-0.3192,-0.3192,0.0,-0.3192,-0.3192,-0.3192,-0.3192,-0.3192,-0.3192,-0.3192,-0.3192,-0.3192,-0.3023,-0.2753,-0.2315,-0.2013,0.0,-0.1813,-0.1813,0.0,-0.2351,0.0,0.0,0.0,0.0,0.0,0.0,0.0,0.0,0.0,0.0,0.0,0.0,-0.0807,0.0,0.0,0.0,0.0,0.0,0.0,-0.3525,-0.3587,-0.3792,-0.4028,0.0,0.0,-0.4028,-0.43,-0.3794,-0.3677,-0.3985,-0.3811,-0.3862,-0.4182,-0.4219,-0.4336,-0.4503,-0.4462,-0.4371,-0.43,-0.43,-0.43,-0.43,-0.43,-0.43,-0.43,-0.43,-0.43,-0.43,-0.43,-0.43,-0.43,0.0,0.0,0.0,0.0,-0.8517,0.0,0.0,0.0,-0.7987,0.0,-0.7689,-0.7456,-0.7456,-0.7106,-0.6881,-0.6881,-0.6552,0.0,-0.6317,-0.5848,0.0,0.0,-0.4749,-0.4287,-0.3226,0.0,0.0,0.0,0.0,0.0,0.0,0.0,0.0,0.0,-0.3192,0.0,-0.3192,-0.3192,-0.3192,-0.3192,-0.3192,-0.3192,-0.3192,-0.3192,-0.3192,-0.3192,-0.3192,-0.3192,-0.3192,-0.3192,-0.3192,-0.3192,-0.3192,-0.3192,-0.3192,-0.3159,-0.2686,-0.2181,-0.2114,-0.1577,-0.1042,-0.1042,0.0,0.0,0.0,0.0,-0.1076,0.0,0.0,0.0,0.0,0.0,0.0,0.0,0.0,0.0,0.0,0.0,0.0,0.0,0.0,0.0,0.0,-0.2447,-0.2716,-0.4097,-0.3587,0.0,0.0,0.0,-0.3453,-0.4164,-0.2818,-0.2514,-0.3346,-0.2651,-0.2723,-0.3519,-0.3415,-0.3728,-0.4397,-0.4256,-0.4205,-0.4197,-0.4233,-0.4233,-0.4233,-0.43,-0.43,-0.43,-0.43,-0.4267,-0.4233,-0.4233,-0.4233,-0.4233,-0.8225,-0.8393,-0.8517,0.0,-0.8517,-0.8517,0.0,0.0,0.0,0.0,-0.7302,-0.6942,-0.6712,-0.6581,-0.6515,-0.6515,-0.6083,0.0,0.0,0.0,0.0,-0.3658,-0.3992,-0.3892,-0.3226,-0.3326,0.0,-0.3192,0.0,0.0,-0.3192,0.0,0.0,0.0,0.0,0.0,-0.3192,-0.3192,-0.3192,-0.3192,-0.3192,-0.3192,0.0,0.0,-0.3192,-0.3192,-0.3192,-0.3192,-0.3192,-0.3192,-0.3192,-0.3192,-0.3192,-0.3192,-0.3092,-0.2618,-0.2348,-0.1946,-0.0873,-0.0437,-0.0269,-0.0269,-0.0269,-0.0437,0.0,0.0,0.0,0.0,0.0,0.0,0.0,0.0,0.0,0.0,0.0,0.0,0.0,0.0,0.0,0.0,0.0,0.0,0.0,-0.2211,-0.2748,-0.2683,-0.2984,0.0,0.0,0.0,0.0,-0.2649,-0.2281,-0.2221,-0.2441,-0.2335,-0.2403,-0.265,-0.2702,-0.2763,-0.2865,-0.2846,-0.2771,-0.2683,-0.3253,-0.3487,-0.352,-0.4064,-0.43,-0.43,-0.43,-0.3961,-0.3487,-0.3487,-0.3487,-0.342,-0.829,0.0,0.0,-0.8517,0.0,0.0,-0.8284,0.0,0.0,-0.7297,-0.6909,0.0,-0.642,-0.6185,-0.605,-0.605,-0.555,0.0,0.0,0.0,0.0,-0.356,-0.3627,-0.3493,-0.3192,-0.3192,0.0,-0.3192,0.0,0.0,-0.3192,0.0,0.0,0.0,0.0,-0.3192,0.0,-0.3192,-0.3192,-0.3192,-0.3192,0.0,0.0,-0.3192,-0.3192,-0.3192,-0.3192,-0.3192,-0.3192,-0.3192,-0.3192,-0.3159,-0.2855,-0.2753,-0.2619,-0.1914,-0.1477,-0.104,-0.0235,0.0235,0.047,0.047,0.047,0.037,-0.0034,-0.0134,-0.0034,0.0,0.0,0.0,0.0,0.0,0.0,0.0,0.0,0.0,0.0,0.0,0.0,0.0,0.0,0.0,0.0,0.0,0.0,0.0,0.0,0.0,0.0,0.0,0.0,-0.2079,-0.1511,-0.1352,-0.1675,-0.1405,-0.1459,-0.1781,-0.1844,-0.1986,-0.2204,-0.2222,-0.2159,-0.2116,-0.2528,-0.2714,-0.2748,-0.3153,-0.3322,-0.3355,-0.3692,-0.3553,-0.3149,-0.2848,-0.2714,-0.2648,0.0,0.0,0.0,0.0,0.0,0.0,0.0,-0.7624,0.0,-0.6946,0.0,-0.6383,-0.6317,-0.5885,-0.558,-0.5514,0.0,-0.4683,-0.4683,-0.4189,-0.3894,-0.3894,-0.346,-0.3192,-0.3192,-0.3159,0.0,0.0,0.0,0.0,0.0,0.0,0.0,0.0,0.0,0.0,0.0,-0.3125,-0.3092,0.0,-0.3058,-0.3092,-0.3125,-0.3125,-0.3159,-0.3192,-0.3192,-0.3192,-0.3192,-0.3192,-0.3125,-0.2956,-0.2383,-0.2147,-0.1913,-0.1176,-0.0504,0.0034,0.0134,0.0605,0.1109,0.1109,0.1109,0.1109,0.1109,0.1109,0.1109,0.1109,0.1109,0.1143,0.0,0.0,0.0,0.0,0.0,0.0,0.0,0.0,0.0,0.0,0.0,0.0,0.0,0.0,0.0,0.0,0.0,0.0,0.0,0.0,0.0,-0.1812,-0.0642,-0.0308,-0.0946,0.0,-0.0328,-0.0948,-0.0944,-0.1269,-0.1807,-0.1821,-0.1836,-0.1841,-0.1933,-0.198,-0.198,-0.2079,-0.2114,-0.2179,-0.2815,-0.3015,-0.2848,-0.2213,-0.1913,-0.1812,0.0,0.0,0.0,0.0,0.0,-0.7461,-0.7138,-0.7045,-0.6979,-0.6913,-0.6618,-0.6218,-0.5782,-0.565,-0.5415,-0.4981,-0.4456,0.0,0.0,0.0,0.0,-0.3326,-0.3259,-0.3192,-0.3192,-0.2922,-0.2922,0.0,0.0,0.0,0.0,0.0,0.0,0.0,0.0,0.0,-0.2787,-0.2787,0.0,-0.2389,-0.2389,-0.2555,-0.2787,-0.2787,-0.2956,-0.3192,-0.3192,-0.3192,-0.3192,-0.3192,-0.2822,-0.2348,-0.2248,-0.178,-0.1142,-0.0403,-0.0101,0.0134,0.0739,0.1008,0.1109,0.1109,0.1109,0.1109,0.1109,0.1109,0.1109,0.1109,0.1109,0.1109,0.1143,0.0,0.0,0.0,0.0,0.0,0.0,0.0,0.0,0.0,0.0,0.0,0.0,0.0,0.0,0.0,0.0,0.0,0.0,0.0,0.0,0.0,-0.0138,0.0,0.0,0.0,-0.0073,-0.0182,-0.0179,-0.0247,-0.0353,-0.0376,-0.0371,-0.0407,-0.101,-0.1276,-0.131,-0.1879,-0.2114,-0.2114,-0.2248,-0.1946,-0.1444,-0.131,-0.0875,-0.037,0.0,0.0,0.0,0.0,0.0,0.0,0.0,-0.6346,0.0,-0.6618,-0.6251,-0.5881,-0.5617,-0.512,-0.4655,-0.4422,-0.3892,-0.3594,-0.3594,-0.3326,-0.3125,-0.2956,-0.2956,0.0,-0.269,-0.2522,-0.2621,-0.2956,0.0,0.0,0.0,0.0,0.0,0.0,0.0,-0.2855,0.0,0.0,0.0,-0.2188,-0.2188,-0.2287,-0.2453,-0.2453,-0.242,-0.2353,-0.2252,-0.2116,-0.2016,-0.2519,-0.2484,-0.208,-0.1308,-0.0806,-0.037,0.037,0.0571,0.0638,0.1008,0.1109,0.1109,0.1109,0.1109,0.1109,0.1109,0.1109,0.1109,0.1109,0.1109,0.121,0.1544,0.198,0.0,0.0,0.0,0.0,0.0,0.0,0.0,0.0,0.0,0.0,0.0,0.0,0.0,0.0,0.0,0.0,0.0,0.0,0.0,0.0,0.0,0.0,0.0,0.0,0.0,0.0,0.0,0.0,0.0,0.0,0.0,-0.0034,-0.0373,-0.0539,-0.0539,-0.0875,-0.1243,-0.1577,-0.1577,-0.1377,-0.1109,-0.1109,-0.0639,0.0,0.0,-0.7326,0.0,0.0,-0.6802,0.0,-0.5877,-0.5613,-0.558,-0.6017,-0.5683,-0.5382,-0.5286,-0.4492,-0.3961,-0.3828,-0.346,-0.3159,-0.3092,-0.3092,-0.2958,-0.2621,-0.2586,-0.2453,-0.2221,-0.212,-0.2253,0.0,0.0,0.0,0.0,0.0,0.0,0.0,0.0,0.0,0.0,0.0,-0.2018,-0.1951,-0.1951,-0.1951,-0.1918,-0.1951,-0.1748,-0.1412,-0.1311,-0.1076,-0.0941,-0.1544,-0.171,-0.1476,-0.0302,0.0168,0.0403,0.0975,0.1143,0.1143,0.1109,0.1109,0.1109,0.1109,0.1109,0.1109,0.1109,0.1109,0.1109,0.1109,0.1244,0.1578,0.2281,0.2649,0.0,0.0,0.0,0.0,0.0,0.0,0.0,0.0,0.0,0.0,0.0,0.0,0.0,0.0,0.0,0.0,0.0,0.0,0.0,0.0,0.0,0.0071,0.0072,0.0,0.0075,0.0075,0.0037,0.0,0.0,0.0,0.0,0.0,0.0,0.0,0.0,0.0,-0.0337,-0.0875,-0.0875,-0.0875,-0.0875,-0.0875,-0.0505,0.0,0.0,0.0,0.0,0.0,0.0,0.0,0.0,-0.4882,-0.4882,-0.4948,-0.4915,-0.4686,-0.4192,-0.4061,-0.3794,-0.3326,-0.3228,-0.3058,-0.2753,-0.2753,-0.2587,-0.2255,-0.2255,-0.2221,-0.2188,-0.185,-0.185,0.0,0.0,0.0,0.0,0.0,0.0,0.0,0.0,0.0,0.0,-0.1681,-0.148,-0.121,-0.121,-0.1109,-0.0941,-0.1143,-0.1076,-0.0908,-0.1076,-0.1109,-0.0975,-0.0403,-0.0101,0.0101,0.0235,0.0706,0.1176,0.1277,0.1277,0.1244,0.1143,0.1109,0.1109,0.1109,0.1109,0.1109,0.1109,0.1109,0.1109,0.1109,0.1713,0.2517,0.3218,0.3923,0.4189,0.0,0.0,0.0,0.0,0.0,0.0,0.0,0.0,0.0,0.0,0.0,0.0,0.0,0.0,0.0,0.0,0.0,0.0,0.027,0.0,0.0281,0.0281,0.0289,0.0256,0.0256,0.0071,0.0,0.0,0.0,0.0,0.0,0.0,0.0,0.0,0.0,-0.0034,-0.0101,-0.0101,-0.0101,-0.0101,-0.0101,-0.0067,0.0,0.0,0.0,0.0,0.0,0.0,0.0,0.0,-0.4323,-0.4189,-0.3889,-0.4123,-0.4225,-0.4028,-0.3727,-0.336,-0.2922,-0.2889,-0.2755,-0.2421,-0.2388,-0.222,-0.185,-0.185,-0.1748,-0.1547,-0.1379,-0.148,0.0,0.0,0.0,0.0,0.0,0.0,0.0,0.0,-0.1511,-0.0638,-0.0773,-0.0571,-0.0134,-0.0134,-0.0134,-0.0134,-0.0134,-0.0101,0.0,0.0168,0.0269,0.037,0.0672,0.047,0.0202,0.0638,0.0975,0.1176,0.1176,0.1176,0.1176,0.1109,0.1109,0.1109,0.1109,0.1109,0.1109,0.1109,0.1109,0.121,0.1612,0.2783,0.382,0.4123,0.4456,0.4755,0.0,0.0,0.0,0.0,0.0,0.0,0.0,0.0,0.0,0.0,0.0,0.0,0.0,0.0,0.0,0.0,0.0,0.0,0.0438,0.0,0.042,0.042,0.0432,0.0434,0.0427,0.0352,0.0313,0.0308,0.0305,0.0303,0.0303,0.0101,0.0067,0.0169,0.0034,0.0,0.0,0.0,0.0,0.0,0.0,0.0067,0.0169,-0.4882,0.0,-0.4553,0.0,-0.442,-0.4154,-0.3692,-0.3625,-0.3458,-0.2958,-0.3226,-0.3493,-0.3591,-0.3192,-0.2824,-0.2587,-0.2554,-0.2386,-0.2052,-0.2018,-0.185,-0.148,-0.1446,0.0,-0.1109,-0.1109,-0.121,-0.1446,-0.185,0.0,0.0,0.0,0.0,0.0,-0.1143,-0.0638,0.0134,0.0,0.0168,0.0504,0.0504,0.0538,0.0605,0.0672,0.0773,0.0941,0.1176,0.1311,0.1379,0.1379,0.0975,0.0538,0.1008,0.1143,0.1143,0.1143,0.1143,0.1143,0.1109,0.1143,0.1143,0.1143,0.1143,0.1143,0.1143,0.131,0.1745,0.2713,0.3885,0.4824,0.5024,0.515,0.5315,0.562,0.0,0.0,0.0,0.0,0.0,0.0,0.0,0.5348,0.4688,0.0,0.0,0.0,0.0,0.0,0.0,0.0,0.0,0.0,0.0,0.0,0.0,0.06,0.06,0.0589,0.052,0.0514,0.0506,0.0506,0.0506,0.0472,0.0236,0.0236,0.0337,0.0202,0.0135,0.0135,0.0135,0.0135,0.0135,0.0135,0.0236,0.0371,-0.4815,-0.4389,-0.3995,-0.3995,-0.356,-0.3092,-0.2753,-0.272,-0.2586,-0.2255,-0.2221,-0.2354,-0.2686,-0.2421,-0.2221,-0.2221,-0.2221,-0.2052,-0.1648,-0.1614,-0.1446,0.0,0.0,-0.1109,-0.1109,-0.1109,-0.1109,-0.1109,0.0,0.0,-0.1614,0.0,-0.1143,-0.0773,-0.0269,0.0168,0.0504,0.0504,0.0504,0.0504,0.0504,0.0807,0.1277,0.1143,0.1412,0.185,0.1648,0.158,0.158,0.158,0.158,0.1547,0.1344,0.1311,0.1311,0.1311,0.1311,0.1277,0.1143,0.121,0.1311,0.1311,0.1311,0.1311,0.1311,0.1847,0.2848,0.4447,0.4951,0.5319,0.6046,0.6178,0.5947,0.5219,0.0,0.0,0.0,0.0,0.0,0.0,0.5719,0.5554,0.5392,0.0,0.0,0.0,0.0,0.0,0.0,0.0,0.0,0.0809,0.0809,0.0,0.0809,0.081,0.081,0.0809,0.0607,0.0506,0.0506,0.0506,0.0506,0.0506,0.0506,0.0506,0.0506,0.0506,0.0506,0.0506,0.0506,0.0506,0.0506,0.0506,0.0506,0.0506,-0.3792,-0.3558,-0.346,-0.346,-0.3123,-0.282,-0.272,-0.252,-0.2321,-0.2221,-0.1951,-0.1816,-0.195,-0.2085,-0.2087,0.0,-0.1783,-0.1648,0.0,-0.1244,-0.121,-0.1109,-0.1109,-0.1109,-0.1109,-0.1109,-0.1109,-0.1109,0.0,0.0,0.0,-0.0605,-0.0034,0.0638,0.0437,0.084,0.1648,0.121,0.1277,0.1648,0.1648,0.1681,0.1715,0.1817,0.1783,0.1715,0.1783,0.1715,0.1614,0.1614,0.1614,0.158,0.1513,0.1513,0.1513,0.1513,0.1513,0.148,0.1446,0.148,0.1513,0.1513,0.1882,0.2251,0.2251,0.3184,0.4181,0.468,0.5348,0.5914,0.6148,0.628,0.6251,0.602,0.6185,0.0,0.0,0.0,0.0,0.0,0.0,0.5951,0.0,0.499,0.0,0.0,0.0,0.0,0.0,0.0,0.0,0.0,0.1019,0.0,0.1003,0.1019,0.1009,0.1009,0.0942,0.0908,0.0908,0.0775,0.0775,0.0908,0.0606,0.0573,0.0708,0.0573,0.0506,0.0506,0.0506,0.0506,0.0506,0.0506,0.0573,0.0708,-0.3259,-0.3192,-0.3159,-0.3023,-0.2855,-0.2619,-0.2318,-0.2118,-0.1918,-0.1817,-0.158,-0.1412,-0.1412,-0.1648,0.0,-0.1446,-0.1412,-0.1311,-0.1109,-0.1109,-0.1109,-0.1109,-0.1109,-0.1109,-0.1109,0.0,0.0,-0.0806,-0.0807,-0.0638,-0.0302,0.0235,0.0773,0.1311,0.1176,0.1547,0.2188,0.1783,0.185,0.2188,0.2188,0.212,0.2018,0.2154,0.2052,0.185,0.1951,0.1918,0.1817,0.1817,0.1817,0.1817,0.1817,0.1817,0.1783,0.1648,0.1614,0.1614,0.1614,0.1849,0.2118,0.2118,0.2651,0.3253,0.3553,0.4284,0.5017,0.5348,0.5881,0.628,0.628,0.635,0.6387,0.6387,0.6387,0.6387,0.6387,0.0,0.0,0.0,0.0,0.0,0.0,0.5289,0.0,0.0,0.0,0.0,0.0,0.0,0.0,0.112,0.1114,0.0,0.1086,0.1102,0.1087,0.1109,0.1087,0.1093,0.1093,0.1002,0.1001,0.1093,0.0821,0.0782,0.0909,0.0775,0.074,0.074,0.074,0.074,0.074,0.074,0.0808,0.0909,-0.3159,-0.3159,0.0,0.0,-0.2653,0.0,-0.1715,-0.158,-0.1446,-0.1143,-0.1109,-0.1109,-0.1109,-0.1109,-0.1109,-0.1109,0.0,0.0,0.0,-0.1109,-0.1076,-0.1042,-0.1042,-0.1042,-0.0975,-0.0504,-0.0235,-0.0235,0.0302,0.0571,0.0571,0.1109,0.1379,0.1379,0.1951,0.2188,0.2188,0.2188,0.2188,0.2188,0.2188,0.2188,0.2188,0.2188,0.2188,0.2188,0.2188,0.2188,0.2188,0.2188,0.2188,0.2188,0.2188,0.2221,0.2186,0.1749,0.1648,0.1648,0.1715,0.2351,0.3023,0.309,0.3587,0.4281,0.502,0.5186,0.5422,0.6218,0.6387,0.6387,0.6387,0.6387,0.6387,0.6387,0.6387,0.6387,0.6387,0.0,0.0,0.0,0.0,0.0,0.0,0.565,0.5282,0.0,0.0,0.0,0.0,0.0,0.203,0.1299,0.1331,0.1331,0.1261,0.1226,0.1175,0.1109,0.1104,0.1084,0.1087,0.1151,0.1149,0.1124,0.1124,0.1107,0.1113,0.1113,0.1111,0.1109,0.1109,0.1109,0.1109,0.1109,0.1109,0.1109,0.0,0.0,-0.2721,-0.2388,-0.2051,-0.1816,-0.1614,-0.1379,-0.1176,-0.1109,-0.1109,-0.1109,-0.1109,-0.1109,-0.1109,-0.1109,-0.1109,-0.1109,-0.1109,-0.1109,-0.0908,-0.0504,-0.0504,-0.0302,0.0101,0.0235,0.0302,0.0302,0.084,0.1109,0.1109,0.1715,0.1985,0.1985,0.212,0.2188,0.2188,0.2188,0.2188,0.2188,0.2188,0.2188,0.2188,0.2188,0.2188,0.2188,0.2188,0.2188,0.2188,0.2188,0.2188,0.2188,0.2188,0.2554,0.2852,0.2253,0.2052,0.2186,0.2684,0.2984,0.3284,0.3854,0.455,0.5246,0.5951,0.6086,0.6152,0.6354,0.6387,0.6387,0.6387,0.6387,0.6387,0.6387,0.6387,0.6387,0.6387,0.6387,0.0,0.0,0.635,0.6317,0.6218,0.5987,0.5752,0.0,0.0,0.0,0.0,0.39,0.3525,0.2952,0.3045,0.3017,0.2797,0.2308,0.176,0.1109,0.1117,0.1099,0.1086,0.1128,0.114,0.1191,0.1191,0.1138,0.111,0.111,0.1097,0.1109,0.1109,0.1109,0.1109,0.1109,0.1109,0.1109,-0.2522,-0.2487,-0.2354,-0.1985,-0.1748,-0.1547,-0.1379,-0.121,-0.1109,-0.1109,-0.1109,-0.1109,-0.1109,-0.0874,-0.0739,-0.0739,-0.0975,-0.1008,-0.0739,-0.0739,-0.0504,0.0034,0.0067,0.0202,0.0504,0.0739,0.1008,0.1277,0.158,0.1715,0.1715,0.2052,0.2188,0.2188,0.2188,0.2188,0.2188,0.2188,0.2188,0.2188,0.2188,0.2188,0.2188,0.2188,0.2188,0.2188,0.2188,0.2388,0.2653,0.2653,0.2887,0.3155,0.3155,0.342,0.3618,0.3255,0.3155,0.3255,0.3618,0.3949,0.4381,0.5084,0.555,0.5947,0.6317,0.6387,0.6387,0.6387,0.6387,0.6387,0.6387,0.6387,0.6387,0.6387,0.6387,0.6387,0.6387,0.6387,0.0,0.6387,0.6387,0.6383,0.6317,0.6148,0.5987,0.5925,0.0,0.0,0.5011,0.5086,0.4601,0.3461,0.3467,0.3446,0.3285,0.2933,0.252,0.2047,0.217,0.2212,0.221,0.2299,0.2326,0.233,0.2268,0.2223,0.2131,0.1726,0.1565,0.1511,0.121,0.1109,0.1143,0.1444,0.1544,0.1612,-0.212,-0.212,-0.1985,-0.158,-0.1513,-0.1446,-0.1143,-0.1109,-0.1076,-0.0975,-0.0975,-0.0941,-0.0874,-0.0437,-0.0168,-0.0168,-0.0605,-0.0672,-0.0202,-0.0168,0.0067,0.0605,0.0605,0.0672,0.0739,0.121,0.1681,0.2188,0.2188,0.2188,0.2188,0.2188,0.2188,0.2188,0.2188,0.2188,0.2188,0.2188,0.2188,0.2221,0.2321,0.2354,0.2354,0.2488,0.2522,0.2522,0.2522,0.2887,0.3382,0.3382,0.3785,0.4287,0.4287,0.4386,0.4453,0.4453,0.4553,0.4586,0.4486,0.4981,0.5679,0.6251,0.6387,0.6387,0.6387,0.6387,0.6387,0.6387,0.6387,0.6387,0.6387,0.6387,0.6387,0.6387,0.6387,0.6387,0.6387,0.0,0.6387,0.6387,0.6387,0.635,0.6247,0.6214,0.6115,0.5954,0.5921,0.5881,0.5812,0.5964,0.5339,0.3746,0.3717,0.3659,0.3491,0.3398,0.3316,0.3218,0.3387,0.3477,0.3495,0.3696,0.3774,0.3707,0.3548,0.3458,0.3367,0.2594,0.2288,0.2213,0.1646,0.1414,0.152,0.2049,0.2287,0.2394,-0.1749,-0.1681,-0.158,-0.1244,-0.1176,-0.1176,-0.1109,-0.1109,-0.0941,-0.047,-0.0437,-0.0235,0.0202,0.0336,0.037,0.037,0.0302,0.0302,0.037,0.037,0.0605,0.1143,0.1176,0.1412,0.1918,0.2018,0.212,0.2188,0.2188,0.2188,0.2188,0.2188,0.2188,0.2188,0.2188,0.2188,0.2188,0.2188,0.2188,0.2255,0.2818,0.305,0.3117,0.3754,0.3987,0.3987,0.3987,0.4054,0.412,0.412,0.422,0.4287,0.4287,0.4716,0.5246,0.5246,0.5613,0.5951,0.5382,0.5712,0.6284,0.6383,0.6387,0.6387,0.6387,0.6387,0.6387,0.6387,0.6387,0.6387,0.6387,0.6387,0.6387,0.6387,0.6387,0.6387,0.6387,0.0,0.6387,0.6387,0.6387,0.6383,0.6383,0.628,0.6178,0.6148,0.5987,0.5899,0.5892,0.5929,0.5796,0.5489,0.559,0.5232,0.433,0.4178,0.3818,0.3218,0.3358,0.3451,0.3493,0.3666,0.3749,0.3765,0.3567,0.3479,0.346,0.3229,0.308,0.3015,0.2915,0.2958,0.3046,0.3042,0.3095,0.3184,-0.1379,-0.1344,-0.1277,-0.1143,-0.0874,-0.0672,-0.0672,-0.0437,-0.0134,0.0101,0.0134,0.0235,0.047,0.0773,0.0941,0.0941,0.1244,0.1412,0.1412,0.1109,0.1176,0.1749,0.1783,0.1918,0.2188,0.2188,0.2188,0.2188,0.2188,0.2188,0.2188,0.2188,0.2188,0.2188,0.2188,0.2188,0.2221,0.2586,0.2753,0.2785,0.3518,0.3785,0.3818,0.4187,0.4287,0.4287,0.4287,0.455,0.4882,0.4882,0.5117,0.5418,0.5418,0.565,0.5947,0.5947,0.6148,0.6317,0.6017,0.6148,0.6387,0.6387,0.6387,0.6387,0.6387,0.6387,0.6387,0.6387,0.6387,0.6387,0.6387,0.6387,0.6515,0.6937,0.7003,0.0,0.0,0.7003,0.6839,0.6453,0.6387,0.6387,0.6387,0.635,0.6317,0.6317,0.6218,0.6152,0.6053,0.6119,0.6119,0.6053,0.6003,0.5737,0.5258,0.5189,0.4987,0.4652,0.4785,0.4918,0.5081,0.5211,0.5266,0.5278,0.5004,0.4843,0.468,0.4074,0.383,0.3751,0.3351,0.3242,0.3343,0.367,0.3816,0.392,-0.0739,-0.0739,-0.0739,-0.0739,-0.0403,-0.0101,-0.0101,0.0235,0.0538,0.0672,0.0672,0.0739,0.0874,0.1277,0.1513,0.1513,0.1918,0.2188,0.2188,0.1783,0.1715,0.2188,0.2188,0.2188,0.2188,0.2188,0.2188,0.2188,0.2188,0.2188,0.2188,0.2354,0.242,0.2453,0.2622,0.2688,0.2721,0.3251,0.3451,0.3518,0.4251,0.455,0.4586,0.4719,0.4785,0.4785,0.4785,0.515,0.5646,0.5646,0.598,0.6387,0.6387,0.6387,0.6387,0.6387,0.6387,0.6387,0.6387,0.6387,0.6387,0.6387,0.6387,0.6387,0.6387,0.6387,0.6387,0.6387,0.6387,0.6387,0.6387,0.6548,0.6839,0.7396,0.0,0.0,0.0,0.7749,0.7521,0.697,0.6741,0.6646,0.6646,0.6515,0.6387,0.6387,0.6387,0.635,0.6247,0.635,0.635,0.6247,0.6053,0.5954,0.5888,0.5888,0.5888,0.5892,0.6097,0.6239,0.6328,0.657,0.6663,0.6585,0.6313,0.6094,0.5863,0.5061,0.4715,0.4619,0.4051,0.3832,0.3953,0.4464,0.4706,0.4797,0.037,0.037,0.037,0.037,0.0403,0.0437,0.0437,0.047,0.0672,0.1176,0.1244,0.1446,0.2018,0.212,0.212,0.212,0.2188,0.2188,0.2188,0.2154,0.2154,0.2188,0.2188,0.2188,0.2188,0.2188,0.2188,0.2188,0.2188,0.2188,0.2221,0.2852,0.3115,0.3151,0.3851,0.4154,0.4154,0.4187,0.422,0.4287,0.5014,0.5312,0.5378,0.6017,0.6251,0.6251,0.6251,0.6284,0.6317,0.6317,0.635,0.6387,0.6387,0.6387,0.6387,0.6387,0.6387,0.6387,0.6387,0.6387,0.6387,0.6387,0.6387,0.6387,0.6387,0.6387,0.6387,0.6387,0.6387,0.6387,0.6387,0.697,0.7428,0.7489,0.0,0.0,0.8425,0.8425,0.8393,0.8361,0.7814,0.7423,0.7423,0.6806,0.6387,0.6387,0.6387,0.6387,0.6383,0.6387,0.6387,0.6383,0.6247,0.6083,0.5892,0.5888,0.5888,0.5896,0.6209,0.6287,0.6141,0.6634,0.6764,0.6589,0.6578,0.6478,0.6347,0.6155,0.5962,0.5789,0.5723,0.578,0.5861,0.5811,0.5854,0.596,0.0502,0.0504,0.0504,0.0504,0.0773,0.1008,0.1008,0.1311,0.1614,0.1817,0.2049,0.2251,0.2487,0.269,0.2824,0.2824,0.2824,0.2824,0.2824,0.2824,0.2624,0.2221,0.2191,0.2192,0.2188,0.2188,0.2188,0.2188,0.2621,0.2818,0.2852,0.3649,0.3949,0.3885,0.4248,0.4414,0.4447,0.4812,0.5017,0.515,0.5782,0.6017,0.605,0.6317,0.6387,0.6387,0.6387,0.6387,0.6387,0.6387,0.6387,0.6387,0.6387,0.6387,0.6387,0.6387,0.6387,0.6515,0.697,0.6745,0.6387,0.6387,0.6387,0.6387,0.6387,0.6387,0.6515,0.7003,0.7068,0.7199,0.7614,0.7939,0.8264,0.8683,0.0,0.9134,0.9134,0.9134,0.8973,0.8554,0.8264,0.8134,0.8134,0.7874,0.7521,0.7101,0.7068,0.6872,0.6416,0.6387,0.6387,0.6387,0.6459,0.64,0.6222,0.6329,0.6388,0.6391,0.6659,0.6761,0.6773,0.6891,0.6958,0.6957,0.6741,0.6563,0.6394,0.6272,0.6079,0.5888,0.5888,0.5929,0.5978,0.5914,0.5929,0.5944,0.1036,0.1042,0.1042,0.1042,0.1344,0.1614,0.1714,0.2084,0.2388,0.249,0.2723,0.2855,0.2855,0.3058,0.3192,0.3192,0.3192,0.3192,0.3192,0.322,0.302,0.2523,0.2556,0.2492,0.2356,0.2621,0.2721,0.2622,0.3351,0.3716,0.3716,0.4544,0.4875,0.4815,0.511,0.5243,0.5276,0.5712,0.591,0.598,0.6383,0.6486,0.642,0.6482,0.6449,0.6387,0.6387,0.6387,0.6387,0.6387,0.6387,0.6387,0.6387,0.6387,0.6486,0.6937,0.6905,0.6905,0.7619,0.7456,0.7064,0.7064,0.7064,0.7064,0.7064,0.7064,0.7195,0.7712,0.7814,0.7939,0.8425,0.8683,0.8973,0.9422,0.9684,0.9843,0.9843,0.9843,0.9684,0.9198,0.8941,0.8812,0.8812,0.8619,0.8296,0.7847,0.7814,0.7489,0.6778,0.6515,0.6411,0.6505,0.6631,0.666,0.6587,0.6712,0.6777,0.6777,0.6988,0.7074,0.7139,0.7163,0.7159,0.7183,0.7008,0.6809,0.6595,0.6495,0.6294,0.6057,0.6057,0.6057,0.6057,0.6057,0.6057,0.602,0.2175,0.2188,0.2188,0.2188,0.2221,0.2321,0.2653,0.272,0.282,0.3159,0.3192,0.3192,0.3192,0.3192,0.3192,0.3192,0.3192,0.3226,0.3226,0.3277,0.3287,0.323,0.3348,0.3182,0.2721,0.3551,0.3849,0.352,0.4384,0.4815,0.4815,0.5573,0.5906,0.5939,0.6609,0.6913,0.6913,0.6913,0.6811,0.6708,0.6843,0.6716,0.6416,0.6613,0.6576,0.642,0.642,0.642,0.642,0.6387,0.642,0.642,0.6416,0.6416,0.6679,0.8102,0.8037,0.7652,0.8328,0.8522,0.8522,0.849,0.849,0.849,0.849,0.849,0.849,0.8522,0.8522,0.8522,0.8522,0.9069,0.9518,0.9518,1.0136,1.0593,1.0593,1.0593,1.0593,1.0593,0.997,0.9518,0.9518,0.8909,0.8522,0.8522,0.849,0.8199,0.7554,0.6811,0.6505,0.6688,0.6735,0.6816,0.7023,0.6992,0.6992,0.6992,0.7139,0.7135,0.7004,0.7359,0.7387,0.7199,0.7407,0.7318,0.6988,0.6988,0.6775,0.6387,0.6387,0.6387,0.6387,0.6387,0.6387,0.6387,0.2167,0.2388,0.2554,0.2554,0.2757,0.2924,0.3025,0.3058,0.3092,0.3192,0.346,0.3625,0.3625,0.3828,0.3964,0.3964,0.3964,0.4128,0.4525,0.4981,0.5201,0.5096,0.4335,0.3964,0.4154,0.4414,0.4517,0.4417,0.5176,0.5573,0.5576,0.6437,0.6736,0.6609,0.6975,0.7106,0.7106,0.6946,0.6942,0.7036,0.6946,0.6848,0.6749,0.6815,0.6745,0.6609,0.6609,0.6609,0.6581,0.6449,0.69,0.7609,0.8091,0.8124,0.8096,0.8517,0.8511,0.8484,0.9224,0.948,0.9384,0.8678,0.849,0.849,0.849,0.849,0.8619,0.9102,0.9198,0.939,0.9996,1.0288,1.0446,1.0611,1.0681,1.0776,1.094,1.0839,1.0776,1.094,1.0769,1.0611,1.0611,1.0446,1.0066,0.9454,0.8839,0.8425,0.8199,0.8184,0.7937,0.7403,0.8267,0.841,0.7726,0.7332,0.7143,0.7147,0.7322,0.7378,0.7363,0.7309,0.7342,0.7403,0.7334,0.7171,0.6988,0.6988,0.6775,0.6387,0.6387,0.6387,0.6387,0.6387,0.6387,0.6383,0.2887,0.3253,0.3518,0.3518,0.3687,0.3889,0.4023,0.402,0.409,0.4259,0.4492,0.4622,0.4622,0.4827,0.493,0.493,0.493,0.5063,0.5388,0.581,0.6086,0.6222,0.5534,0.51,0.5014,0.5378,0.5477,0.5312,0.6137,0.6531,0.6531,0.7064,0.7265,0.7138,0.7265,0.733,0.7297,0.7199,0.7171,0.7204,0.7138,0.704,0.6946,0.7269,0.7326,0.7256,0.7512,0.7609,0.7577,0.7479,0.7864,0.8506,0.918,0.9116,0.893,0.9474,0.9442,0.9378,1.0123,1.0376,1.0281,0.9678,0.9518,0.9518,0.9518,0.9518,0.9646,1.0066,1.0129,1.0288,1.0839,1.0933,1.0965,1.109,1.0996,1.0965,1.109,1.0996,1.0965,1.109,1.109,1.114,1.1259,1.1273,1.1042,1.0515,0.9734,0.9278,0.9278,0.9321,0.9048,0.8442,0.9159,0.9198,0.8388,0.821,0.8098,0.8098,0.8216,0.812,0.7861,0.7827,0.7647,0.7378,0.7342,0.7228,0.7094,0.7016,0.6816,0.6513,0.6444,0.6387,0.6387,0.6387,0.6387,0.6416,0.4025,0.4472,0.4848,0.4848,0.4882,0.5014,0.5309,0.5342,0.5481,0.5855,0.5888,0.5888,0.5888,0.5888,0.5888,0.5888,0.5954,0.5987,0.5987,0.602,0.6251,0.6741,0.6773,0.6371,0.5507,0.6338,0.6605,0.6239,0.7097,0.7489,0.7489,0.7489,0.7489,0.7489,0.7489,0.7521,0.7587,0.7587,0.7526,0.7428,0.7619,0.7461,0.7204,0.8009,0.8226,0.8188,0.8796,0.902,0.902,0.9116,0.9116,0.9244,0.992,0.9697,0.9442,1.0737,1.0636,1.0275,1.0926,1.1122,1.1153,1.1153,1.1153,1.1129,1.1122,1.109,1.109,1.109,1.109,1.109,1.1122,1.1143,1.1157,1.116,1.115,1.1157,1.116,1.1122,1.1122,1.1153,1.1181,1.1277,1.1519,1.1514,1.1514,1.1514,1.0916,1.0535,1.0535,1.0282,0.9962,0.9585,0.9677,0.9543,0.9187,0.9559,0.9632,0.9509,0.953,0.9166,0.8497,0.8698,0.8271,0.7418,0.7614,0.7593,0.7393,0.7241,0.7084,0.686,0.668,0.6581,0.6581,0.6581,0.6581,0.6679,0.4365,0.4837,0.5176,0.5176,0.5448,0.5686,0.5752,0.5785,0.5789,0.5888,0.5888,0.5888,0.5888,0.5888,0.5888,0.5888,0.628,0.6544,0.6544,0.6905,0.7195,0.7326,0.7326,0.7228,0.7027,0.7228,0.7293,0.7195,0.7391,0.7489,0.7489,0.7489,0.7489,0.7489,0.7489,0.7782,0.8296,0.8296,0.8554,0.9005,0.9037,0.9005,0.8941,0.9134,0.9128,0.9052,0.918,0.9244,0.934,0.9964,1.0123,1.0174,1.0982,1.1045,1.085,1.1178,1.1146,1.1045,1.1209,1.1373,1.1498,1.1498,1.1498,1.1404,1.1153,1.109,1.109,1.109,1.109,1.1122,1.1247,1.1479,1.1596,1.151,1.1581,1.1621,1.1503,1.1373,1.131,1.1466,1.1684,1.1826,1.1898,1.1808,1.1743,1.1743,1.1258,1.0896,1.0737,1.1102,1.0936,1.0072,1.1013,1.1227,1.0557,1.1179,1.0812,0.9514,0.9728,0.9612,0.9254,0.9306,0.9196,0.9004,0.9055,0.9081,0.9062,0.8806,0.8612,0.841,0.8156,0.8037,0.8037,0.8037,0.8037,0.8134,0.5377,0.5826,0.6209,0.6209,0.6379,0.6516,0.6516,0.6587,0.6675,0.6675,0.6675,0.6675,0.6675,0.6675,0.6675,0.6675,0.6905,0.7097,0.7097,0.7358,0.7489,0.7489,0.7489,0.7489,0.7489,0.7489,0.7489,0.7489,0.7489,0.7489,0.7521,0.7814,0.7977,0.8004,0.8296,0.8651,0.8973,0.8973,0.9166,0.9486,0.9486,0.9486,0.955,0.9837,0.9932,0.9926,1.0275,1.0401,1.0465,1.0888,1.0989,1.1007,1.1459,1.1529,1.1428,1.1428,1.1428,1.1428,1.1428,1.1529,1.1591,1.1591,1.1591,1.156,1.1373,1.1341,1.1341,1.1341,1.1341,1.1384,1.1599,1.1667,1.1713,1.1787,1.1738,1.1687,1.1613,1.1498,1.1466,1.1591,1.1838,1.2062,1.2222,1.2308,1.2238,1.1935,1.1977,1.1885,1.1638,1.2218,1.2171,1.1322,1.1925,1.1974,1.1342,1.1859,1.1675,1.0779,1.0912,1.0659,1.0095,1.0199,0.9983,0.9556,0.9663,0.9647,0.9534,0.9297,0.9066,0.8824,0.8581,0.849,0.849,0.849,0.8716,0.9037,0.6401,0.6804,0.7138,0.7138,0.7138,0.7147,0.7185,0.7332,0.7451,0.7484,0.7489,0.7489,0.7489,0.7489,0.7489,0.7489,0.7489,0.7489,0.7489,0.7489,0.7489,0.7489,0.7489,0.7489,0.7489,0.7619,0.7684,0.7684,0.7684,0.7717,0.7842,0.8425,0.8683,0.8683,0.9262,0.955,0.9678,0.9678,0.9741,0.9869,0.9869,0.9869,0.9932,1.0485,1.0674,1.0769,1.1373,1.1591,1.1591,1.1591,1.1591,1.1591,1.1591,1.1591,1.1591,1.1591,1.1591,1.1591,1.1591,1.1591,1.1591,1.1591,1.1591,1.1591,1.1591,1.1591,1.1591,1.1591,1.1591,1.1672,1.1904,1.178,1.1745,1.1886,1.178,1.1657,1.1599,1.1643,1.1672,1.1672,1.1977,1.2295,1.2658,1.2884,1.2782,1.2207,1.2616,1.2769,1.2465,1.3054,1.3136,1.26,1.2544,1.2368,1.204,1.2227,1.2339,1.2339,1.2352,1.1854,1.0915,1.113,1.0771,0.9997,1.0112,1.0053,0.9885,0.9606,0.9371,0.9164,0.894,0.8844,0.8844,0.8844,0.9198,0.9684,0.6495,0.6677,0.6864,0.6864,0.6864,0.6925,0.7161,0.7213,0.7294,0.747,0.7489,0.7489,0.7489,0.7489,0.7489,0.7489,0.7489,0.7489,0.7489,0.7489,0.7489,0.7489,0.7489,0.7489,0.7489,0.8069,0.8361,0.8361,0.8361,0.8651,0.923,0.9326,0.9358,0.9358,0.9454,0.9805,1.0358,1.0358,1.0737,1.1334,1.1334,1.1334,1.1334,1.1435,1.1466,1.1466,1.156,1.1591,1.1591,1.1591,1.1591,1.1591,1.1591,1.1591,1.1591,1.1591,1.1591,1.1591,1.1591,1.1591,1.1591,1.1591,1.1591,1.1591,1.1591,1.1591,1.1591,1.1591,1.1591,1.1606,1.165,1.1816,1.1897,1.1694,1.1816,1.1875,1.1635,1.1794,1.1937,1.1937,1.2504,1.3001,1.3331,1.3148,1.2972,1.2884,1.2694,1.2502,1.233,1.2626,1.2821,1.2866,1.2721,1.2928,1.3434,1.3086,1.2903,1.2903,1.2999,1.2604,1.174,1.1784,1.1725,1.1566,1.1316,1.1342,1.1533,1.0971,1.0724,1.0699,1.0412,1.0333,1.0333,1.0333,1.0364,1.046,0.6501,0.6577,0.6643,0.6643,0.6643,0.6713,0.6955,0.7114,0.7261,0.7465,0.7489,0.7489,0.7489,0.7489,0.7489,0.7489,0.7489,0.7489,0.7489,0.7842,0.8069,0.8069,0.8425,0.8613,0.8613,0.8909,0.923,0.9614,0.923,0.9198,0.9518,0.9875,1.0066,1.0066,1.0478,1.0825,1.1122,1.1122,1.131,1.1591,1.1591,1.1591,1.1591,1.1591,1.1591,1.1591,1.1591,1.1591,1.1591,1.1591,1.1591,1.1591,1.1591,1.1591,1.1591,1.1591,1.1591,1.1591,1.1591,1.1591,1.1591,1.1591,1.1591,1.1591,1.1591,1.1591,1.1643,1.1787,1.1823,1.1933,1.2306,1.2156,1.2018,1.2094,1.2025,1.1952,1.1845,1.2102,1.2339,1.2521,1.2833,1.3067,1.3214,1.3258,1.3126,1.2767,1.2943,1.2952,1.27,1.2998,1.3122,1.3083,1.302,1.3121,1.34,1.3201,1.31,1.31,1.3165,1.2847,1.219,1.2254,1.2292,1.2279,1.1874,1.1727,1.1763,1.1236,1.0902,1.0767,1.064,1.0593,1.0593,1.0593,1.0593,1.0593]}]]